GEFSMA_prec_meanprecacc_132.txt.gz
Total_Precipitation_Accumulation
0.07 0.06 0.04 0.04 0.05 0.06 0.07 0.06 0.06 0.07 0.08 0.10 0.11 0.11 0.13 0.14 0.14 0.12 0.10 0.09 0.08 0.08 0.13 0.27 0.47 0.68 0.85 1.01 1.14 1.06 1.04 0.92 0.67 0.52 0.51 0.60 0.66 0.71 0.72 0.77 0.76 0.64 0.60
0.04 0.04 0.03 0.03 0.03 0.03 0.03 0.02 0.02 0.02 0.02 0.03 0.04 0.06 0.09 0.10 0.12 0.13 0.13 0.14 0.12 0.10 0.11 0.17 0.29 0.54 0.76 0.90 1.09 1.24 1.15 1.14 1.01 0.74 0.58 0.57 0.61 0.66 0.70 0.75 0.79 0.76 0.66
0.02 0.03 0.03 0.03 0.03 0.02 0.02 0.01 0.01 0.01 0.01 0.01 0.01 0.01 0.03 0.05 0.07 0.08 0.11 0.15 0.17 0.15 0.14 0.15 0.18 0.34 0.60 0.82 0.97 1.23 1.32 1.22 1.25 1.13 0.88 0.69 0.63 0.63 0.67 0.71 0.76 0.82 0.76
0.02 0.03 0.03 0.03 0.02 0.02 0.02 0.01 0.01 0.01 0.01 0.01 0.01 0.00 0.00 0.01 0.02 0.03 0.05 0.10 0.18 0.21 0.19 0.18 0.18 0.21 0.40 0.65 0.90 1.12 1.54 1.46 1.36 1.42 1.37 1.05 0.79 0.69 0.69 0.73 0.77 0.83 0.86
0.02 0.02 0.02 0.02 0.02 0.02 0.02 0.02 0.02 0.01 0.01 0.01 0.01 0.00 0.00 0.00 0.01 0.02 0.03 0.05 0.09 0.17 0.23 0.23 0.22 0.19 0.25 0.44 0.70 0.98 1.45 1.80 1.62 1.52 1.57 1.49 1.16 0.88 0.77 0.77 0.81 0.86 0.91
0.01 0.02 0.02 0.01 0.02 0.02 0.02 0.02 0.01 0.01 0.01 0.01 0.01 0.01 0.00 0.00 0.00 0.01 0.02 0.04 0.05 0.09 0.17 0.24 0.26 0.20 0.17 0.23 0.42 0.77 1.16 1.61 1.86 1.75 1.69 1.71 1.57 1.27 1.01 0.89 0.88 0.96 0.98
0.01 0.01 0.01 0.01 0.01 0.01 0.01 0.01 0.01 0.01 0.01 0.02 0.02 0.01 0.00 0.00 0.00 0.00 0.00 0.01 0.03 0.05 0.09 0.19 0.27 0.26 0.21 0.19 0.21 0.36 0.72 1.23 1.72 1.95 1.97 1.91 1.87 1.67 1.37 1.14 1.02 1.06 1.12
0.01 0.01 0.01 0.01 0.01 0.01 0.01 0.01 0.01 0.03 0.03 0.03 0.07 0.10 0.04 0.01 0.00 0.00 0.00 0.00 0.01 0.02 0.06 0.11 0.21 0.27 0.27 0.21 0.15 0.18 0.32 0.70 1.25 1.76 2.06 2.14 2.11 2.05 1.76 1.47 1.24 1.19 1.27
0.01 0.01 0.01 0.01 0.01 0.01 0.02 0.02 0.03 0.05 0.07 0.04 0.08 0.23 0.30 0.15 0.05 0.00 0.00 0.00 0.01 0.01 0.03 0.07 0.14 0.22 0.29 0.29 0.22 0.18 0.20 0.37 0.78 1.35 1.84 2.15 2.28 2.36 2.22 1.83 1.53 1.36 1.37
0.00 0.00 0.01 0.01 0.01 0.01 0.02 0.03 0.04 0.06 0.12 0.12 0.09 0.13 0.23 0.27 0.29 0.13 0.01 0.01 0.01 0.02 0.02 0.03 0.07 0.14 0.22 0.30 0.32 0.30 0.27 0.28 0.50 0.87 1.40 1.96 2.33 2.59 2.74 2.34 1.85 1.58 1.50
0.01 0.01 0.01 0.01 0.01 0.01 0.02 0.04 0.06 0.08 0.14 0.19 0.18 0.17 0.14 0.13 0.18 0.28 0.12 0.02 0.03 0.03 0.03 0.03 0.05 0.09 0.15 0.24 0.31 0.33 0.36 0.35 0.46 0.68 1.00 1.57 2.13 2.66 3.11 2.96 2.27 1.77 1.55
0.01 0.01 0.01 0.01 0.01 0.01 0.02 0.05 0.08 0.11 0.14 0.17 0.20 0.21 0.24 0.25 0.19 0.25 0.22 0.07 0.03 0.02 0.03 0.03 0.04 0.08 0.13 0.20 0.25 0.33 0.37 0.40 0.44 0.55 0.70 1.08 1.65 2.20 2.92 3.21 2.70 2.04 1.63
0.01 0.01 0.01 0.01 0.01 0.02 0.03 0.07 0.10 0.12 0.14 0.19 0.21 0.22 0.23 0.24 0.24 0.28 0.29 0.17 0.08 0.02 0.02 0.03 0.05 0.08 0.12 0.17 0.22 0.27 0.29 0.34 0.41 0.49 0.53 0.63 1.00 1.61 2.35 3.15 3.33 2.61 1.98
0.03 0.02 0.02 0.02 0.02 0.03 0.05 0.08 0.11 0.13 0.15 0.20 0.21 0.23 0.24 0.20 0.22 0.27 0.33 0.38 0.29 0.09 0.03 0.02 0.04 0.07 0.11 0.16 0.20 0.24 0.23 0.27 0.33 0.39 0.42 0.45 0.56 0.91 1.56 2.51 3.46 3.50 2.74
0.02 0.02 0.02 0.03 0.03 0.04 0.07 0.09 0.12 0.14 0.19 0.22 0.24 0.25 0.28 0.25 0.25 0.27 0.29 0.41 0.58 0.41 0.11 0.02 0.04 0.06 0.10 0.15 0.20 0.21 0.22 0.23 0.26 0.32 0.37 0.40 0.44 0.58 0.90 1.51 2.46 3.45 3.61
0.02 0.02 0.02 0.03 0.04 0.07 0.09 0.11 0.13 0.16 0.21 0.24 0.28 0.31 0.34 0.35 0.35 0.33 0.34 0.36 0.45 0.54 0.32 0.05 0.04 0.08 0.13 0.17 0.22 0.20 0.22 0.25 0.24 0.26 0.29 0.34 0.39 0.51 0.70 1.01 1.59 2.48 3.32
0.02 0.02 0.04 0.06 0.09 0.12 0.13 0.15 0.18 0.23 0.26 0.27 0.32 0.39 0.43 0.46 0.50 0.48 0.46 0.42 0.40 0.45 0.43 0.11 0.03 0.06 0.14 0.20 0.21 0.21 0.23 0.22 0.19 0.20 0.24 0.29 0.36 0.45 0.61 0.82 1.14 1.72 2.54
0.01 0.03 0.07 0.12 0.16 0.19 0.19 0.19 0.23 0.33 0.44 0.45 0.42 0.44 0.46 0.50 0.56 0.58 0.59 0.53 0.43 0.37 0.41 0.26 0.07 0.06 0.11 0.21 0.27 0.26 0.25 0.23 0.20 0.20 0.23 0.29 0.34 0.43 0.54 0.71 0.94 1.26 1.87
0.02 0.03 0.09 0.20 0.26 0.31 0.31 0.29 0.31 0.38 0.52 0.65 0.68 0.68 0.63 0.59 0.60 0.60 0.64 0.61 0.52 0.42 0.38 0.36 0.20 0.10 0.12 0.21 0.33 0.36 0.32 0.28 0.24 0.23 0.24 0.27 0.30 0.36 0.45 0.58 0.76 0.99 1.27
0.03 0.05 0.09 0.19 0.30 0.42 0.54 0.56 0.58 0.56 0.59 0.67 0.74 0.80 0.81 0.83 0.78 0.73 0.72 0.67 0.62 0.58 0.51 0.48 0.36 0.23 0.19 0.24 0.40 0.49 0.43 0.35 0.31 0.28 0.28 0.28 0.30 0.34 0.36 0.39 0.45 0.62 0.87
0.03 0.05 0.07 0.11 0.21 0.49 0.89 0.92 0.83 0.75 0.62 0.55 0.54 0.57 0.67 0.83 0.92 0.97 1.01 0.92 0.87 0.91 0.82 0.74 0.61 0.46 0.36 0.39 0.51 0.56 0.63 0.54 0.44 0.39 0.36 0.30 0.28 0.25 0.25 0.28 0.35 0.45 0.62
0.03 0.04 0.05 0.06 0.14 0.42 0.85 0.92 0.71 0.53 0.39 0.36 0.38 0.37 0.40 0.56 0.68 0.79 0.94 0.98 1.04 1.19 1.24 1.13 0.93 0.74 0.52 0.47 0.54 0.69 0.82 0.87 0.73 0.46 0.47 0.43 0.37 0.34 0.27 0.24 0.26 0.33 0.46
0.03 0.04 0.04 0.03 0.06 0.27 0.66 0.75 0.54 0.32 0.22 0.20 0.22 0.22 0.23 0.32 0.43 0.48 0.59 0.68 0.79 0.96 1.19 1.30 1.24 0.91 0.65 0.51 0.65 0.82 0.87 0.94 0.83 0.66 0.72 0.78 0.62 0.51 0.39 0.34 0.36 0.35 0.43
0.02 0.04 0.04 0.02 0.03 0.12 0.50 0.68 0.50 0.24 0.16 0.14 0.16 0.15 0.13 0.18 0.31 0.44 0.55 0.57 0.58 0.70 0.98 1.23 1.37 1.18 0.94 0.81 0.93 1.15 1.25 1.23 1.05 0.90 0.93 1.11 0.91 0.73 0.60 0.50 0.43 0.38 0.41
0.02 0.02 0.03 0.02 0.02 0.04 0.33 0.67 0.58 0.27 0.15 0.12 0.15 0.16 0.12 0.11 0.26 0.43 0.48 0.45 0.40 0.47 0.63 0.93 1.15 1.20 1.17 1.21 1.31 1.56 1.71 1.65 1.48 1.20 1.08 1.19 1.18 1.05 0.90 0.79 0.63 0.49 0.44
0.02 0.02 0.02 0.01 0.01 0.02 0.17 0.58 0.73 0.34 0.17 0.13 0.12 0.14 0.19 0.22 0.32 0.40 0.38 0.39 0.46 0.42 0.42 0.49 0.59 0.69 0.78 0.85 1.07 1.38 1.56 1.63 1.61 1.59 1.27 1.18 1.34 1.41 1.51 1.19 0.85 0.56 0.47

GEFSMA_prec_meanprecacc_138.txt.gz
Total_Precipitation_Accumulation
0.07 0.06 0.04 0.04 0.05 0.06 0.07 0.06 0.06 0.07 0.08 0.10 0.11 0.11 0.13 0.14 0.14 0.12 0.10 0.09 0.08 0.08 0.13 0.27 0.47 0.68 0.85 1.01 1.14 1.06 1.04 0.92 0.67 0.52 0.51 0.60 0.66 0.71 0.72 0.77 0.77 0.65 0.61
0.04 0.04 0.03 0.03 0.03 0.03 0.03 0.03 0.02 0.02 0.02 0.03 0.04 0.06 0.09 0.10 0.12 0.13 0.13 0.14 0.12 0.10 0.11 0.17 0.29 0.54 0.76 0.90 1.09 1.24 1.15 1.14 1.01 0.74 0.58 0.57 0.61 0.67 0.70 0.76 0.80 0.77 0.66
0.02 0.03 0.03 0.03 0.03 0.02 0.02 0.01 0.01 0.01 0.01 0.01 0.01 0.01 0.03 0.05 0.07 0.08 0.11 0.15 0.17 0.15 0.14 0.15 0.18 0.34 0.60 0.82 0.97 1.23 1.32 1.22 1.25 1.13 0.88 0.69 0.63 0.63 0.67 0.72 0.77 0.83 0.76
0.02 0.03 0.03 0.03 0.02 0.02 0.02 0.02 0.01 0.01 0.01 0.01 0.01 0.00 0.00 0.01 0.02 0.03 0.05 0.10 0.18 0.21 0.19 0.18 0.18 0.21 0.40 0.65 0.90 1.12 1.54 1.46 1.36 1.42 1.37 1.05 0.79 0.69 0.69 0.73 0.77 0.84 0.87
0.02 0.02 0.02 0.02 0.02 0.02 0.02 0.02 0.02 0.01 0.01 0.01 0.01 0.01 0.00 0.01 0.01 0.02 0.03 0.05 0.09 0.17 0.23 0.23 0.22 0.19 0.25 0.44 0.70 0.98 1.45 1.80 1.62 1.52 1.57 1.49 1.16 0.89 0.77 0.77 0.82 0.87 0.92
0.01 0.02 0.02 0.02 0.02 0.02 0.02 0.02 0.02 0.01 0.01 0.01 0.01 0.01 0.00 0.00 0.00 0.01 0.02 0.04 0.05 0.09 0.17 0.24 0.26 0.20 0.17 0.23 0.42 0.77 1.16 1.61 1.86 1.75 1.69 1.71 1.57 1.27 1.02 0.89 0.88 0.96 0.98
0.01 0.01 0.01 0.01 0.01 0.01 0.02 0.01 0.01 0.01 0.01 0.02 0.02 0.01 0.00 0.00 0.00 0.00 0.00 0.01 0.03 0.05 0.09 0.19 0.27 0.26 0.21 0.19 0.21 0.36 0.72 1.23 1.72 1.95 1.97 1.91 1.87 1.67 1.37 1.15 1.03 1.07 1.13
0.01 0.01 0.01 0.01 0.01 0.01 0.02 0.01 0.02 0.03 0.03 0.03 0.07 0.10 0.05 0.01 0.00 0.00 0.00 0.00 0.01 0.02 0.06 0.11 0.21 0.27 0.27 0.21 0.15 0.18 0.32 0.70 1.25 1.77 2.06 2.14 2.11 2.05 1.77 1.47 1.25 1.20 1.28
0.01 0.01 0.01 0.01 0.01 0.01 0.02 0.02 0.03 0.05 0.07 0.05 0.08 0.23 0.30 0.15 0.05 0.00 0.00 0.00 0.01 0.01 0.03 0.07 0.14 0.22 0.29 0.29 0.22 0.18 0.20 0.37 0.78 1.35 1.84 2.15 2.28 2.36 2.22 1.84 1.53 1.37 1.38
0.01 0.01 0.01 0.01 0.01 0.01 0.02 0.03 0.04 0.06 0.12 0.12 0.09 0.13 0.23 0.27 0.29 0.13 0.01 0.01 0.01 0.02 0.02 0.03 0.07 0.14 0.22 0.30 0.32 0.30 0.27 0.28 0.50 0.87 1.40 1.96 2.33 2.59 2.74 2.35 1.86 1.59 1.51
0.01 0.01 0.01 0.01 0.01 0.01 0.02 0.04 0.06 0.08 0.14 0.19 0.19 0.17 0.14 0.13 0.18 0.28 0.13 0.02 0.03 0.03 0.03 0.03 0.05 0.09 0.15 0.24 0.31 0.33 0.36 0.35 0.46 0.68 1.00 1.57 2.13 2.66 3.11 2.96 2.28 1.77 1.56
0.01 0.01 0.01 0.01 0.01 0.01 0.03 0.05 0.08 0.11 0.14 0.17 0.20 0.21 0.24 0.25 0.20 0.26 0.22 0.07 0.03 0.02 0.03 0.03 0.04 0.08 0.13 0.20 0.25 0.33 0.37 0.40 0.44 0.55 0.70 1.08 1.65 2.20 2.92 3.22 2.70 2.05 1.64
0.01 0.01 0.01 0.01 0.01 0.02 0.04 0.07 0.11 0.12 0.14 0.19 0.22 0.23 0.24 0.24 0.24 0.28 0.30 0.17 0.08 0.02 0.02 0.03 0.05 0.08 0.12 0.17 0.22 0.27 0.29 0.34 0.41 0.49 0.53 0.63 1.00 1.62 2.35 3.15 3.33 2.62 1.99
0.03 0.02 0.02 0.02 0.02 0.03 0.05 0.08 0.12 0.13 0.16 0.20 0.21 0.23 0.24 0.20 0.22 0.28 0.34 0.38 0.29 0.09 0.03 0.02 0.04 0.07 0.11 0.16 0.20 0.24 0.23 0.27 0.33 0.39 0.42 0.45 0.56 0.91 1.56 2.52 3.46 3.51 2.75
0.03 0.02 0.02 0.03 0.03 0.05 0.07 0.10 0.12 0.15 0.19 0.22 0.24 0.26 0.29 0.26 0.26 0.27 0.30 0.41 0.58 0.41 0.11 0.02 0.04 0.06 0.10 0.15 0.20 0.21 0.22 0.23 0.26 0.32 0.38 0.40 0.44 0.58 0.90 1.51 2.47 3.46 3.62
0.02 0.02 0.02 0.03 0.05 0.07 0.10 0.12 0.14 0.16 0.21 0.24 0.29 0.32 0.34 0.35 0.35 0.33 0.34 0.36 0.45 0.54 0.32 0.05 0.04 0.08 0.13 0.17 0.22 0.20 0.22 0.25 0.24 0.26 0.29 0.34 0.39 0.51 0.71 1.01 1.60 2.49 3.34
0.02 0.02 0.04 0.07 0.09 0.12 0.14 0.15 0.18 0.23 0.26 0.27 0.32 0.39 0.43 0.46 0.50 0.48 0.46 0.42 0.40 0.45 0.44 0.11 0.03 0.06 0.14 0.20 0.21 0.21 0.23 0.22 0.19 0.20 0.24 0.29 0.36 0.45 0.61 0.83 1.15 1.74 2.55
0.02 0.03 0.07 0.13 0.16 0.19 0.19 0.19 0.23 0.33 0.44 0.45 0.42 0.44 0.47 0.50 0.56 0.58 0.59 0.53 0.44 0.38 0.41 0.26 0.07 0.06 0.11 0.22 0.27 0.26 0.25 0.23 0.20 0.20 0.24 0.29 0.34 0.43 0.55 0.72 0.95 1.28 1.88
0.02 0.03 0.09 0.20 0.26 0.31 0.31 0.29 0.32 0.38 0.53 0.66 0.68 0.68 0.63 0.59 0.60 0.60 0.64 0.61 0.52 0.42 0.39 0.36 0.20 0.10 0.12 0.21 0.33 0.36 0.32 0.28 0.24 0.23 0.24 0.27 0.30 0.36 0.46 0.58 0.77 1.00 1.29
0.03 0.05 0.09 0.19 0.30 0.42 0.54 0.56 0.58 0.56 0.59 0.68 0.75 0.80 0.81 0.83 0.78 0.73 0.72 0.67 0.62 0.59 0.51 0.49 0.37 0.23 0.19 0.24 0.40 0.49 0.43 0.35 0.31 0.28 0.28 0.28 0.30 0.34 0.37 0.39 0.46 0.63 0.88
0.03 0.05 0.07 0.11 0.21 0.49 0.89 0.92 0.83 0.75 0.62 0.55 0.54 0.58 0.68 0.84 0.93 0.98 1.02 0.93 0.88 0.92 0.83 0.74 0.62 0.47 0.36 0.40 0.51 0.57 0.63 0.54 0.44 0.39 0.36 0.30 0.28 0.25 0.25 0.28 0.35 0.45 0.62
0.03 0.04 0.05 0.06 0.14 0.42 0.86 0.92 0.71 0.53 0.39 0.37 0.38 0.37 0.41 0.57 0.69 0.81 0.96 1.00 1.06 1.20 1.24 1.14 0.93 0.75 0.52 0.47 0.54 0.69 0.82 0.88 0.73 0.46 0.47 0.44 0.37 0.34 0.27 0.24 0.27 0.34 0.47
0.03 0.05 0.04 0.03 0.06 0.27 0.66 0.76 0.54 0.32 0.22 0.21 0.22 0.23 0.24 0.34 0.45 0.49 0.60 0.70 0.81 0.97 1.20 1.31 1.25 0.92 0.65 0.51 0.66 0.83 0.87 0.95 0.84 0.66 0.73 0.79 0.62 0.52 0.39 0.35 0.36 0.36 0.43
0.02 0.04 0.04 0.03 0.03 0.13 0.51 0.68 0.50 0.25 0.16 0.14 0.16 0.15 0.13 0.18 0.32 0.45 0.56 0.58 0.59 0.71 0.99 1.24 1.37 1.18 0.94 0.81 0.94 1.16 1.25 1.24 1.05 0.90 0.93 1.11 0.91 0.73 0.60 0.50 0.43 0.39 0.42
0.02 0.03 0.03 0.02 0.02 0.05 0.33 0.67 0.58 0.27 0.15 0.12 0.15 0.16 0.12 0.11 0.26 0.44 0.48 0.45 0.40 0.47 0.63 0.93 1.15 1.20 1.17 1.21 1.31 1.57 1.71 1.66 1.49 1.20 1.08 1.20 1.18 1.05 0.90 0.79 0.63 0.50 0.44
0.02 0.02 0.02 0.02 0.02 0.02 0.18 0.59 0.73 0.34 0.17 0.13 0.12 0.14 0.19 0.23 0.33 0.41 0.39 0.40 0.46 0.42 0.42 0.49 0.59 0.69 0.78 0.85 1.08 1.38 1.56 1.64 1.61 1.60 1.27 1.19 1.35 1.42 1.52 1.19 0.85 0.57 0.47

GEFSMA_prec_meanprecacc_144.txt.gz
Total_Precipitation_Accumulation
0.07 0.06 0.04 0.04 0.05 0.06 0.07 0.06 0.06 0.07 0.08 0.10 0.11 0.11 0.13 0.14 0.14 0.12 0.10 0.09 0.08 0.08 0.13 0.27 0.48 0.68 0.85 1.01 1.14 1.06 1.04 0.92 0.67 0.52 0.51 0.60 0.66 0.72 0.72 0.78 0.77 0.65 0.62
0.04 0.04 0.03 0.03 0.03 0.03 0.03 0.03 0.02 0.02 0.02 0.03 0.04 0.06 0.09 0.10 0.12 0.13 0.13 0.14 0.12 0.10 0.11 0.17 0.29 0.54 0.76 0.90 1.09 1.24 1.15 1.14 1.01 0.74 0.58 0.57 0.61 0.67 0.70 0.76 0.80 0.77 0.67
0.02 0.03 0.03 0.03 0.03 0.02 0.02 0.01 0.01 0.01 0.01 0.01 0.01 0.01 0.03 0.05 0.07 0.08 0.11 0.15 0.17 0.15 0.14 0.15 0.18 0.34 0.60 0.82 0.97 1.23 1.32 1.22 1.25 1.13 0.89 0.69 0.63 0.63 0.67 0.72 0.77 0.83 0.77
0.02 0.03 0.03 0.03 0.02 0.02 0.02 0.02 0.01 0.01 0.01 0.01 0.01 0.00 0.00 0.01 0.02 0.03 0.05 0.10 0.18 0.21 0.19 0.18 0.18 0.21 0.40 0.65 0.90 1.12 1.54 1.46 1.36 1.42 1.37 1.05 0.79 0.69 0.70 0.74 0.78 0.84 0.88
0.02 0.02 0.02 0.02 0.02 0.02 0.02 0.02 0.02 0.01 0.01 0.01 0.01 0.01 0.00 0.01 0.01 0.02 0.03 0.05 0.09 0.17 0.23 0.23 0.22 0.19 0.25 0.44 0.70 0.98 1.45 1.80 1.62 1.52 1.57 1.49 1.16 0.89 0.78 0.77 0.82 0.87 0.93
0.01 0.02 0.02 0.02 0.02 0.02 0.02 0.02 0.02 0.01 0.01 0.01 0.01 0.01 0.00 0.00 0.00 0.01 0.02 0.04 0.05 0.09 0.17 0.24 0.26 0.20 0.17 0.23 0.42 0.77 1.16 1.61 1.86 1.75 1.69 1.71 1.57 1.27 1.02 0.89 0.89 0.97 0.99
0.01 0.01 0.01 0.01 0.01 0.01 0.02 0.01 0.01 0.01 0.01 0.02 0.02 0.01 0.00 0.00 0.00 0.00 0.00 0.01 0.03 0.05 0.09 0.19 0.27 0.26 0.21 0.19 0.21 0.36 0.72 1.23 1.72 1.95 1.97 1.91 1.87 1.67 1.38 1.15 1.04 1.08 1.14
0.01 0.01 0.01 0.01 0.01 0.01 0.02 0.01 0.02 0.03 0.03 0.03 0.07 0.10 0.05 0.01 0.00 0.00 0.00 0.00 0.01 0.02 0.06 0.11 0.21 0.27 0.27 0.21 0.15 0.18 0.32 0.70 1.26 1.77 2.06 2.14 2.12 2.05 1.77 1.48 1.26 1.21 1.30
0.01 0.01 0.01 0.01 0.01 0.01 0.02 0.02 0.03 0.05 0.07 0.05 0.08 0.23 0.30 0.15 0.05 0.00 0.00 0.00 0.01 0.01 0.03 0.07 0.14 0.22 0.29 0.29 0.22 0.18 0.20 0.37 0.78 1.35 1.84 2.15 2.28 2.36 2.23 1.85 1.55 1.38 1.39
0.01 0.01 0.01 0.01 0.01 0.01 0.02 0.03 0.04 0.06 0.12 0.12 0.09 0.13 0.23 0.27 0.29 0.13 0.01 0.01 0.01 0.02 0.02 0.03 0.07 0.14 0.22 0.30 0.32 0.30 0.27 0.28 0.50 0.87 1.40 1.96 2.34 2.60 2.75 2.36 1.87 1.60 1.53
0.01 0.01 0.01 0.01 0.01 0.01 0.02 0.04 0.06 0.08 0.14 0.19 0.19 0.17 0.14 0.13 0.18 0.28 0.13 0.02 0.03 0.03 0.03 0.03 0.05 0.09 0.15 0.24 0.31 0.33 0.36 0.35 0.46 0.68 1.00 1.57 2.13 2.67 3.12 2.97 2.29 1.79 1.57
0.01 0.01 0.01 0.01 0.01 0.01 0.03 0.05 0.08 0.11 0.14 0.18 0.20 0.21 0.24 0.25 0.20 0.26 0.22 0.07 0.03 0.02 0.03 0.03 0.04 0.08 0.13 0.20 0.25 0.33 0.37 0.40 0.44 0.55 0.70 1.08 1.65 2.20 2.93 3.22 2.71 2.06 1.65
0.01 0.01 0.01 0.01 0.01 0.02 0.04 0.07 0.11 0.12 0.14 0.19 0.22 0.23 0.24 0.24 0.24 0.28 0.30 0.18 0.08 0.02 0.02 0.03 0.05 0.08 0.12 0.17 0.22 0.27 0.29 0.34 0.41 0.49 0.53 0.63 1.00 1.62 2.36 3.16 3.34 2.63 2.00
0.03 0.02 0.02 0.02 0.02 0.03 0.05 0.09 0.12 0.13 0.16 0.21 0.21 0.24 0.24 0.20 0.23 0.29 0.34 0.38 0.29 0.09 0.03 0.02 0.04 0.07 0.11 0.16 0.20 0.24 0.23 0.27 0.33 0.39 0.42 0.46 0.57 0.91 1.57 2.52 3.47 3.52 2.76
0.03 0.02 0.02 0.03 0.03 0.05 0.07 0.10 0.13 0.15 0.20 0.22 0.24 0.26 0.30 0.26 0.26 0.27 0.30 0.41 0.58 0.41 0.11 0.02 0.04 0.06 0.10 0.15 0.20 0.21 0.22 0.23 0.26 0.32 0.38 0.40 0.45 0.59 0.90 1.52 2.48 3.47 3.63
0.02 0.02 0.02 0.03 0.05 0.07 0.10 0.12 0.14 0.17 0.22 0.25 0.30 0.32 0.35 0.36 0.36 0.33 0.34 0.36 0.45 0.54 0.32 0.05 0.04 0.08 0.13 0.17 0.22 0.20 0.22 0.25 0.24 0.26 0.29 0.34 0.39 0.51 0.71 1.02 1.61 2.50 3.35
0.02 0.02 0.04 0.07 0.09 0.13 0.14 0.16 0.19 0.23 0.27 0.28 0.32 0.39 0.43 0.46 0.51 0.48 0.46 0.43 0.40 0.46 0.44 0.11 0.03 0.06 0.14 0.20 0.21 0.21 0.23 0.22 0.19 0.20 0.24 0.29 0.36 0.46 0.62 0.83 1.16 1.75 2.57
0.02 0.03 0.07 0.13 0.16 0.19 0.19 0.20 0.24 0.33 0.44 0.45 0.42 0.44 0.47 0.50 0.56 0.58 0.59 0.54 0.44 0.38 0.42 0.27 0.07 0.06 0.11 0.22 0.27 0.26 0.25 0.23 0.20 0.20 0.24 0.29 0.34 0.43 0.55 0.73 0.96 1.29 1.90
0.02 0.03 0.09 0.20 0.26 0.31 0.32 0.30 0.32 0.38 0.53 0.66 0.68 0.69 0.63 0.59 0.61 0.60 0.64 0.61 0.52 0.42 0.39 0.37 0.20 0.11 0.12 0.22 0.34 0.37 0.32 0.28 0.24 0.23 0.24 0.27 0.30 0.36 0.46 0.59 0.78 1.01 1.30
0.03 0.05 0.10 0.20 0.30 0.42 0.54 0.57 0.59 0.56 0.59 0.68 0.75 0.80 0.81 0.83 0.78 0.73 0.72 0.67 0.63 0.59 0.52 0.50 0.37 0.23 0.19 0.24 0.41 0.49 0.43 0.35 0.31 0.28 0.28 0.28 0.30 0.34 0.37 0.39 0.46 0.64 0.89
0.03 0.06 0.07 0.11 0.21 0.49 0.89 0.92 0.83 0.76 0.63 0.56 0.55 0.58 0.68 0.84 0.93 0.98 1.03 0.94 0.89 0.93 0.85 0.76 0.63 0.48 0.37 0.40 0.51 0.57 0.64 0.54 0.44 0.39 0.36 0.30 0.28 0.25 0.25 0.28 0.35 0.46 0.64
0.03 0.04 0.05 0.07 0.14 0.42 0.86 0.93 0.71 0.54 0.40 0.38 0.39 0.38 0.42 0.58 0.70 0.82 0.97 1.01 1.07 1.22 1.26 1.16 0.95 0.76 0.53 0.48 0.55 0.70 0.83 0.88 0.73 0.46 0.47 0.44 0.37 0.34 0.27 0.24 0.27 0.35 0.49
0.03 0.05 0.04 0.03 0.07 0.27 0.67 0.77 0.55 0.33 0.23 0.21 0.23 0.24 0.25 0.34 0.46 0.50 0.62 0.72 0.82 0.99 1.22 1.32 1.26 0.93 0.67 0.52 0.67 0.83 0.88 0.95 0.84 0.66 0.73 0.79 0.62 0.52 0.39 0.35 0.37 0.37 0.44
0.03 0.04 0.04 0.03 0.03 0.13 0.52 0.69 0.51 0.25 0.16 0.15 0.17 0.16 0.14 0.19 0.32 0.46 0.56 0.59 0.59 0.71 1.00 1.25 1.39 1.19 0.95 0.82 0.94 1.16 1.26 1.24 1.06 0.90 0.93 1.11 0.92 0.73 0.60 0.50 0.43 0.39 0.42
0.02 0.03 0.03 0.03 0.03 0.05 0.34 0.68 0.59 0.27 0.16 0.13 0.15 0.17 0.13 0.12 0.27 0.45 0.49 0.45 0.41 0.48 0.64 0.94 1.16 1.20 1.18 1.22 1.32 1.57 1.72 1.66 1.49 1.20 1.08 1.20 1.19 1.05 0.90 0.79 0.63 0.50 0.44
0.02 0.02 0.02 0.02 0.02 0.03 0.19 0.59 0.74 0.35 0.18 0.14 0.13 0.14 0.19 0.23 0.34 0.42 0.39 0.40 0.47 0.43 0.43 0.49 0.59 0.69 0.78 0.85 1.08 1.38 1.57 1.64 1.62 1.60 1.27 1.19 1.35 1.42 1.52 1.19 0.85 0.57 0.47

GEFSMA_prec_meanprecacc_150.txt.gz
Total_Precipitation_Accumulation
0.07 0.06 0.04 0.04 0.05 0.06 0.07 0.06 0.06 0.07 0.08 0.10 0.11 0.11 0.13 0.14 0.14 0.12 0.10 0.09 0.08 0.08 0.14 0.28 0.48 0.68 0.85 1.01 1.14 1.07 1.04 0.92 0.67 0.52 0.51 0.60 0.66 0.72 0.72 0.78 0.78 0.66 0.63
0.04 0.04 0.03 0.03 0.03 0.03 0.03 0.03 0.02 0.02 0.02 0.03 0.04 0.06 0.09 0.10 0.12 0.13 0.13 0.14 0.12 0.10 0.12 0.17 0.29 0.54 0.76 0.90 1.09 1.24 1.15 1.14 1.01 0.74 0.59 0.57 0.61 0.67 0.71 0.76 0.81 0.78 0.68
0.02 0.03 0.03 0.03 0.03 0.02 0.02 0.01 0.01 0.01 0.01 0.01 0.01 0.01 0.03 0.05 0.07 0.08 0.11 0.15 0.17 0.15 0.14 0.15 0.18 0.34 0.60 0.82 0.97 1.23 1.32 1.22 1.25 1.13 0.89 0.69 0.63 0.63 0.68 0.73 0.78 0.84 0.78
0.02 0.03 0.03 0.03 0.02 0.02 0.02 0.02 0.01 0.01 0.01 0.01 0.01 0.00 0.00 0.01 0.02 0.03 0.05 0.10 0.18 0.21 0.19 0.18 0.18 0.21 0.40 0.65 0.90 1.12 1.54 1.46 1.36 1.42 1.37 1.05 0.79 0.70 0.70 0.74 0.78 0.85 0.89
0.02 0.02 0.02 0.02 0.02 0.02 0.02 0.02 0.02 0.01 0.01 0.01 0.01 0.01 0.00 0.01 0.01 0.02 0.03 0.05 0.09 0.17 0.23 0.23 0.22 0.19 0.25 0.44 0.70 0.98 1.45 1.80 1.62 1.52 1.57 1.49 1.16 0.89 0.78 0.78 0.83 0.88 0.94
0.01 0.02 0.02 0.02 0.02 0.02 0.02 0.02 0.02 0.01 0.01 0.01 0.01 0.01 0.00 0.00 0.00 0.01 0.02 0.04 0.05 0.09 0.17 0.24 0.26 0.20 0.17 0.23 0.42 0.77 1.16 1.61 1.86 1.76 1.69 1.71 1.57 1.27 1.02 0.90 0.90 0.98 1.01
0.01 0.01 0.01 0.01 0.01 0.01 0.02 0.01 0.01 0.01 0.01 0.02 0.02 0.01 0.00 0.00 0.00 0.00 0.00 0.01 0.03 0.05 0.09 0.19 0.27 0.26 0.21 0.19 0.21 0.36 0.72 1.23 1.72 1.96 1.97 1.91 1.88 1.68 1.38 1.16 1.05 1.09 1.16
0.01 0.01 0.01 0.01 0.01 0.01 0.02 0.01 0.02 0.03 0.03 0.03 0.07 0.10 0.05 0.01 0.00 0.00 0.00 0.00 0.01 0.02 0.06 0.11 0.21 0.27 0.27 0.21 0.15 0.18 0.32 0.70 1.26 1.77 2.06 2.14 2.12 2.05 1.78 1.49 1.27 1.23 1.32
0.01 0.01 0.01 0.01 0.01 0.01 0.02 0.02 0.03 0.05 0.07 0.05 0.08 0.23 0.30 0.15 0.05 0.00 0.00 0.00 0.01 0.01 0.03 0.07 0.14 0.22 0.29 0.29 0.22 0.18 0.20 0.37 0.78 1.35 1.84 2.15 2.28 2.37 2.24 1.86 1.56 1.39 1.41
0.01 0.01 0.01 0.01 0.01 0.01 0.02 0.03 0.04 0.06 0.12 0.12 0.09 0.13 0.23 0.27 0.29 0.13 0.01 0.01 0.01 0.02 0.02 0.03 0.07 0.14 0.22 0.30 0.32 0.30 0.27 0.28 0.50 0.87 1.40 1.97 2.34 2.60 2.76 2.37 1.88 1.62 1.54
0.01 0.01 0.01 0.01 0.01 0.01 0.02 0.04 0.06 0.08 0.14 0.20 0.19 0.17 0.14 0.13 0.18 0.29 0.13 0.02 0.03 0.03 0.03 0.03 0.05 0.09 0.15 0.24 0.31 0.33 0.36 0.35 0.46 0.68 1.00 1.57 2.14 2.67 3.13 2.98 2.30 1.80 1.59
0.01 0.01 0.01 0.01 0.01 0.02 0.03 0.05 0.08 0.11 0.15 0.18 0.20 0.21 0.24 0.26 0.20 0.26 0.22 0.08 0.03 0.03 0.03 0.04 0.04 0.08 0.13 0.20 0.25 0.33 0.37 0.40 0.44 0.55 0.70 1.08 1.66 2.21 2.93 3.23 2.72 2.07 1.67
0.02 0.01 0.01 0.01 0.01 0.02 0.04 0.07 0.11 0.13 0.14 0.19 0.22 0.23 0.24 0.25 0.25 0.29 0.31 0.18 0.09 0.03 0.02 0.03 0.05 0.08 0.12 0.17 0.22 0.27 0.29 0.34 0.41 0.49 0.53 0.63 1.00 1.62 2.36 3.17 3.35 2.64 2.02
0.03 0.02 0.02 0.02 0.02 0.03 0.05 0.09 0.12 0.13 0.16 0.21 0.21 0.24 0.25 0.21 0.24 0.29 0.35 0.39 0.30 0.09 0.03 0.02 0.04 0.07 0.11 0.16 0.20 0.24 0.23 0.27 0.33 0.39 0.42 0.46 0.57 0.92 1.57 2.53 3.48 3.52 2.77
0.03 0.02 0.02 0.03 0.03 0.05 0.08 0.10 0.13 0.16 0.20 0.23 0.25 0.27 0.31 0.28 0.27 0.28 0.30 0.42 0.58 0.41 0.11 0.02 0.04 0.07 0.10 0.16 0.20 0.21 0.22 0.23 0.26 0.32 0.38 0.40 0.45 0.59 0.91 1.52 2.48 3.48 3.64
0.03 0.02 0.02 0.03 0.05 0.07 0.10 0.12 0.14 0.17 0.23 0.26 0.31 0.34 0.36 0.37 0.36 0.33 0.34 0.37 0.45 0.54 0.32 0.05 0.04 0.08 0.13 0.17 0.22 0.20 0.22 0.25 0.24 0.26 0.30 0.34 0.39 0.51 0.71 1.02 1.61 2.51 3.36
0.03 0.03 0.04 0.07 0.09 0.13 0.14 0.16 0.20 0.25 0.28 0.29 0.33 0.40 0.43 0.46 0.51 0.48 0.46 0.43 0.41 0.46 0.44 0.12 0.04 0.06 0.15 0.20 0.21 0.21 0.23 0.22 0.19 0.20 0.24 0.29 0.36 0.46 0.62 0.84 1.17 1.76 2.58
0.05 0.04 0.08 0.13 0.16 0.19 0.19 0.20 0.24 0.34 0.45 0.46 0.43 0.45 0.47 0.50 0.56 0.58 0.60 0.54 0.44 0.38 0.42 0.27 0.08 0.06 0.11 0.22 0.27 0.26 0.25 0.23 0.20 0.20 0.24 0.29 0.34 0.43 0.56 0.73 0.96 1.30 1.91
0.07 0.07 0.10 0.20 0.26 0.31 0.32 0.30 0.33 0.39 0.54 0.67 0.69 0.69 0.64 0.59 0.61 0.60 0.64 0.62 0.53 0.43 0.40 0.37 0.21 0.11 0.13 0.22 0.34 0.37 0.32 0.28 0.24 0.23 0.24 0.27 0.30 0.36 0.46 0.59 0.78 1.02 1.31
0.06 0.10 0.13 0.20 0.30 0.43 0.54 0.57 0.59 0.57 0.60 0.68 0.75 0.80 0.81 0.83 0.79 0.74 0.73 0.68 0.63 0.60 0.53 0.50 0.38 0.24 0.20 0.25 0.41 0.49 0.43 0.35 0.31 0.28 0.28 0.28 0.30 0.34 0.37 0.39 0.47 0.64 0.90
0.06 0.08 0.10 0.14 0.22 0.49 0.89 0.92 0.84 0.76 0.63 0.56 0.55 0.59 0.69 0.86 0.94 0.99 1.03 0.94 0.90 0.94 0.86 0.78 0.65 0.49 0.38 0.41 0.52 0.58 0.64 0.54 0.45 0.39 0.36 0.30 0.28 0.25 0.25 0.28 0.35 0.46 0.64
0.07 0.08 0.07 0.09 0.16 0.43 0.86 0.93 0.72 0.54 0.41 0.38 0.40 0.39 0.43 0.60 0.71 0.83 0.99 1.02 1.08 1.23 1.27 1.17 0.96 0.77 0.55 0.49 0.55 0.70 0.83 0.88 0.73 0.46 0.47 0.44 0.37 0.34 0.27 0.24 0.27 0.35 0.49
0.06 0.08 0.07 0.06 0.09 0.29 0.68 0.77 0.56 0.33 0.23 0.22 0.24 0.25 0.26 0.35 0.47 0.51 0.63 0.73 0.83 1.00 1.23 1.34 1.28 0.95 0.68 0.53 0.67 0.84 0.88 0.95 0.84 0.66 0.73 0.79 0.62 0.52 0.39 0.35 0.37 0.37 0.45
0.06 0.06 0.06 0.05 0.06 0.15 0.54 0.71 0.53 0.26 0.17 0.16 0.17 0.17 0.14 0.19 0.33 0.47 0.57 0.60 0.60 0.73 1.02 1.26 1.40 1.20 0.95 0.82 0.94 1.16 1.26 1.24 1.06 0.90 0.93 1.11 0.92 0.73 0.60 0.50 0.43 0.39 0.42
0.05 0.05 0.05 0.04 0.04 0.06 0.36 0.70 0.62 0.29 0.17 0.14 0.16 0.18 0.13 0.12 0.29 0.47 0.50 0.47 0.42 0.49 0.65 0.95 1.17 1.21 1.18 1.22 1.32 1.57 1.72 1.66 1.49 1.20 1.09 1.20 1.19 1.05 0.91 0.79 0.63 0.50 0.44
0.04 0.04 0.05 0.04 0.03 0.04 0.20 0.61 0.76 0.37 0.19 0.15 0.14 0.15 0.21 0.25 0.36 0.44 0.40 0.41 0.48 0.44 0.44 0.50 0.60 0.70 0.79 0.86 1.08 1.38 1.57 1.64 1.63 1.61 1.27 1.20 1.36 1.43 1.52 1.19 0.85 0.57 0.47

GEFSMA_prec_meanprecacc_156.txt.gz
Total_Precipitation_Accumulation
0.07 0.06 0.04 0.04 0.05 0.06 0.07 0.06 0.06 0.07 0.08 0.10 0.11 0.11 0.13 0.14 0.14 0.12 0.10 0.09 0.08 0.08 0.14 0.28 0.48 0.68 0.85 1.01 1.14 1.07 1.04 0.92 0.67 0.52 0.51 0.60 0.66 0.72 0.73 0.78 0.78 0.67 0.63
0.04 0.04 0.04 0.03 0.03 0.03 0.03 0.03 0.02 0.02 0.02 0.03 0.04 0.06 0.09 0.10 0.12 0.13 0.13 0.14 0.12 0.10 0.12 0.17 0.29 0.54 0.76 0.90 1.09 1.24 1.15 1.14 1.01 0.74 0.59 0.57 0.61 0.67 0.71 0.77 0.81 0.79 0.69
0.03 0.03 0.04 0.04 0.03 0.02 0.02 0.01 0.01 0.01 0.01 0.01 0.01 0.01 0.03 0.05 0.07 0.08 0.11 0.15 0.17 0.15 0.14 0.16 0.18 0.34 0.60 0.82 0.97 1.23 1.32 1.22 1.25 1.13 0.89 0.69 0.64 0.64 0.68 0.74 0.79 0.85 0.79
0.03 0.03 0.03 0.03 0.02 0.02 0.02 0.02 0.01 0.01 0.01 0.01 0.01 0.00 0.00 0.01 0.02 0.03 0.05 0.10 0.18 0.21 0.19 0.18 0.18 0.21 0.40 0.65 0.90 1.12 1.54 1.46 1.36 1.42 1.37 1.06 0.80 0.70 0.71 0.75 0.79 0.86 0.90
0.02 0.03 0.03 0.02 0.02 0.02 0.02 0.02 0.02 0.01 0.01 0.01 0.01 0.01 0.00 0.01 0.01 0.02 0.03 0.05 0.09 0.17 0.23 0.23 0.22 0.19 0.25 0.44 0.70 0.98 1.45 1.80 1.62 1.52 1.57 1.49 1.17 0.90 0.79 0.79 0.84 0.89 0.95
0.02 0.02 0.03 0.02 0.02 0.02 0.02 0.02 0.02 0.01 0.01 0.01 0.01 0.01 0.00 0.00 0.00 0.01 0.02 0.04 0.05 0.09 0.17 0.24 0.26 0.20 0.17 0.23 0.42 0.77 1.16 1.61 1.87 1.76 1.69 1.71 1.58 1.28 1.03 0.92 0.91 0.99 1.02
0.02 0.02 0.02 0.02 0.01 0.01 0.02 0.01 0.01 0.01 0.01 0.02 0.02 0.01 0.00 0.00 0.00 0.00 0.00 0.01 0.03 0.05 0.09 0.19 0.27 0.26 0.21 0.19 0.21 0.36 0.72 1.23 1.72 1.96 1.98 1.92 1.88 1.68 1.39 1.18 1.06 1.11 1.18
0.03 0.02 0.01 0.01 0.01 0.01 0.02 0.01 0.02 0.03 0.03 0.03 0.07 0.10 0.05 0.01 0.00 0.00 0.00 0.00 0.01 0.02 0.06 0.11 0.21 0.27 0.27 0.21 0.15 0.18 0.32 0.70 1.26 1.77 2.06 2.15 2.12 2.06 1.79 1.50 1.29 1.25 1.34
0.04 0.03 0.01 0.01 0.01 0.01 0.02 0.02 0.03 0.05 0.07 0.05 0.08 0.23 0.30 0.16 0.05 0.00 0.00 0.00 0.01 0.01 0.03 0.07 0.14 0.22 0.29 0.29 0.22 0.18 0.20 0.37 0.78 1.35 1.84 2.16 2.28 2.37 2.25 1.87 1.57 1.41 1.43
0.03 0.03 0.02 0.02 0.02 0.01 0.02 0.03 0.04 0.06 0.12 0.12 0.09 0.13 0.23 0.28 0.29 0.13 0.01 0.01 0.01 0.02 0.02 0.03 0.07 0.14 0.23 0.30 0.32 0.30 0.27 0.28 0.50 0.87 1.41 1.97 2.34 2.61 2.76 2.38 1.89 1.63 1.56
0.04 0.03 0.03 0.03 0.02 0.02 0.02 0.04 0.06 0.08 0.14 0.20 0.19 0.17 0.15 0.13 0.18 0.29 0.13 0.02 0.03 0.03 0.03 0.04 0.05 0.10 0.16 0.24 0.31 0.33 0.36 0.35 0.46 0.68 1.00 1.57 2.14 2.67 3.13 2.99 2.31 1.81 1.60
0.05 0.04 0.03 0.03 0.03 0.02 0.03 0.05 0.08 0.11 0.15 0.18 0.21 0.22 0.25 0.26 0.20 0.26 0.23 0.08 0.04 0.03 0.04 0.04 0.05 0.08 0.13 0.20 0.25 0.33 0.37 0.40 0.44 0.55 0.70 1.08 1.66 2.21 2.93 3.24 2.73 2.08 1.68
0.05 0.04 0.04 0.04 0.04 0.03 0.04 0.07 0.11 0.13 0.14 0.19 0.22 0.23 0.25 0.25 0.25 0.29 0.31 0.19 0.09 0.03 0.02 0.03 0.05 0.08 0.12 0.17 0.22 0.27 0.29 0.34 0.41 0.49 0.53 0.63 1.00 1.62 2.36 3.17 3.36 2.65 2.03
0.07 0.05 0.05 0.05 0.05 0.05 0.06 0.09 0.12 0.13 0.16 0.21 0.22 0.24 0.25 0.21 0.24 0.30 0.36 0.39 0.31 0.10 0.03 0.03 0.04 0.07 0.11 0.16 0.20 0.24 0.23 0.27 0.33 0.39 0.42 0.46 0.57 0.92 1.58 2.53 3.48 3.53 2.78
0.11 0.07 0.05 0.05 0.06 0.07 0.09 0.11 0.13 0.16 0.20 0.23 0.25 0.27 0.31 0.28 0.27 0.28 0.31 0.42 0.59 0.41 0.11 0.02 0.04 0.07 0.10 0.16 0.20 0.21 0.22 0.23 0.26 0.32 0.38 0.40 0.45 0.59 0.91 1.52 2.49 3.48 3.65
0.12 0.10 0.07 0.07 0.07 0.10 0.12 0.13 0.15 0.18 0.23 0.27 0.31 0.34 0.36 0.37 0.37 0.34 0.34 0.37 0.46 0.55 0.32 0.05 0.04 0.08 0.13 0.17 0.22 0.20 0.22 0.25 0.24 0.26 0.30 0.34 0.40 0.51 0.72 1.03 1.61 2.51 3.37
0.10 0.10 0.10 0.10 0.12 0.14 0.16 0.18 0.20 0.25 0.28 0.29 0.34 0.40 0.44 0.47 0.51 0.49 0.47 0.43 0.41 0.46 0.45 0.12 0.04 0.06 0.15 0.20 0.21 0.21 0.23 0.22 0.19 0.21 0.24 0.29 0.36 0.46 0.62 0.84 1.17 1.76 2.59
0.11 0.10 0.13 0.17 0.19 0.21 0.20 0.21 0.24 0.34 0.46 0.46 0.44 0.45 0.47 0.51 0.56 0.59 0.60 0.54 0.44 0.38 0.43 0.28 0.08 0.06 0.12 0.22 0.28 0.26 0.25 0.23 0.20 0.20 0.24 0.29 0.34 0.44 0.56 0.73 0.96 1.30 1.91
0.11 0.12 0.16 0.26 0.30 0.33 0.33 0.30 0.33 0.39 0.54 0.67 0.69 0.69 0.64 0.59 0.61 0.61 0.64 0.62 0.53 0.44 0.40 0.38 0.21 0.11 0.13 0.22 0.34 0.37 0.33 0.28 0.24 0.23 0.25 0.27 0.30 0.37 0.46 0.59 0.78 1.02 1.31
0.09 0.14 0.17 0.25 0.34 0.46 0.56 0.58 0.59 0.57 0.60 0.68 0.76 0.81 0.82 0.83 0.79 0.74 0.73 0.68 0.64 0.60 0.53 0.51 0.39 0.25 0.20 0.25 0.41 0.50 0.44 0.36 0.32 0.28 0.29 0.28 0.30 0.34 0.37 0.39 0.47 0.64 0.90
0.09 0.11 0.14 0.17 0.25 0.52 0.92 0.94 0.84 0.76 0.64 0.57 0.56 0.60 0.70 0.86 0.95 1.00 1.04 0.95 0.90 0.94 0.86 0.78 0.65 0.50 0.39 0.42 0.53 0.58 0.64 0.54 0.45 0.39 0.36 0.30 0.28 0.25 0.25 0.28 0.35 0.46 0.65
0.16 0.12 0.10 0.12 0.19 0.46 0.89 0.95 0.73 0.55 0.41 0.39 0.41 0.40 0.44 0.60 0.72 0.85 1.00 1.03 1.09 1.24 1.28 1.17 0.97 0.78 0.55 0.49 0.56 0.71 0.83 0.88 0.74 0.47 0.47 0.44 0.37 0.34 0.27 0.24 0.27 0.35 0.49
0.19 0.17 0.12 0.10 0.12 0.31 0.71 0.79 0.57 0.34 0.24 0.23 0.25 0.26 0.27 0.37 0.49 0.52 0.64 0.74 0.84 1.01 1.24 1.34 1.28 0.95 0.68 0.54 0.68 0.84 0.88 0.96 0.84 0.66 0.73 0.79 0.62 0.52 0.39 0.35 0.37 0.37 0.45
0.19 0.18 0.14 0.10 0.09 0.18 0.57 0.74 0.56 0.27 0.18 0.16 0.18 0.17 0.15 0.20 0.34 0.47 0.58 0.60 0.61 0.74 1.03 1.27 1.40 1.21 0.96 0.82 0.95 1.17 1.26 1.24 1.06 0.90 0.93 1.11 0.92 0.73 0.60 0.50 0.43 0.39 0.43
0.15 0.16 0.15 0.11 0.09 0.10 0.39 0.74 0.66 0.31 0.18 0.14 0.17 0.18 0.14 0.13 0.30 0.48 0.51 0.48 0.43 0.50 0.67 0.96 1.17 1.22 1.19 1.22 1.32 1.57 1.72 1.66 1.49 1.20 1.09 1.20 1.19 1.05 0.91 0.79 0.63 0.50 0.45
0.12 0.13 0.14 0.12 0.11 0.09 0.24 0.66 0.82 0.42 0.23 0.16 0.15 0.16 0.23 0.26 0.38 0.45 0.42 0.44 0.50 0.46 0.45 0.51 0.61 0.70 0.79 0.86 1.08 1.38 1.57 1.65 1.63 1.61 1.28 1.20 1.36 1.43 1.53 1.20 0.85 0.57 0.47

GEFSMA_prec_meanprecacc_162.txt.gz
Total_Precipitation_Accumulation
0.09 0.07 0.05 0.05 0.05 0.07 0.07 0.06 0.06 0.07 0.08 0.10 0.11 0.11 0.13 0.14 0.14 0.12 0.10 0.09 0.09 0.09 0.14 0.28 0.48 0.68 0.85 1.01 1.14 1.07 1.04 0.92 0.67 0.53 0.51 0.61 0.66 0.72 0.73 0.79 0.79 0.68 0.64
0.07 0.06 0.05 0.04 0.03 0.03 0.03 0.03 0.02 0.02 0.02 0.03 0.04 0.06 0.09 0.10 0.12 0.13 0.13 0.14 0.12 0.11 0.12 0.17 0.29 0.54 0.76 0.90 1.09 1.24 1.15 1.14 1.01 0.74 0.59 0.57 0.62 0.68 0.72 0.78 0.83 0.80 0.70
0.06 0.05 0.05 0.05 0.03 0.02 0.02 0.01 0.01 0.01 0.01 0.01 0.01 0.01 0.03 0.05 0.07 0.08 0.11 0.15 0.17 0.15 0.14 0.16 0.18 0.34 0.60 0.82 0.97 1.23 1.32 1.22 1.25 1.13 0.89 0.70 0.64 0.64 0.69 0.75 0.80 0.86 0.80
0.11 0.09 0.06 0.05 0.03 0.02 0.02 0.02 0.01 0.01 0.01 0.01 0.01 0.00 0.00 0.01 0.02 0.03 0.05 0.10 0.18 0.21 0.19 0.18 0.18 0.21 0.40 0.65 0.90 1.12 1.54 1.46 1.37 1.42 1.37 1.06 0.80 0.71 0.72 0.76 0.80 0.87 0.91
0.11 0.10 0.08 0.05 0.03 0.02 0.03 0.02 0.02 0.01 0.01 0.01 0.01 0.01 0.00 0.01 0.01 0.02 0.03 0.05 0.09 0.17 0.23 0.23 0.22 0.19 0.25 0.44 0.70 0.98 1.45 1.80 1.62 1.53 1.58 1.50 1.17 0.90 0.79 0.80 0.85 0.90 0.96
0.08 0.07 0.07 0.05 0.04 0.03 0.03 0.02 0.02 0.01 0.01 0.01 0.01 0.01 0.00 0.00 0.00 0.01 0.02 0.04 0.05 0.09 0.17 0.24 0.26 0.20 0.17 0.23 0.42 0.77 1.16 1.61 1.87 1.76 1.69 1.72 1.58 1.28 1.04 0.92 0.92 1.00 1.04
0.11 0.09 0.08 0.06 0.04 0.04 0.03 0.02 0.01 0.01 0.02 0.02 0.03 0.01 0.00 0.00 0.00 0.00 0.00 0.01 0.03 0.05 0.09 0.19 0.27 0.26 0.21 0.19 0.21 0.36 0.72 1.23 1.72 1.96 1.98 1.92 1.88 1.69 1.40 1.18 1.07 1.12 1.19
0.16 0.11 0.08 0.07 0.06 0.05 0.05 0.04 0.02 0.03 0.03 0.03 0.07 0.10 0.05 0.01 0.00 0.00 0.00 0.00 0.01 0.03 0.06 0.11 0.21 0.27 0.27 0.21 0.15 0.18 0.32 0.71 1.26 1.77 2.06 2.15 2.12 2.06 1.79 1.51 1.29 1.26 1.35
0.21 0.15 0.09 0.06 0.06 0.05 0.05 0.05 0.04 0.06 0.07 0.05 0.08 0.24 0.30 0.16 0.05 0.00 0.00 0.00 0.01 0.01 0.03 0.07 0.14 0.22 0.29 0.29 0.23 0.18 0.20 0.37 0.78 1.35 1.85 2.16 2.29 2.38 2.25 1.87 1.58 1.42 1.44
0.21 0.17 0.13 0.09 0.06 0.05 0.05 0.06 0.06 0.07 0.12 0.13 0.09 0.13 0.23 0.28 0.30 0.13 0.01 0.01 0.01 0.02 0.02 0.03 0.07 0.14 0.23 0.30 0.32 0.30 0.27 0.28 0.50 0.87 1.41 1.97 2.34 2.61 2.77 2.38 1.90 1.64 1.57
0.18 0.17 0.14 0.12 0.08 0.06 0.05 0.07 0.08 0.10 0.15 0.20 0.19 0.17 0.15 0.14 0.19 0.29 0.13 0.02 0.03 0.03 0.03 0.04 0.05 0.10 0.16 0.24 0.31 0.33 0.36 0.35 0.46 0.68 1.00 1.57 2.14 2.68 3.13 2.99 2.31 1.82 1.61
0.23 0.17 0.14 0.13 0.11 0.08 0.06 0.07 0.10 0.12 0.16 0.19 0.21 0.22 0.25 0.26 0.21 0.27 0.23 0.08 0.04 0.03 0.04 0.04 0.05 0.08 0.13 0.20 0.25 0.33 0.37 0.40 0.44 0.55 0.70 1.08 1.66 2.21 2.94 3.24 2.73 2.09 1.69
0.28 0.22 0.16 0.14 0.13 0.11 0.09 0.11 0.13 0.14 0.15 0.20 0.23 0.24 0.25 0.25 0.25 0.29 0.32 0.19 0.10 0.04 0.02 0.03 0.05 0.08 0.12 0.17 0.22 0.27 0.29 0.34 0.41 0.49 0.53 0.63 1.00 1.62 2.36 3.17 3.36 2.65 2.04
0.27 0.24 0.22 0.17 0.14 0.13 0.12 0.14 0.16 0.16 0.18 0.22 0.22 0.25 0.26 0.22 0.24 0.30 0.36 0.40 0.31 0.10 0.03 0.03 0.04 0.07 0.11 0.16 0.20 0.24 0.23 0.27 0.33 0.39 0.42 0.46 0.57 0.92 1.58 2.53 3.48 3.54 2.79
0.27 0.25 0.24 0.21 0.17 0.16 0.16 0.15 0.16 0.19 0.22 0.25 0.26 0.28 0.31 0.28 0.28 0.28 0.31 0.42 0.59 0.42 0.11 0.03 0.04 0.07 0.10 0.16 0.20 0.21 0.22 0.23 0.26 0.32 0.38 0.40 0.45 0.59 0.91 1.52 2.49 3.48 3.66
0.27 0.28 0.26 0.24 0.23 0.21 0.20 0.19 0.18 0.20 0.25 0.28 0.32 0.35 0.36 0.37 0.37 0.34 0.35 0.37 0.46 0.55 0.33 0.05 0.04 0.08 0.13 0.17 0.22 0.20 0.22 0.25 0.24 0.26 0.30 0.34 0.40 0.51 0.72 1.03 1.62 2.52 3.37
0.23 0.23 0.27 0.28 0.28 0.29 0.27 0.25 0.24 0.27 0.30 0.30 0.35 0.41 0.44 0.47 0.52 0.49 0.47 0.44 0.42 0.47 0.45 0.12 0.04 0.06 0.15 0.20 0.22 0.21 0.23 0.22 0.19 0.21 0.24 0.29 0.36 0.46 0.62 0.84 1.17 1.76 2.59
0.24 0.20 0.24 0.33 0.36 0.36 0.34 0.32 0.31 0.37 0.47 0.47 0.44 0.45 0.48 0.51 0.57 0.59 0.60 0.55 0.45 0.39 0.43 0.28 0.09 0.06 0.12 0.22 0.28 0.26 0.25 0.23 0.20 0.20 0.24 0.29 0.34 0.44 0.56 0.73 0.96 1.30 1.91
0.26 0.23 0.24 0.34 0.43 0.48 0.47 0.43 0.42 0.45 0.56 0.68 0.70 0.70 0.64 0.60 0.62 0.61 0.65 0.62 0.53 0.44 0.40 0.38 0.21 0.11 0.13 0.22 0.34 0.37 0.33 0.29 0.24 0.23 0.25 0.27 0.30 0.37 0.46 0.59 0.78 1.02 1.31
0.27 0.27 0.25 0.31 0.42 0.55 0.68 0.69 0.70 0.64 0.63 0.70 0.76 0.82 0.83 0.84 0.80 0.75 0.73 0.69 0.64 0.60 0.53 0.51 0.39 0.25 0.21 0.25 0.42 0.50 0.44 0.36 0.32 0.28 0.29 0.28 0.30 0.34 0.37 0.40 0.47 0.64 0.90
0.29 0.27 0.25 0.24 0.32 0.60 1.00 1.02 0.93 0.84 0.69 0.59 0.57 0.61 0.71 0.87 0.96 1.01 1.05 0.96 0.91 0.95 0.87 0.79 0.66 0.50 0.39 0.42 0.53 0.59 0.65 0.55 0.45 0.39 0.37 0.30 0.28 0.25 0.25 0.28 0.36 0.46 0.65
0.38 0.32 0.24 0.20 0.25 0.52 0.97 1.04 0.81 0.61 0.46 0.42 0.43 0.41 0.45 0.62 0.74 0.86 1.01 1.04 1.10 1.25 1.29 1.18 0.97 0.79 0.56 0.50 0.56 0.71 0.84 0.89 0.74 0.47 0.47 0.44 0.38 0.34 0.27 0.24 0.27 0.35 0.49
0.39 0.39 0.29 0.20 0.17 0.35 0.76 0.87 0.65 0.41 0.29 0.26 0.27 0.27 0.28 0.38 0.50 0.53 0.65 0.75 0.85 1.02 1.25 1.34 1.29 0.95 0.69 0.54 0.68 0.84 0.89 0.96 0.85 0.66 0.73 0.79 0.62 0.52 0.39 0.35 0.37 0.37 0.45
0.34 0.36 0.33 0.26 0.19 0.23 0.60 0.80 0.63 0.35 0.24 0.20 0.21 0.19 0.16 0.21 0.34 0.48 0.58 0.61 0.61 0.74 1.03 1.27 1.40 1.21 0.96 0.83 0.95 1.17 1.26 1.24 1.06 0.91 0.94 1.11 0.92 0.73 0.60 0.50 0.43 0.39 0.43
0.26 0.29 0.29 0.26 0.21 0.18 0.44 0.78 0.72 0.38 0.25 0.19 0.19 0.20 0.15 0.13 0.30 0.49 0.51 0.48 0.44 0.51 0.67 0.97 1.18 1.22 1.19 1.23 1.32 1.57 1.72 1.66 1.49 1.20 1.09 1.20 1.19 1.05 0.91 0.79 0.63 0.50 0.45
0.22 0.23 0.25 0.23 0.20 0.17 0.30 0.69 0.87 0.48 0.29 0.21 0.18 0.18 0.24 0.27 0.38 0.46 0.42 0.44 0.51 0.47 0.45 0.52 0.62 0.72 0.80 0.87 1.09 1.39 1.57 1.65 1.63 1.61 1.28 1.20 1.36 1.43 1.53 1.20 0.85 0.57 0.47

GEFSMA_prec_meanprecacc_168.txt.gz
Total_Precipitation_Accumulation
0.25 0.17 0.12 0.09 0.07 0.08 0.08 0.07 0.06 0.07 0.08 0.10 0.11 0.11 0.13 0.14 0.14 0.12 0.10 0.09 0.09 0.10 0.15 0.29 0.48 0.69 0.86 1.02 1.14 1.07 1.04 0.92 0.67 0.53 0.52 0.61 0.67 0.73 0.74 0.80 0.80 0.69 0.65
0.26 0.21 0.15 0.10 0.06 0.04 0.04 0.03 0.02 0.02 0.02 0.03 0.04 0.06 0.09 0.10 0.12 0.13 0.13 0.14 0.13 0.11 0.13 0.18 0.29 0.55 0.76 0.91 1.09 1.24 1.15 1.14 1.01 0.75 0.59 0.58 0.62 0.68 0.72 0.79 0.83 0.80 0.71
0.23 0.21 0.18 0.13 0.08 0.05 0.04 0.03 0.02 0.02 0.01 0.01 0.01 0.02 0.03 0.05 0.07 0.09 0.11 0.15 0.17 0.16 0.14 0.16 0.18 0.34 0.60 0.82 0.97 1.23 1.32 1.22 1.25 1.14 0.89 0.70 0.65 0.65 0.70 0.75 0.80 0.86 0.81
0.29 0.26 0.23 0.19 0.12 0.07 0.06 0.05 0.04 0.04 0.03 0.02 0.01 0.01 0.01 0.01 0.02 0.03 0.06 0.10 0.18 0.22 0.20 0.18 0.18 0.22 0.41 0.65 0.90 1.13 1.54 1.46 1.37 1.43 1.38 1.06 0.80 0.71 0.72 0.76 0.81 0.88 0.92
0.36 0.30 0.26 0.22 0.17 0.13 0.11 0.10 0.09 0.07 0.05 0.04 0.03 0.02 0.01 0.01 0.01 0.02 0.03 0.05 0.09 0.17 0.23 0.23 0.23 0.19 0.25 0.45 0.71 0.98 1.45 1.80 1.63 1.53 1.58 1.50 1.17 0.91 0.80 0.81 0.86 0.91 0.97
0.36 0.32 0.28 0.22 0.17 0.12 0.08 0.07 0.06 0.04 0.03 0.03 0.03 0.02 0.01 0.00 0.00 0.01 0.02 0.04 0.05 0.09 0.17 0.24 0.26 0.20 0.18 0.23 0.42 0.78 1.16 1.61 1.87 1.76 1.70 1.72 1.59 1.29 1.05 0.93 0.92 1.01 1.04
0.41 0.37 0.33 0.27 0.20 0.12 0.07 0.05 0.04 0.04 0.04 0.03 0.04 0.02 0.01 0.00 0.00 0.00 0.00 0.01 0.03 0.05 0.09 0.19 0.27 0.26 0.21 0.19 0.21 0.36 0.72 1.23 1.72 1.96 1.98 1.92 1.89 1.69 1.40 1.19 1.08 1.13 1.21
0.50 0.43 0.35 0.31 0.25 0.18 0.11 0.06 0.05 0.06 0.06 0.06 0.08 0.11 0.05 0.01 0.00 0.00 0.00 0.00 0.01 0.03 0.06 0.11 0.21 0.27 0.27 0.21 0.15 0.18 0.33 0.71 1.26 1.77 2.06 2.15 2.13 2.07 1.80 1.51 1.30 1.27 1.36
0.53 0.52 0.43 0.34 0.30 0.25 0.17 0.09 0.07 0.08 0.10 0.07 0.09 0.24 0.31 0.16 0.05 0.00 0.00 0.00 0.01 0.01 0.03 0.07 0.14 0.22 0.29 0.29 0.23 0.18 0.20 0.37 0.78 1.35 1.85 2.16 2.29 2.38 2.26 1.88 1.59 1.43 1.45
0.52 0.50 0.48 0.42 0.34 0.29 0.23 0.15 0.09 0.09 0.14 0.14 0.11 0.14 0.23 0.28 0.30 0.13 0.01 0.01 0.02 0.02 0.02 0.03 0.07 0.14 0.23 0.30 0.32 0.30 0.27 0.28 0.50 0.87 1.41 1.97 2.35 2.61 2.77 2.39 1.91 1.65 1.58
0.48 0.49 0.47 0.44 0.38 0.32 0.28 0.24 0.18 0.14 0.16 0.21 0.20 0.18 0.15 0.14 0.19 0.29 0.13 0.03 0.03 0.03 0.03 0.04 0.05 0.10 0.16 0.24 0.31 0.33 0.36 0.35 0.46 0.68 1.00 1.57 2.14 2.68 3.14 2.99 2.32 1.82 1.62
0.53 0.47 0.45 0.42 0.38 0.33 0.26 0.24 0.24 0.23 0.21 0.21 0.22 0.23 0.26 0.26 0.21 0.27 0.23 0.08 0.04 0.03 0.04 0.04 0.05 0.08 0.13 0.20 0.25 0.33 0.37 0.40 0.44 0.55 0.70 1.08 1.66 2.21 2.94 3.24 2.74 2.09 1.70
0.61 0.52 0.44 0.41 0.36 0.32 0.29 0.26 0.26 0.25 0.24 0.26 0.26 0.25 0.25 0.26 0.25 0.30 0.32 0.19 0.10 0.04 0.02 0.03 0.05 0.08 0.12 0.17 0.22 0.27 0.29 0.34 0.41 0.49 0.53 0.63 1.00 1.62 2.36 3.17 3.36 2.66 2.04
0.58 0.55 0.49 0.42 0.36 0.32 0.30 0.29 0.28 0.25 0.26 0.29 0.27 0.28 0.27 0.22 0.25 0.31 0.36 0.40 0.31 0.10 0.03 0.03 0.04 0.07 0.11 0.16 0.20 0.25 0.23 0.27 0.33 0.39 0.42 0.46 0.57 0.92 1.58 2.53 3.48 3.54 2.79
0.53 0.56 0.52 0.47 0.41 0.36 0.33 0.29 0.27 0.27 0.29 0.29 0.30 0.31 0.34 0.30 0.29 0.29 0.31 0.43 0.59 0.42 0.12 0.03 0.05 0.07 0.10 0.16 0.20 0.21 0.22 0.23 0.27 0.32 0.38 0.40 0.45 0.59 0.91 1.52 2.49 3.49 3.66
0.50 0.56 0.57 0.49 0.47 0.44 0.38 0.33 0.30 0.29 0.32 0.34 0.36 0.37 0.39 0.39 0.38 0.35 0.35 0.38 0.47 0.55 0.33 0.06 0.05 0.08 0.13 0.17 0.22 0.20 0.22 0.25 0.24 0.26 0.30 0.35 0.40 0.52 0.72 1.03 1.62 2.52 3.38
0.44 0.48 0.55 0.55 0.52 0.52 0.47 0.41 0.38 0.38 0.39 0.38 0.40 0.45 0.47 0.49 0.53 0.50 0.47 0.44 0.42 0.47 0.46 0.13 0.04 0.06 0.15 0.21 0.22 0.21 0.24 0.22 0.19 0.21 0.24 0.30 0.37 0.46 0.62 0.84 1.17 1.76 2.59
0.42 0.43 0.48 0.58 0.60 0.58 0.54 0.49 0.46 0.50 0.58 0.56 0.51 0.51 0.52 0.54 0.59 0.60 0.61 0.55 0.45 0.39 0.44 0.29 0.09 0.07 0.12 0.22 0.28 0.27 0.25 0.23 0.20 0.21 0.25 0.29 0.35 0.44 0.56 0.74 0.96 1.30 1.91
0.41 0.41 0.46 0.55 0.64 0.68 0.66 0.58 0.55 0.57 0.67 0.77 0.78 0.77 0.70 0.64 0.64 0.63 0.66 0.63 0.54 0.45 0.41 0.38 0.22 0.12 0.13 0.22 0.34 0.37 0.33 0.29 0.25 0.24 0.25 0.28 0.31 0.37 0.47 0.59 0.78 1.02 1.31
0.39 0.41 0.43 0.49 0.59 0.71 0.83 0.84 0.82 0.75 0.75 0.80 0.85 0.89 0.89 0.89 0.83 0.77 0.75 0.70 0.66 0.62 0.54 0.52 0.40 0.26 0.21 0.25 0.42 0.50 0.44 0.36 0.32 0.29 0.29 0.28 0.31 0.34 0.37 0.40 0.47 0.64 0.90
0.39 0.39 0.40 0.41 0.48 0.74 1.13 1.15 1.04 0.95 0.80 0.71 0.67 0.69 0.79 0.95 1.01 1.05 1.08 0.98 0.93 0.97 0.89 0.81 0.67 0.51 0.40 0.43 0.54 0.59 0.65 0.55 0.45 0.39 0.37 0.30 0.28 0.25 0.25 0.28 0.36 0.46 0.65
0.49 0.42 0.38 0.36 0.42 0.66 1.09 1.15 0.90 0.69 0.56 0.53 0.53 0.50 0.53 0.70 0.82 0.92 1.05 1.07 1.12 1.26 1.31 1.19 0.98 0.79 0.56 0.50 0.57 0.72 0.84 0.89 0.74 0.47 0.47 0.44 0.38 0.34 0.27 0.24 0.27 0.35 0.50
0.51 0.49 0.39 0.32 0.30 0.46 0.87 0.96 0.75 0.50 0.38 0.36 0.36 0.37 0.39 0.47 0.59 0.61 0.71 0.79 0.87 1.04 1.26 1.35 1.29 0.96 0.69 0.55 0.69 0.85 0.89 0.96 0.85 0.66 0.73 0.79 0.62 0.52 0.39 0.35 0.37 0.37 0.45
0.49 0.48 0.43 0.35 0.30 0.33 0.70 0.88 0.71 0.43 0.32 0.29 0.29 0.28 0.26 0.32 0.44 0.56 0.64 0.64 0.63 0.75 1.04 1.27 1.40 1.21 0.96 0.83 0.96 1.17 1.27 1.25 1.06 0.91 0.94 1.11 0.92 0.73 0.60 0.50 0.44 0.39 0.43
0.45 0.44 0.41 0.35 0.30 0.28 0.54 0.87 0.81 0.46 0.32 0.27 0.27 0.28 0.24 0.21 0.39 0.56 0.57 0.52 0.46 0.52 0.68 0.97 1.19 1.23 1.20 1.24 1.33 1.58 1.72 1.67 1.50 1.20 1.09 1.20 1.19 1.05 0.91 0.79 0.63 0.50 0.45
0.43 0.40 0.40 0.36 0.30 0.25 0.39 0.79 0.97 0.56 0.36 0.28 0.25 0.26 0.33 0.36 0.47 0.53 0.48 0.49 0.53 0.48 0.46 0.52 0.63 0.72 0.81 0.88 1.11 1.39 1.58 1.66 1.64 1.61 1.28 1.20 1.36 1.43 1.53 1.20 0.85 0.57 0.47

GEFSMA_prec_meanprecacc_174.txt.gz
Total_Precipitation_Accumulation
0.39 0.33 0.29 0.26 0.24 0.22 0.18 0.13 0.10 0.10 0.10 0.11 0.11 0.11 0.13 0.14 0.14 0.12 0.10 0.10 0.10 0.11 0.17 0.31 0.50 0.70 0.87 1.02 1.14 1.07 1.05 0.92 0.68 0.53 0.52 0.61 0.67 0.73 0.75 0.80 0.81 0.69 0.66
0.39 0.37 0.32 0.28 0.25 0.20 0.16 0.12 0.09 0.06 0.04 0.04 0.05 0.06 0.09 0.10 0.12 0.13 0.14 0.15 0.13 0.12 0.15 0.20 0.31 0.56 0.78 0.91 1.09 1.25 1.15 1.14 1.02 0.75 0.60 0.58 0.63 0.69 0.73 0.79 0.84 0.81 0.71
0.37 0.37 0.36 0.32 0.27 0.24 0.19 0.15 0.12 0.08 0.05 0.03 0.02 0.02 0.03 0.05 0.07 0.09 0.11 0.16 0.18 0.16 0.16 0.18 0.20 0.36 0.62 0.83 0.98 1.24 1.32 1.23 1.25 1.14 0.90 0.70 0.65 0.65 0.70 0.76 0.81 0.87 0.82
0.44 0.42 0.39 0.36 0.30 0.27 0.25 0.21 0.17 0.12 0.08 0.06 0.04 0.03 0.01 0.02 0.03 0.04 0.06 0.10 0.18 0.22 0.21 0.20 0.20 0.23 0.42 0.67 0.91 1.13 1.55 1.46 1.37 1.43 1.38 1.07 0.81 0.72 0.73 0.77 0.82 0.89 0.93
0.48 0.45 0.43 0.40 0.38 0.35 0.32 0.29 0.24 0.18 0.13 0.09 0.06 0.04 0.02 0.02 0.02 0.03 0.04 0.05 0.09 0.17 0.23 0.24 0.23 0.20 0.27 0.46 0.72 0.99 1.46 1.80 1.63 1.53 1.58 1.51 1.18 0.91 0.81 0.82 0.87 0.92 0.98
0.49 0.44 0.42 0.39 0.37 0.36 0.33 0.29 0.24 0.17 0.13 0.10 0.07 0.04 0.02 0.01 0.01 0.01 0.02 0.04 0.06 0.09 0.18 0.25 0.26 0.21 0.18 0.24 0.44 0.79 1.16 1.62 1.87 1.77 1.70 1.73 1.59 1.30 1.06 0.94 0.94 1.02 1.06
0.56 0.52 0.47 0.43 0.38 0.34 0.31 0.27 0.24 0.21 0.16 0.12 0.10 0.07 0.04 0.02 0.01 0.00 0.01 0.02 0.03 0.05 0.09 0.19 0.28 0.26 0.21 0.19 0.22 0.37 0.73 1.24 1.73 1.97 1.99 1.93 1.90 1.70 1.41 1.20 1.09 1.14 1.22
0.65 0.59 0.51 0.48 0.43 0.38 0.33 0.29 0.25 0.24 0.21 0.17 0.16 0.18 0.11 0.05 0.02 0.01 0.01 0.01 0.01 0.03 0.06 0.11 0.22 0.28 0.27 0.21 0.15 0.18 0.33 0.72 1.27 1.78 2.07 2.16 2.14 2.08 1.81 1.53 1.31 1.28 1.37
0.69 0.70 0.61 0.51 0.46 0.42 0.38 0.32 0.26 0.24 0.25 0.20 0.18 0.31 0.36 0.20 0.07 0.02 0.01 0.01 0.01 0.01 0.03 0.07 0.14 0.23 0.29 0.29 0.23 0.18 0.20 0.38 0.80 1.37 1.87 2.17 2.30 2.39 2.27 1.89 1.60 1.44 1.46
0.68 0.67 0.68 0.62 0.52 0.45 0.41 0.37 0.30 0.26 0.28 0.27 0.21 0.22 0.28 0.31 0.31 0.15 0.02 0.01 0.02 0.02 0.02 0.03 0.08 0.14 0.23 0.30 0.32 0.30 0.28 0.29 0.50 0.88 1.42 1.98 2.36 2.62 2.78 2.40 1.92 1.66 1.59
0.67 0.68 0.66 0.66 0.60 0.51 0.44 0.41 0.38 0.33 0.34 0.35 0.31 0.25 0.21 0.18 0.21 0.31 0.14 0.03 0.03 0.03 0.03 0.04 0.06 0.10 0.16 0.24 0.31 0.33 0.36 0.35 0.46 0.68 1.00 1.58 2.14 2.68 3.14 3.00 2.32 1.83 1.63
0.72 0.67 0.66 0.62 0.60 0.54 0.46 0.41 0.40 0.39 0.39 0.38 0.35 0.32 0.33 0.32 0.24 0.29 0.25 0.09 0.04 0.03 0.04 0.04 0.05 0.08 0.13 0.20 0.26 0.34 0.37 0.40 0.44 0.55 0.70 1.09 1.66 2.21 2.94 3.24 2.74 2.10 1.70
0.80 0.71 0.65 0.60 0.55 0.52 0.50 0.46 0.42 0.39 0.38 0.41 0.40 0.36 0.33 0.31 0.29 0.32 0.34 0.21 0.11 0.04 0.03 0.03 0.05 0.08 0.12 0.17 0.22 0.27 0.30 0.34 0.41 0.50 0.53 0.63 1.00 1.62 2.37 3.18 3.36 2.66 2.05
0.75 0.74 0.71 0.63 0.53 0.48 0.48 0.50 0.46 0.40 0.39 0.41 0.40 0.38 0.35 0.29 0.30 0.34 0.40 0.43 0.34 0.12 0.04 0.03 0.04 0.07 0.11 0.16 0.20 0.25 0.23 0.28 0.33 0.40 0.43 0.46 0.57 0.92 1.58 2.53 3.49 3.54 2.79
0.72 0.77 0.76 0.70 0.61 0.53 0.49 0.47 0.46 0.43 0.43 0.42 0.42 0.41 0.42 0.37 0.35 0.35 0.36 0.47 0.63 0.45 0.13 0.04 0.05 0.07 0.11 0.16 0.21 0.21 0.22 0.23 0.27 0.32 0.38 0.40 0.45 0.59 0.91 1.52 2.49 3.49 3.66
0.67 0.77 0.80 0.71 0.68 0.62 0.55 0.50 0.46 0.44 0.46 0.45 0.46 0.47 0.47 0.47 0.46 0.42 0.41 0.43 0.51 0.59 0.36 0.07 0.06 0.09 0.14 0.17 0.23 0.20 0.22 0.25 0.25 0.26 0.30 0.35 0.40 0.52 0.72 1.03 1.62 2.52 3.38
0.59 0.65 0.75 0.76 0.72 0.69 0.64 0.60 0.56 0.54 0.52 0.49 0.51 0.55 0.55 0.57 0.62 0.58 0.54 0.49 0.47 0.52 0.50 0.15 0.06 0.08 0.16 0.21 0.22 0.22 0.24 0.22 0.19 0.21 0.25 0.30 0.37 0.46 0.62 0.84 1.18 1.77 2.60
0.57 0.58 0.66 0.77 0.79 0.75 0.69 0.65 0.64 0.68 0.73 0.69 0.62 0.61 0.61 0.62 0.67 0.68 0.67 0.61 0.50 0.43 0.47 0.32 0.12 0.09 0.14 0.23 0.29 0.28 0.26 0.23 0.20 0.21 0.25 0.30 0.35 0.44 0.56 0.74 0.97 1.30 1.92
0.61 0.57 0.62 0.74 0.84 0.85 0.80 0.72 0.70 0.73 0.83 0.91 0.89 0.87 0.78 0.72 0.73 0.71 0.73 0.69 0.59 0.48 0.45 0.42 0.26 0.15 0.16 0.24 0.36 0.38 0.33 0.29 0.25 0.24 0.26 0.28 0.31 0.37 0.47 0.60 0.78 1.02 1.31
0.63 0.59 0.58 0.64 0.76 0.89 0.97 0.96 0.95 0.88 0.88 0.92 0.97 0.99 0.97 0.97 0.91 0.84 0.82 0.77 0.72 0.68 0.60 0.57 0.45 0.29 0.24 0.28 0.44 0.51 0.45 0.36 0.32 0.29 0.29 0.29 0.31 0.34 0.37 0.40 0.47 0.64 0.90
0.67 0.60 0.55 0.55 0.62 0.90 1.28 1.27 1.15 1.06 0.92 0.81 0.76 0.79 0.87 1.02 1.07 1.11 1.14 1.05 1.01 1.04 0.96 0.86 0.72 0.55 0.43 0.44 0.54 0.59 0.66 0.56 0.46 0.39 0.37 0.30 0.28 0.26 0.25 0.28 0.36 0.47 0.65
0.77 0.68 0.56 0.52 0.56 0.79 1.22 1.27 1.01 0.80 0.67 0.64 0.62 0.57 0.60 0.78 0.88 0.99 1.12 1.14 1.19 1.33 1.37 1.25 1.02 0.82 0.58 0.51 0.57 0.72 0.85 0.89 0.74 0.47 0.48 0.44 0.38 0.34 0.28 0.24 0.28 0.35 0.50
0.74 0.73 0.62 0.50 0.45 0.57 0.96 1.05 0.85 0.59 0.47 0.45 0.46 0.45 0.45 0.53 0.65 0.67 0.78 0.87 0.96 1.12 1.33 1.40 1.33 0.98 0.71 0.56 0.69 0.85 0.89 0.97 0.85 0.67 0.73 0.79 0.63 0.52 0.39 0.35 0.37 0.37 0.45
0.74 0.68 0.61 0.54 0.47 0.45 0.79 0.96 0.79 0.52 0.41 0.37 0.38 0.36 0.34 0.38 0.51 0.64 0.73 0.73 0.72 0.83 1.10 1.32 1.44 1.24 0.98 0.84 0.96 1.18 1.28 1.26 1.07 0.91 0.94 1.12 0.92 0.74 0.60 0.50 0.44 0.39 0.43
0.70 0.66 0.57 0.49 0.46 0.41 0.62 0.94 0.89 0.55 0.43 0.36 0.35 0.35 0.31 0.29 0.47 0.66 0.66 0.61 0.54 0.59 0.74 1.02 1.22 1.26 1.23 1.26 1.35 1.59 1.74 1.68 1.51 1.22 1.10 1.21 1.19 1.06 0.91 0.79 0.63 0.50 0.45
0.64 0.62 0.57 0.47 0.42 0.37 0.48 0.85 1.05 0.66 0.47 0.38 0.34 0.33 0.40 0.43 0.55 0.62 0.57 0.58 0.62 0.55 0.52 0.58 0.67 0.76 0.84 0.91 1.13 1.42 1.60 1.68 1.66 1.64 1.29 1.21 1.36 1.43 1.53 1.20 0.85 0.57 0.47

GEFSMA_prec_meanprecacc_180.txt.gz
Total_Precipitation_Accumulation
0.55 0.50 0.42 0.35 0.33 0.34 0.33 0.28 0.23 0.18 0.16 0.16 0.15 0.14 0.15 0.14 0.14 0.13 0.11 0.10 0.11 0.13 0.20 0.33 0.53 0.73 0.89 1.05 1.16 1.08 1.05 0.93 0.68 0.54 0.53 0.62 0.68 0.74 0.75 0.81 0.81 0.70 0.67
0.52 0.51 0.48 0.43 0.36 0.31 0.29 0.26 0.22 0.17 0.13 0.11 0.10 0.10 0.11 0.11 0.12 0.14 0.14 0.15 0.14 0.13 0.17 0.22 0.34 0.59 0.81 0.96 1.13 1.27 1.16 1.15 1.02 0.76 0.60 0.58 0.63 0.69 0.73 0.80 0.84 0.82 0.72
0.48 0.49 0.50 0.46 0.41 0.36 0.31 0.27 0.24 0.21 0.17 0.13 0.10 0.08 0.07 0.07 0.08 0.09 0.12 0.16 0.18 0.17 0.17 0.20 0.23 0.39 0.65 0.87 1.02 1.27 1.34 1.24 1.26 1.15 0.90 0.71 0.66 0.66 0.71 0.76 0.82 0.88 0.83
0.52 0.52 0.52 0.50 0.44 0.39 0.36 0.32 0.27 0.23 0.19 0.16 0.13 0.10 0.08 0.06 0.05 0.05 0.06 0.11 0.19 0.22 0.21 0.21 0.21 0.26 0.45 0.70 0.95 1.17 1.57 1.48 1.39 1.44 1.39 1.08 0.82 0.73 0.73 0.78 0.83 0.90 0.93
0.54 0.53 0.53 0.52 0.52 0.49 0.45 0.41 0.34 0.28 0.22 0.19 0.15 0.13 0.09 0.07 0.06 0.06 0.05 0.06 0.10 0.18 0.24 0.24 0.24 0.22 0.29 0.49 0.75 1.02 1.48 1.82 1.65 1.55 1.60 1.52 1.19 0.92 0.82 0.83 0.89 0.93 0.99
0.56 0.51 0.51 0.51 0.51 0.51 0.48 0.43 0.37 0.29 0.24 0.21 0.19 0.16 0.12 0.08 0.06 0.05 0.05 0.05 0.06 0.10 0.18 0.25 0.26 0.21 0.19 0.25 0.45 0.81 1.18 1.63 1.89 1.78 1.72 1.74 1.60 1.31 1.07 0.96 0.95 1.03 1.07
0.63 0.58 0.53 0.51 0.50 0.47 0.44 0.40 0.38 0.34 0.29 0.25 0.27 0.25 0.21 0.14 0.09 0.06 0.05 0.04 0.04 0.06 0.10 0.20 0.28 0.26 0.21 0.20 0.23 0.38 0.75 1.27 1.75 1.98 2.00 1.94 1.91 1.71 1.43 1.21 1.10 1.15 1.23
0.71 0.65 0.57 0.55 0.53 0.50 0.46 0.42 0.39 0.39 0.34 0.30 0.31 0.33 0.27 0.23 0.16 0.09 0.06 0.04 0.03 0.04 0.07 0.12 0.22 0.28 0.28 0.22 0.15 0.19 0.34 0.74 1.30 1.81 2.09 2.18 2.15 2.09 1.82 1.54 1.32 1.29 1.38
0.75 0.75 0.66 0.58 0.56 0.55 0.51 0.45 0.40 0.39 0.39 0.33 0.30 0.44 0.48 0.31 0.16 0.09 0.06 0.04 0.04 0.03 0.04 0.08 0.15 0.23 0.29 0.29 0.23 0.19 0.21 0.38 0.81 1.40 1.90 2.20 2.32 2.40 2.28 1.90 1.61 1.45 1.47
0.73 0.73 0.73 0.69 0.61 0.57 0.52 0.48 0.43 0.40 0.43 0.43 0.37 0.34 0.39 0.39 0.38 0.21 0.08 0.05 0.05 0.05 0.05 0.05 0.08 0.15 0.23 0.31 0.32 0.30 0.28 0.29 0.51 0.88 1.43 2.00 2.39 2.65 2.81 2.42 1.94 1.68 1.61
0.73 0.74 0.72 0.73 0.70 0.63 0.55 0.52 0.50 0.48 0.48 0.50 0.46 0.38 0.32 0.28 0.29 0.38 0.21 0.09 0.08 0.07 0.06 0.06 0.07 0.11 0.16 0.24 0.31 0.33 0.37 0.35 0.46 0.69 1.01 1.58 2.16 2.70 3.17 3.03 2.37 1.87 1.66
0.77 0.72 0.71 0.69 0.69 0.66 0.57 0.52 0.52 0.52 0.52 0.50 0.47 0.44 0.44 0.42 0.33 0.37 0.32 0.15 0.10 0.09 0.08 0.07 0.07 0.10 0.14 0.21 0.26 0.34 0.38 0.40 0.45 0.56 0.71 1.09 1.67 2.22 2.96 3.26 2.76 2.11 1.72
0.84 0.76 0.71 0.67 0.64 0.62 0.60 0.58 0.57 0.53 0.51 0.54 0.53 0.48 0.44 0.41 0.39 0.42 0.43 0.29 0.18 0.11 0.08 0.08 0.08 0.10 0.14 0.18 0.23 0.28 0.30 0.35 0.41 0.50 0.53 0.64 1.00 1.63 2.37 3.18 3.37 2.66 2.06
0.78 0.78 0.78 0.71 0.62 0.57 0.57 0.60 0.60 0.56 0.54 0.56 0.53 0.51 0.48 0.40 0.41 0.46 0.51 0.53 0.44 0.20 0.11 0.08 0.07 0.10 0.13 0.17 0.22 0.27 0.25 0.29 0.34 0.40 0.43 0.46 0.57 0.92 1.58 2.54 3.49 3.54 2.80
0.78 0.83 0.83 0.81 0.72 0.64 0.58 0.57 0.58 0.58 0.59 0.58 0.57 0.55 0.56 0.49 0.46 0.46 0.48 0.57 0.72 0.53 0.20 0.10 0.10 0.11 0.14 0.18 0.23 0.23 0.23 0.24 0.28 0.33 0.38 0.41 0.45 0.59 0.91 1.53 2.49 3.49 3.66
0.74 0.85 0.88 0.82 0.81 0.75 0.67 0.62 0.58 0.56 0.61 0.62 0.61 0.62 0.61 0.61 0.58 0.53 0.51 0.52 0.60 0.67 0.42 0.12 0.11 0.13 0.17 0.20 0.25 0.22 0.23 0.27 0.26 0.28 0.30 0.35 0.40 0.52 0.72 1.03 1.62 2.52 3.38
0.68 0.75 0.86 0.86 0.84 0.82 0.77 0.73 0.68 0.66 0.66 0.64 0.66 0.70 0.69 0.69 0.74 0.68 0.62 0.56 0.53 0.57 0.55 0.19 0.09 0.11 0.19 0.24 0.25 0.24 0.26 0.25 0.22 0.23 0.26 0.30 0.37 0.46 0.62 0.84 1.18 1.77 2.60
0.67 0.69 0.79 0.91 0.91 0.87 0.82 0.78 0.76 0.81 0.87 0.82 0.75 0.74 0.73 0.74 0.77 0.77 0.75 0.67 0.55 0.47 0.51 0.36 0.15 0.12 0.17 0.26 0.32 0.30 0.28 0.26 0.22 0.23 0.26 0.30 0.35 0.44 0.56 0.74 0.97 1.30 1.92
0.71 0.68 0.74 0.89 0.97 0.97 0.92 0.83 0.81 0.85 0.95 1.03 1.01 0.98 0.88 0.82 0.82 0.79 0.80 0.75 0.63 0.53 0.49 0.46 0.28 0.18 0.19 0.28 0.40 0.41 0.36 0.31 0.26 0.25 0.26 0.28 0.31 0.37 0.47 0.60 0.79 1.02 1.32
0.74 0.72 0.71 0.77 0.89 1.00 1.08 1.07 1.06 1.00 1.00 1.04 1.09 1.10 1.06 1.05 0.97 0.90 0.87 0.82 0.77 0.73 0.64 0.61 0.48 0.33 0.28 0.32 0.48 0.55 0.47 0.38 0.33 0.29 0.30 0.29 0.31 0.35 0.37 0.40 0.47 0.65 0.91
0.77 0.73 0.70 0.69 0.75 1.02 1.38 1.37 1.26 1.17 1.03 0.94 0.89 0.91 0.98 1.10 1.14 1.17 1.18 1.09 1.05 1.10 1.01 0.91 0.75 0.59 0.47 0.49 0.58 0.62 0.68 0.58 0.47 0.40 0.37 0.30 0.29 0.26 0.25 0.29 0.36 0.47 0.65
0.89 0.81 0.72 0.66 0.69 0.91 1.33 1.37 1.09 0.89 0.76 0.74 0.73 0.70 0.73 0.89 0.97 1.06 1.17 1.17 1.22 1.37 1.41 1.29 1.06 0.86 0.62 0.56 0.62 0.76 0.88 0.92 0.76 0.48 0.48 0.44 0.38 0.35 0.28 0.24 0.28 0.36 0.51
0.89 0.87 0.77 0.65 0.58 0.68 1.07 1.15 0.94 0.68 0.56 0.54 0.56 0.56 0.57 0.64 0.75 0.74 0.85 0.93 1.00 1.15 1.35 1.43 1.36 1.02 0.75 0.60 0.74 0.89 0.92 0.99 0.87 0.68 0.74 0.80 0.63 0.52 0.40 0.35 0.38 0.38 0.46
0.89 0.83 0.79 0.70 0.61 0.56 0.89 1.06 0.89 0.61 0.50 0.45 0.46 0.45 0.43 0.47 0.59 0.72 0.79 0.79 0.77 0.86 1.13 1.35 1.47 1.27 1.02 0.88 1.00 1.22 1.31 1.29 1.09 0.93 0.95 1.13 0.93 0.75 0.61 0.51 0.45 0.40 0.44
0.86 0.83 0.75 0.66 0.61 0.55 0.75 1.05 1.00 0.64 0.51 0.44 0.43 0.43 0.39 0.36 0.55 0.74 0.75 0.68 0.60 0.63 0.78 1.07 1.27 1.31 1.29 1.33 1.41 1.64 1.79 1.72 1.54 1.24 1.11 1.23 1.21 1.08 0.93 0.81 0.64 0.51 0.45
0.81 0.81 0.77 0.66 0.58 0.52 0.63 0.99 1.15 0.73 0.54 0.45 0.41 0.40 0.46 0.49 0.62 0.69 0.65 0.66 0.68 0.59 0.57 0.64 0.74 0.83 0.91 0.99 1.22 1.47 1.65 1.73 1.70 1.67 1.32 1.24 1.39 1.45 1.55 1.21 0.86 0.57 0.47

GEFSMA_prec_meanprecacc_186.txt.gz
Total_Precipitation_Accumulation
0.61 0.58 0.53 0.48 0.46 0.45 0.42 0.36 0.31 0.27 0.24 0.24 0.23 0.20 0.20 0.19 0.19 0.16 0.13 0.12 0.12 0.15 0.23 0.37 0.56 0.75 0.91 1.06 1.18 1.09 1.06 0.94 0.69 0.55 0.53 0.63 0.69 0.75 0.76 0.82 0.82 0.71 0.67
0.56 0.57 0.56 0.54 0.49 0.43 0.40 0.37 0.32 0.27 0.22 0.19 0.17 0.17 0.17 0.16 0.17 0.18 0.16 0.17 0.16 0.16 0.20 0.26 0.38 0.62 0.84 0.97 1.15 1.28 1.18 1.17 1.04 0.77 0.61 0.59 0.64 0.70 0.74 0.80 0.85 0.82 0.73
0.51 0.54 0.57 0.54 0.51 0.47 0.42 0.38 0.36 0.33 0.28 0.21 0.17 0.14 0.13 0.13 0.13 0.14 0.15 0.19 0.21 0.20 0.20 0.23 0.27 0.42 0.68 0.90 1.04 1.29 1.37 1.26 1.28 1.17 0.92 0.72 0.67 0.67 0.72 0.77 0.82 0.89 0.84
0.54 0.55 0.57 0.56 0.52 0.49 0.46 0.42 0.39 0.36 0.32 0.27 0.21 0.17 0.14 0.13 0.11 0.10 0.10 0.14 0.21 0.24 0.23 0.23 0.25 0.30 0.49 0.74 0.98 1.20 1.60 1.51 1.42 1.47 1.41 1.09 0.83 0.74 0.74 0.79 0.84 0.91 0.94
0.57 0.55 0.56 0.56 0.58 0.57 0.53 0.49 0.44 0.39 0.35 0.31 0.28 0.23 0.17 0.14 0.12 0.11 0.09 0.09 0.13 0.20 0.26 0.27 0.27 0.25 0.32 0.53 0.78 1.05 1.52 1.86 1.68 1.58 1.64 1.55 1.21 0.94 0.83 0.84 0.90 0.94 1.01
0.60 0.54 0.54 0.54 0.56 0.57 0.54 0.51 0.46 0.39 0.35 0.33 0.32 0.29 0.22 0.17 0.14 0.11 0.10 0.10 0.10 0.13 0.21 0.28 0.29 0.23 0.22 0.29 0.49 0.84 1.22 1.68 1.93 1.82 1.75 1.77 1.63 1.34 1.09 0.98 0.97 1.04 1.08
0.68 0.62 0.56 0.54 0.54 0.53 0.50 0.46 0.46 0.44 0.41 0.40 0.42 0.40 0.34 0.26 0.20 0.15 0.11 0.09 0.09 0.10 0.13 0.23 0.31 0.28 0.23 0.22 0.25 0.41 0.78 1.31 1.79 2.02 2.03 1.96 1.93 1.74 1.45 1.23 1.12 1.17 1.25
0.76 0.70 0.60 0.58 0.57 0.55 0.52 0.47 0.45 0.48 0.46 0.44 0.46 0.50 0.44 0.37 0.29 0.19 0.15 0.11 0.09 0.09 0.12 0.17 0.26 0.30 0.29 0.23 0.17 0.20 0.36 0.77 1.34 1.85 2.12 2.20 2.17 2.10 1.84 1.55 1.34 1.30 1.39
0.80 0.79 0.70 0.61 0.60 0.59 0.57 0.51 0.45 0.45 0.47 0.44 0.43 0.59 0.62 0.42 0.26 0.18 0.15 0.12 0.10 0.10 0.10 0.13 0.20 0.26 0.32 0.31 0.24 0.20 0.22 0.40 0.83 1.43 1.93 2.23 2.34 2.42 2.30 1.91 1.62 1.46 1.48
0.79 0.77 0.77 0.71 0.65 0.62 0.57 0.54 0.50 0.46 0.49 0.51 0.47 0.47 0.51 0.49 0.46 0.29 0.16 0.13 0.12 0.11 0.10 0.11 0.14 0.20 0.26 0.33 0.34 0.32 0.29 0.30 0.52 0.91 1.46 2.04 2.42 2.69 2.84 2.45 1.96 1.70 1.62
0.79 0.79 0.76 0.76 0.73 0.67 0.61 0.58 0.58 0.56 0.55 0.57 0.54 0.48 0.43 0.38 0.38 0.46 0.28 0.17 0.16 0.14 0.12 0.12 0.13 0.17 0.21 0.28 0.34 0.35 0.38 0.37 0.48 0.71 1.04 1.62 2.20 2.74 3.21 3.07 2.40 1.89 1.68
0.83 0.78 0.76 0.74 0.73 0.69 0.62 0.58 0.59 0.61 0.61 0.58 0.55 0.51 0.52 0.51 0.42 0.45 0.39 0.23 0.19 0.17 0.16 0.16 0.15 0.17 0.20 0.25 0.29 0.36 0.39 0.42 0.46 0.58 0.74 1.13 1.70 2.25 2.99 3.29 2.79 2.15 1.77
0.89 0.82 0.76 0.72 0.69 0.67 0.65 0.63 0.63 0.61 0.60 0.63 0.62 0.56 0.51 0.48 0.46 0.49 0.52 0.40 0.30 0.21 0.18 0.17 0.16 0.18 0.21 0.24 0.27 0.31 0.33 0.37 0.43 0.52 0.56 0.68 1.04 1.66 2.39 3.20 3.39 2.69 2.09
0.82 0.83 0.82 0.75 0.67 0.63 0.64 0.67 0.67 0.64 0.63 0.65 0.62 0.59 0.56 0.47 0.48 0.54 0.60 0.65 0.58 0.34 0.23 0.18 0.15 0.16 0.20 0.24 0.27 0.30 0.27 0.32 0.37 0.43 0.46 0.50 0.62 0.97 1.61 2.55 3.50 3.56 2.81
0.82 0.87 0.88 0.85 0.77 0.70 0.66 0.65 0.66 0.66 0.69 0.67 0.66 0.64 0.65 0.57 0.53 0.54 0.56 0.67 0.85 0.68 0.33 0.20 0.18 0.18 0.21 0.26 0.29 0.27 0.26 0.28 0.32 0.37 0.43 0.46 0.51 0.65 0.95 1.55 2.51 3.50 3.67
0.79 0.90 0.93 0.87 0.86 0.81 0.75 0.70 0.66 0.65 0.70 0.71 0.71 0.72 0.71 0.70 0.67 0.61 0.60 0.62 0.71 0.79 0.54 0.22 0.19 0.20 0.25 0.29 0.34 0.28 0.29 0.33 0.31 0.33 0.37 0.42 0.46 0.58 0.76 1.05 1.63 2.53 3.39
0.73 0.80 0.91 0.91 0.89 0.89 0.84 0.80 0.77 0.74 0.74 0.74 0.77 0.80 0.78 0.78 0.82 0.78 0.71 0.66 0.64 0.68 0.66 0.28 0.18 0.18 0.26 0.32 0.33 0.31 0.32 0.31 0.27 0.29 0.33 0.38 0.44 0.52 0.66 0.87 1.19 1.77 2.60
0.72 0.75 0.84 0.96 0.97 0.94 0.90 0.86 0.85 0.89 0.94 0.89 0.84 0.84 0.83 0.83 0.86 0.86 0.85 0.76 0.65 0.57 0.60 0.44 0.24 0.21 0.24 0.33 0.38 0.37 0.34 0.31 0.28 0.30 0.33 0.39 0.44 0.50 0.61 0.77 0.98 1.31 1.92
0.77 0.75 0.82 0.96 1.03 1.04 1.00 0.92 0.90 0.93 1.03 1.10 1.08 1.05 0.96 0.91 0.92 0.88 0.90 0.85 0.74 0.63 0.57 0.55 0.37 0.26 0.27 0.34 0.47 0.49 0.41 0.36 0.31 0.32 0.34 0.38 0.41 0.44 0.52 0.63 0.81 1.04 1.33
0.80 0.80 0.80 0.86 0.97 1.08 1.17 1.16 1.15 1.08 1.09 1.13 1.16 1.18 1.14 1.13 1.06 0.99 0.97 0.93 0.88 0.83 0.74 0.71 0.58 0.42 0.36 0.39 0.55 0.63 0.55 0.45 0.39 0.35 0.37 0.37 0.39 0.42 0.43 0.44 0.50 0.66 0.92
0.82 0.81 0.81 0.79 0.84 1.11 1.47 1.45 1.34 1.26 1.13 1.04 0.99 1.00 1.07 1.19 1.23 1.27 1.29 1.19 1.15 1.21 1.12 1.01 0.84 0.67 0.55 0.57 0.67 0.71 0.78 0.66 0.54 0.46 0.44 0.38 0.35 0.31 0.30 0.33 0.39 0.49 0.67
0.94 0.88 0.83 0.78 0.81 1.00 1.42 1.46 1.18 0.97 0.85 0.83 0.83 0.79 0.81 0.98 1.06 1.16 1.27 1.27 1.32 1.47 1.51 1.39 1.14 0.93 0.68 0.62 0.69 0.85 0.98 1.02 0.86 0.56 0.54 0.51 0.43 0.39 0.31 0.27 0.31 0.39 0.53
0.95 0.94 0.85 0.78 0.72 0.79 1.16 1.24 1.03 0.76 0.64 0.62 0.64 0.64 0.66 0.74 0.85 0.84 0.95 1.03 1.09 1.25 1.45 1.52 1.45 1.09 0.81 0.66 0.80 0.97 1.01 1.08 0.95 0.75 0.80 0.86 0.68 0.56 0.43 0.38 0.41 0.40 0.48
0.97 0.91 0.86 0.80 0.75 0.69 0.99 1.14 0.98 0.69 0.57 0.52 0.53 0.52 0.51 0.56 0.69 0.81 0.89 0.89 0.85 0.95 1.22 1.42 1.54 1.33 1.07 0.93 1.06 1.31 1.41 1.39 1.19 1.01 1.01 1.18 0.97 0.78 0.65 0.54 0.48 0.42 0.45
0.94 0.91 0.84 0.76 0.74 0.69 0.87 1.15 1.09 0.73 0.59 0.52 0.51 0.51 0.46 0.44 0.63 0.83 0.83 0.76 0.67 0.71 0.87 1.14 1.33 1.37 1.35 1.39 1.48 1.75 1.90 1.84 1.67 1.34 1.17 1.27 1.25 1.12 0.97 0.84 0.67 0.53 0.47
0.89 0.89 0.85 0.76 0.70 0.65 0.76 1.10 1.26 0.83 0.63 0.55 0.52 0.50 0.55 0.57 0.70 0.76 0.71 0.73 0.75 0.66 0.63 0.71 0.80 0.88 0.97 1.06 1.32 1.57 1.73 1.81 1.79 1.75 1.38 1.28 1.44 1.50 1.59 1.24 0.89 0.59 0.49

GEFSMA_prec_meanprecacc_192.txt.gz
Total_Precipitation_Accumulation
0.62 0.59 0.54 0.50 0.47 0.47 0.45 0.40 0.35 0.30 0.28 0.28 0.26 0.23 0.23 0.22 0.22 0.19 0.16 0.15 0.15 0.18 0.27 0.44 0.64 0.82 0.97 1.12 1.22 1.13 1.09 0.95 0.70 0.56 0.54 0.63 0.69 0.76 0.77 0.82 0.83 0.72 0.68
0.59 0.60 0.58 0.55 0.50 0.45 0.43 0.41 0.37 0.32 0.27 0.25 0.22 0.21 0.20 0.20 0.21 0.22 0.20 0.21 0.19 0.19 0.24 0.34 0.47 0.71 0.91 1.04 1.21 1.34 1.22 1.19 1.06 0.78 0.63 0.60 0.65 0.71 0.75 0.81 0.86 0.83 0.74
0.55 0.59 0.62 0.58 0.53 0.48 0.44 0.42 0.41 0.38 0.33 0.27 0.22 0.20 0.18 0.17 0.17 0.17 0.19 0.23 0.24 0.23 0.24 0.30 0.36 0.52 0.77 0.97 1.12 1.37 1.44 1.31 1.32 1.20 0.94 0.74 0.68 0.68 0.72 0.78 0.83 0.90 0.85
0.57 0.60 0.63 0.62 0.56 0.52 0.49 0.46 0.43 0.40 0.36 0.30 0.25 0.22 0.19 0.17 0.15 0.14 0.14 0.17 0.24 0.27 0.26 0.27 0.31 0.39 0.60 0.84 1.08 1.29 1.68 1.58 1.47 1.51 1.44 1.12 0.86 0.76 0.76 0.80 0.85 0.92 0.95
0.59 0.60 0.62 0.61 0.63 0.63 0.58 0.54 0.48 0.43 0.38 0.34 0.30 0.26 0.21 0.18 0.17 0.16 0.14 0.13 0.16 0.23 0.28 0.29 0.31 0.31 0.42 0.63 0.89 1.15 1.61 1.94 1.76 1.64 1.68 1.59 1.25 0.97 0.86 0.87 0.92 0.96 1.02
0.63 0.58 0.58 0.59 0.60 0.61 0.59 0.55 0.50 0.43 0.39 0.36 0.35 0.32 0.26 0.21 0.19 0.17 0.15 0.14 0.14 0.16 0.24 0.30 0.32 0.28 0.28 0.38 0.59 0.95 1.32 1.77 2.01 1.89 1.81 1.83 1.69 1.38 1.13 1.01 1.00 1.08 1.11
0.73 0.66 0.61 0.59 0.58 0.56 0.52 0.49 0.50 0.49 0.45 0.43 0.46 0.43 0.37 0.30 0.25 0.21 0.18 0.15 0.13 0.13 0.17 0.27 0.34 0.32 0.27 0.28 0.33 0.51 0.90 1.41 1.87 2.10 2.10 2.02 1.99 1.80 1.51 1.29 1.17 1.22 1.29
0.82 0.77 0.66 0.64 0.62 0.58 0.54 0.50 0.49 0.51 0.50 0.49 0.51 0.53 0.47 0.42 0.34 0.25 0.22 0.19 0.15 0.14 0.16 0.21 0.30 0.35 0.34 0.28 0.22 0.27 0.46 0.90 1.46 1.95 2.22 2.28 2.24 2.17 1.91 1.63 1.41 1.37 1.46
0.82 0.85 0.77 0.66 0.65 0.63 0.59 0.54 0.49 0.49 0.51 0.48 0.48 0.64 0.67 0.47 0.30 0.23 0.21 0.20 0.19 0.17 0.16 0.19 0.26 0.32 0.37 0.36 0.29 0.26 0.29 0.50 0.96 1.55 2.04 2.33 2.43 2.50 2.37 1.98 1.69 1.53 1.56
0.81 0.80 0.82 0.78 0.70 0.66 0.61 0.57 0.53 0.51 0.54 0.56 0.52 0.52 0.56 0.54 0.53 0.36 0.21 0.20 0.21 0.21 0.19 0.18 0.22 0.27 0.33 0.39 0.40 0.38 0.36 0.38 0.63 1.03 1.58 2.14 2.51 2.77 2.92 2.52 2.04 1.79 1.71
0.81 0.81 0.78 0.81 0.78 0.71 0.64 0.61 0.61 0.60 0.61 0.62 0.58 0.52 0.48 0.43 0.44 0.52 0.35 0.23 0.24 0.24 0.23 0.23 0.23 0.26 0.30 0.36 0.41 0.42 0.46 0.44 0.57 0.82 1.15 1.73 2.30 2.84 3.31 3.16 2.48 1.99 1.77
0.84 0.79 0.78 0.77 0.77 0.73 0.65 0.61 0.61 0.64 0.66 0.63 0.59 0.56 0.57 0.55 0.46 0.50 0.45 0.30 0.28 0.26 0.27 0.29 0.28 0.28 0.30 0.35 0.38 0.46 0.49 0.50 0.54 0.66 0.82 1.21 1.80 2.36 3.10 3.40 2.89 2.24 1.85
0.91 0.83 0.78 0.75 0.72 0.71 0.69 0.66 0.66 0.64 0.63 0.67 0.67 0.61 0.56 0.52 0.49 0.54 0.57 0.46 0.40 0.32 0.31 0.33 0.31 0.31 0.34 0.36 0.38 0.43 0.44 0.48 0.53 0.61 0.63 0.74 1.12 1.74 2.49 3.32 3.51 2.80 2.20
0.84 0.84 0.84 0.78 0.70 0.67 0.68 0.71 0.70 0.67 0.66 0.68 0.66 0.64 0.60 0.52 0.53 0.59 0.66 0.72 0.67 0.46 0.37 0.33 0.30 0.30 0.32 0.36 0.39 0.43 0.40 0.45 0.50 0.53 0.54 0.57 0.68 1.03 1.68 2.63 3.60 3.67 2.92
0.84 0.89 0.89 0.87 0.80 0.74 0.70 0.69 0.70 0.69 0.72 0.70 0.69 0.68 0.70 0.62 0.59 0.60 0.62 0.74 0.94 0.78 0.46 0.33 0.32 0.33 0.34 0.38 0.42 0.39 0.37 0.39 0.43 0.48 0.52 0.52 0.57 0.71 1.02 1.63 2.59 3.59 3.77
0.82 0.93 0.95 0.89 0.89 0.84 0.78 0.74 0.71 0.69 0.73 0.74 0.74 0.76 0.76 0.75 0.73 0.67 0.67 0.70 0.80 0.88 0.64 0.33 0.30 0.32 0.39 0.44 0.49 0.42 0.41 0.46 0.43 0.43 0.45 0.49 0.53 0.64 0.83 1.13 1.71 2.60 3.46
0.77 0.84 0.95 0.95 0.93 0.91 0.87 0.84 0.81 0.79 0.78 0.78 0.80 0.85 0.84 0.84 0.89 0.84 0.78 0.73 0.72 0.78 0.75 0.38 0.29 0.31 0.43 0.51 0.52 0.48 0.48 0.45 0.38 0.38 0.41 0.45 0.51 0.58 0.73 0.94 1.25 1.83 2.66
0.77 0.80 0.89 1.00 1.00 0.97 0.92 0.90 0.90 0.94 0.99 0.95 0.88 0.88 0.89 0.90 0.93 0.93 0.92 0.83 0.72 0.65 0.67 0.52 0.35 0.36 0.42 0.52 0.57 0.54 0.50 0.46 0.40 0.39 0.41 0.46 0.50 0.57 0.67 0.84 1.05 1.37 1.98
0.81 0.80 0.88 1.01 1.07 1.08 1.04 0.95 0.94 0.99 1.09 1.15 1.13 1.10 1.01 0.98 1.00 0.96 0.97 0.93 0.82 0.70 0.64 0.62 0.46 0.38 0.42 0.50 0.62 0.63 0.55 0.50 0.45 0.43 0.42 0.45 0.48 0.52 0.60 0.72 0.89 1.11 1.39
0.83 0.83 0.83 0.91 1.01 1.11 1.20 1.21 1.20 1.14 1.15 1.19 1.22 1.23 1.19 1.18 1.13 1.07 1.06 1.01 0.96 0.93 0.84 0.81 0.68 0.53 0.49 0.52 0.67 0.76 0.69 0.57 0.51 0.47 0.48 0.46 0.49 0.52 0.52 0.53 0.59 0.76 1.00
0.85 0.84 0.84 0.82 0.88 1.13 1.50 1.49 1.40 1.32 1.19 1.10 1.05 1.06 1.13 1.25 1.29 1.35 1.38 1.28 1.23 1.28 1.21 1.12 0.95 0.78 0.65 0.68 0.77 0.81 0.88 0.77 0.64 0.58 0.56 0.48 0.46 0.44 0.41 0.42 0.47 0.59 0.77
0.96 0.91 0.87 0.82 0.84 1.04 1.46 1.51 1.24 1.03 0.91 0.89 0.89 0.84 0.86 1.04 1.13 1.23 1.35 1.35 1.39 1.53 1.57 1.47 1.24 1.02 0.76 0.70 0.77 0.93 1.07 1.13 0.98 0.67 0.69 0.66 0.55 0.52 0.42 0.36 0.39 0.48 0.63
0.98 0.97 0.89 0.81 0.75 0.82 1.20 1.29 1.08 0.82 0.71 0.68 0.70 0.70 0.72 0.80 0.93 0.92 1.05 1.11 1.18 1.33 1.51 1.58 1.51 1.15 0.88 0.73 0.89 1.07 1.11 1.18 1.06 0.87 0.94 1.03 0.81 0.66 0.51 0.47 0.50 0.49 0.56
1.01 0.95 0.90 0.83 0.78 0.73 1.04 1.20 1.05 0.76 0.65 0.59 0.58 0.57 0.56 0.62 0.75 0.89 0.98 0.97 0.93 1.02 1.29 1.48 1.60 1.40 1.15 1.01 1.15 1.40 1.52 1.52 1.32 1.13 1.12 1.31 1.08 0.87 0.74 0.64 0.57 0.51 0.53
0.97 0.94 0.87 0.80 0.78 0.75 0.93 1.23 1.17 0.81 0.67 0.58 0.56 0.56 0.51 0.49 0.70 0.90 0.91 0.85 0.76 0.79 0.96 1.23 1.42 1.46 1.46 1.51 1.60 1.86 2.02 1.97 1.80 1.47 1.29 1.37 1.35 1.21 1.05 0.92 0.74 0.60 0.53
0.92 0.92 0.90 0.82 0.76 0.72 0.85 1.20 1.35 0.91 0.71 0.62 0.57 0.55 0.61 0.63 0.77 0.83 0.79 0.82 0.84 0.75 0.73 0.81 0.90 0.98 1.06 1.16 1.41 1.66 1.83 1.92 1.90 1.86 1.49 1.37 1.52 1.59 1.68 1.31 0.94 0.64 0.54

GEFSMA_prec_meanprecacc_198.txt.gz
Total_Precipitation_Accumulation
0.63 0.60 0.55 0.51 0.49 0.48 0.46 0.41 0.37 0.32 0.29 0.29 0.28 0.25 0.24 0.24 0.23 0.21 0.18 0.17 0.17 0.20 0.30 0.49 0.72 0.93 1.09 1.24 1.33 1.23 1.18 1.03 0.77 0.61 0.59 0.67 0.72 0.78 0.78 0.84 0.84 0.72 0.69
0.61 0.61 0.58 0.56 0.52 0.47 0.45 0.43 0.38 0.33 0.28 0.26 0.24 0.23 0.23 0.22 0.23 0.24 0.22 0.23 0.21 0.21 0.27 0.37 0.54 0.82 1.04 1.18 1.34 1.46 1.32 1.29 1.14 0.85 0.68 0.66 0.69 0.74 0.78 0.83 0.88 0.85 0.75
0.57 0.61 0.63 0.59 0.54 0.50 0.47 0.45 0.43 0.40 0.35 0.29 0.24 0.21 0.19 0.19 0.18 0.19 0.21 0.25 0.26 0.25 0.26 0.33 0.41 0.61 0.89 1.12 1.28 1.50 1.55 1.42 1.42 1.27 1.00 0.79 0.73 0.72 0.76 0.81 0.86 0.92 0.86
0.62 0.63 0.64 0.63 0.57 0.54 0.52 0.49 0.46 0.43 0.39 0.33 0.27 0.24 0.20 0.18 0.16 0.15 0.15 0.18 0.26 0.29 0.28 0.29 0.34 0.45 0.71 0.99 1.25 1.45 1.83 1.70 1.58 1.61 1.52 1.19 0.91 0.81 0.81 0.85 0.89 0.95 0.98
0.66 0.66 0.64 0.63 0.64 0.64 0.60 0.57 0.53 0.47 0.41 0.36 0.32 0.28 0.23 0.20 0.18 0.17 0.15 0.14 0.17 0.24 0.30 0.31 0.33 0.35 0.49 0.76 1.06 1.33 1.78 2.10 1.90 1.79 1.82 1.70 1.33 1.04 0.92 0.93 0.97 1.01 1.06
0.70 0.66 0.65 0.62 0.61 0.62 0.61 0.58 0.55 0.49 0.43 0.39 0.37 0.33 0.27 0.22 0.20 0.18 0.16 0.15 0.15 0.17 0.26 0.32 0.34 0.30 0.32 0.46 0.74 1.13 1.51 1.95 2.19 2.06 1.98 1.97 1.82 1.50 1.23 1.09 1.07 1.14 1.17
0.79 0.74 0.69 0.64 0.61 0.57 0.54 0.51 0.53 0.54 0.51 0.47 0.48 0.45 0.39 0.32 0.26 0.22 0.18 0.16 0.14 0.14 0.18 0.29 0.37 0.35 0.30 0.33 0.42 0.67 1.10 1.63 2.08 2.28 2.27 2.16 2.10 1.90 1.61 1.38 1.26 1.30 1.37
0.84 0.81 0.72 0.70 0.66 0.60 0.56 0.52 0.51 0.54 0.55 0.54 0.55 0.56 0.49 0.44 0.36 0.27 0.23 0.20 0.16 0.15 0.18 0.24 0.33 0.39 0.39 0.33 0.27 0.38 0.62 1.12 1.71 2.18 2.41 2.43 2.36 2.27 1.99 1.71 1.50 1.46 1.55
0.84 0.87 0.81 0.73 0.71 0.68 0.62 0.56 0.51 0.51 0.54 0.51 0.51 0.67 0.70 0.50 0.32 0.24 0.22 0.21 0.20 0.18 0.18 0.21 0.29 0.36 0.43 0.42 0.35 0.34 0.41 0.69 1.21 1.81 2.26 2.49 2.57 2.63 2.49 2.10 1.81 1.65 1.67
0.82 0.81 0.84 0.81 0.76 0.72 0.66 0.60 0.56 0.53 0.56 0.58 0.54 0.54 0.59 0.57 0.56 0.37 0.22 0.20 0.22 0.22 0.21 0.21 0.25 0.31 0.38 0.46 0.47 0.45 0.45 0.52 0.84 1.29 1.83 2.34 2.67 2.92 3.06 2.66 2.18 1.94 1.88
0.81 0.82 0.80 0.83 0.81 0.75 0.70 0.67 0.65 0.63 0.63 0.63 0.60 0.54 0.50 0.46 0.47 0.56 0.37 0.24 0.25 0.25 0.25 0.26 0.27 0.30 0.35 0.43 0.49 0.51 0.56 0.57 0.74 1.04 1.40 1.95 2.49 3.02 3.47 3.30 2.61 2.12 1.92
0.85 0.80 0.79 0.79 0.79 0.76 0.68 0.65 0.66 0.68 0.69 0.65 0.61 0.57 0.58 0.57 0.49 0.53 0.48 0.33 0.30 0.27 0.29 0.32 0.34 0.34 0.35 0.41 0.47 0.57 0.60 0.63 0.71 0.88 1.08 1.44 1.99 2.55 3.29 3.58 3.04 2.37 1.97
0.91 0.84 0.79 0.76 0.74 0.73 0.72 0.69 0.69 0.68 0.67 0.71 0.69 0.62 0.57 0.53 0.51 0.56 0.61 0.50 0.43 0.35 0.34 0.35 0.35 0.39 0.42 0.43 0.46 0.53 0.55 0.61 0.70 0.81 0.90 0.99 1.33 1.94 2.68 3.50 3.68 2.95 2.33
0.85 0.85 0.85 0.80 0.72 0.68 0.70 0.74 0.73 0.71 0.71 0.72 0.69 0.66 0.62 0.53 0.54 0.61 0.69 0.76 0.72 0.50 0.41 0.36 0.33 0.37 0.42 0.47 0.49 0.54 0.51 0.59 0.66 0.75 0.81 0.83 0.90 1.23 1.90 2.84 3.75 3.78 3.03
0.85 0.91 0.91 0.90 0.83 0.77 0.73 0.72 0.73 0.72 0.76 0.75 0.74 0.71 0.72 0.64 0.60 0.61 0.64 0.78 0.99 0.84 0.50 0.36 0.35 0.37 0.42 0.48 0.54 0.53 0.51 0.56 0.62 0.71 0.79 0.81 0.79 0.90 1.22 1.82 2.75 3.72 3.87
0.83 0.95 0.98 0.92 0.92 0.89 0.83 0.78 0.74 0.72 0.77 0.79 0.79 0.80 0.78 0.77 0.75 0.69 0.69 0.73 0.85 0.93 0.69 0.36 0.33 0.35 0.47 0.55 0.62 0.56 0.57 0.64 0.62 0.68 0.73 0.76 0.76 0.82 1.00 1.30 1.86 2.74 3.57
0.78 0.86 0.97 0.99 0.97 0.96 0.92 0.90 0.86 0.83 0.82 0.82 0.85 0.90 0.88 0.86 0.91 0.86 0.80 0.76 0.77 0.84 0.82 0.42 0.32 0.34 0.50 0.64 0.67 0.66 0.68 0.65 0.58 0.61 0.67 0.72 0.73 0.76 0.89 1.08 1.38 1.95 2.77
0.79 0.82 0.92 1.05 1.07 1.04 0.99 0.96 0.95 0.98 1.04 0.99 0.92 0.93 0.94 0.94 0.97 0.96 0.95 0.87 0.76 0.70 0.75 0.60 0.40 0.41 0.50 0.65 0.74 0.75 0.74 0.71 0.64 0.63 0.65 0.70 0.72 0.75 0.84 0.97 1.16 1.49 2.08
0.85 0.84 0.92 1.07 1.14 1.15 1.11 1.01 0.99 1.03 1.13 1.20 1.17 1.14 1.06 1.03 1.05 1.01 1.02 0.97 0.86 0.75 0.71 0.70 0.53 0.44 0.51 0.63 0.78 0.83 0.78 0.76 0.72 0.72 0.69 0.68 0.69 0.71 0.76 0.85 1.00 1.21 1.47
0.87 0.87 0.88 0.96 1.09 1.19 1.27 1.26 1.26 1.20 1.20 1.24 1.27 1.28 1.24 1.23 1.18 1.13 1.12 1.07 1.02 0.98 0.91 0.90 0.78 0.62 0.58 0.63 0.83 0.97 0.93 0.82 0.77 0.74 0.73 0.67 0.69 0.68 0.66 0.64 0.68 0.84 1.07
0.88 0.88 0.88 0.87 0.95 1.21 1.56 1.54 1.45 1.37 1.24 1.15 1.10 1.11 1.17 1.30 1.35 1.40 1.43 1.33 1.28 1.33 1.28 1.22 1.05 0.88 0.76 0.80 0.92 0.97 1.09 1.01 0.89 0.81 0.78 0.68 0.64 0.58 0.53 0.51 0.55 0.66 0.83
0.97 0.94 0.90 0.86 0.89 1.09 1.51 1.56 1.28 1.08 0.95 0.94 0.93 0.88 0.89 1.08 1.17 1.27 1.39 1.40 1.45 1.58 1.63 1.55 1.33 1.11 0.87 0.80 0.89 1.07 1.24 1.35 1.21 0.87 0.86 0.82 0.69 0.65 0.54 0.45 0.47 0.54 0.69
1.00 0.98 0.91 0.85 0.79 0.86 1.25 1.34 1.13 0.86 0.75 0.72 0.73 0.74 0.75 0.84 0.97 0.96 1.09 1.17 1.24 1.39 1.59 1.66 1.60 1.23 0.97 0.82 0.99 1.19 1.24 1.34 1.23 1.00 1.05 1.16 0.95 0.80 0.64 0.58 0.60 0.55 0.63
1.04 0.99 0.93 0.86 0.81 0.76 1.08 1.26 1.12 0.81 0.69 0.62 0.62 0.60 0.60 0.66 0.80 0.94 1.03 1.05 1.01 1.11 1.37 1.56 1.68 1.49 1.24 1.10 1.25 1.52 1.65 1.66 1.49 1.27 1.22 1.42 1.20 1.01 0.87 0.75 0.68 0.61 0.63
0.98 0.97 0.92 0.83 0.81 0.79 0.98 1.29 1.26 0.90 0.74 0.62 0.60 0.60 0.55 0.53 0.75 0.96 0.97 0.94 0.85 0.88 1.05 1.31 1.51 1.57 1.57 1.63 1.71 1.98 2.16 2.11 1.95 1.62 1.39 1.47 1.45 1.33 1.17 1.02 0.85 0.71 0.64
0.94 0.94 0.94 0.86 0.79 0.75 0.90 1.26 1.43 1.01 0.80 0.68 0.63 0.60 0.66 0.68 0.83 0.89 0.85 0.90 0.93 0.84 0.80 0.88 0.98 1.08 1.17 1.28 1.52 1.77 1.94 2.02 1.99 1.96 1.57 1.45 1.59 1.67 1.78 1.40 1.03 0.74 0.63

GEFSMA_prec_meanprecacc_204.txt.gz
Total_Precipitation_Accumulation
0.66 0.62 0.57 0.53 0.50 0.49 0.47 0.42 0.38 0.33 0.30 0.31 0.30 0.27 0.25 0.24 0.24 0.22 0.18 0.18 0.18 0.21 0.32 0.52 0.76 0.98 1.17 1.33 1.43 1.32 1.26 1.11 0.85 0.69 0.66 0.74 0.79 0.84 0.84 0.89 0.88 0.77 0.73
0.64 0.65 0.61 0.58 0.53 0.48 0.46 0.44 0.39 0.34 0.30 0.28 0.26 0.25 0.24 0.23 0.24 0.24 0.23 0.23 0.22 0.22 0.28 0.40 0.57 0.86 1.10 1.26 1.45 1.56 1.42 1.38 1.23 0.94 0.77 0.73 0.76 0.81 0.84 0.89 0.94 0.91 0.80
0.60 0.66 0.67 0.61 0.56 0.51 0.48 0.46 0.44 0.41 0.36 0.30 0.26 0.23 0.21 0.20 0.19 0.20 0.22 0.26 0.27 0.26 0.27 0.34 0.43 0.64 0.93 1.18 1.35 1.59 1.64 1.51 1.51 1.38 1.11 0.89 0.82 0.81 0.84 0.88 0.93 0.99 0.92
0.65 0.68 0.71 0.66 0.59 0.55 0.53 0.50 0.47 0.45 0.40 0.35 0.30 0.26 0.23 0.20 0.17 0.16 0.16 0.19 0.27 0.29 0.29 0.30 0.35 0.47 0.74 1.03 1.31 1.53 1.92 1.80 1.68 1.72 1.65 1.32 1.03 0.93 0.92 0.95 0.97 1.02 1.04
0.68 0.71 0.73 0.71 0.68 0.66 0.61 0.58 0.53 0.47 0.42 0.39 0.35 0.30 0.26 0.22 0.19 0.18 0.16 0.15 0.18 0.25 0.31 0.32 0.34 0.36 0.51 0.80 1.11 1.40 1.86 2.19 2.00 1.91 1.97 1.88 1.51 1.21 1.08 1.09 1.11 1.12 1.15
0.71 0.69 0.71 0.72 0.71 0.68 0.63 0.59 0.56 0.49 0.44 0.41 0.39 0.36 0.30 0.25 0.22 0.19 0.17 0.16 0.15 0.18 0.26 0.33 0.35 0.32 0.34 0.48 0.77 1.18 1.58 2.03 2.27 2.16 2.11 2.16 2.03 1.71 1.43 1.29 1.26 1.31 1.31
0.79 0.75 0.72 0.71 0.71 0.66 0.59 0.54 0.54 0.55 0.52 0.50 0.52 0.49 0.42 0.34 0.29 0.23 0.19 0.17 0.15 0.15 0.19 0.29 0.37 0.36 0.32 0.34 0.45 0.70 1.16 1.71 2.18 2.39 2.38 2.32 2.31 2.13 1.83 1.60 1.44 1.48 1.54
0.85 0.82 0.74 0.73 0.72 0.68 0.61 0.56 0.53 0.55 0.56 0.56 0.58 0.60 0.53 0.47 0.39 0.30 0.25 0.21 0.17 0.16 0.19 0.24 0.34 0.40 0.39 0.34 0.29 0.40 0.66 1.19 1.80 2.29 2.54 2.58 2.54 2.48 2.21 1.91 1.68 1.63 1.71
0.84 0.88 0.82 0.74 0.73 0.73 0.68 0.59 0.54 0.53 0.55 0.52 0.52 0.70 0.73 0.53 0.35 0.27 0.25 0.23 0.21 0.19 0.19 0.22 0.29 0.37 0.43 0.43 0.37 0.37 0.45 0.73 1.28 1.92 2.40 2.66 2.74 2.83 2.69 2.29 1.98 1.81 1.82
0.82 0.82 0.84 0.82 0.77 0.74 0.69 0.65 0.59 0.56 0.58 0.59 0.55 0.55 0.61 0.60 0.58 0.40 0.25 0.23 0.23 0.24 0.22 0.21 0.25 0.31 0.39 0.46 0.48 0.48 0.48 0.55 0.89 1.38 1.98 2.53 2.87 3.11 3.26 2.86 2.36 2.10 2.02
0.82 0.82 0.80 0.84 0.82 0.77 0.71 0.69 0.68 0.66 0.66 0.66 0.61 0.55 0.51 0.48 0.50 0.58 0.40 0.27 0.28 0.27 0.27 0.27 0.28 0.31 0.36 0.44 0.50 0.52 0.58 0.59 0.78 1.11 1.52 2.14 2.71 3.25 3.72 3.56 2.85 2.33 2.11
0.85 0.80 0.80 0.79 0.80 0.77 0.70 0.67 0.68 0.70 0.71 0.67 0.62 0.58 0.60 0.58 0.50 0.55 0.50 0.35 0.33 0.30 0.30 0.33 0.35 0.35 0.37 0.42 0.48 0.58 0.62 0.66 0.74 0.93 1.18 1.60 2.18 2.75 3.52 3.86 3.35 2.67 2.21
0.92 0.84 0.79 0.77 0.75 0.75 0.74 0.71 0.71 0.69 0.69 0.72 0.71 0.63 0.58 0.55 0.53 0.58 0.62 0.52 0.46 0.38 0.37 0.38 0.37 0.40 0.44 0.46 0.48 0.55 0.58 0.64 0.74 0.86 0.98 1.13 1.49 2.13 2.90 3.75 3.97 3.28 2.65
0.85 0.86 0.86 0.80 0.73 0.70 0.74 0.78 0.77 0.73 0.72 0.73 0.70 0.68 0.64 0.55 0.56 0.63 0.70 0.78 0.74 0.53 0.45 0.40 0.36 0.38 0.43 0.49 0.53 0.57 0.53 0.63 0.71 0.80 0.87 0.94 1.04 1.40 2.10 3.06 3.99 4.06 3.36
0.85 0.91 0.92 0.91 0.85 0.78 0.75 0.76 0.78 0.76 0.79 0.77 0.75 0.73 0.74 0.66 0.62 0.63 0.66 0.80 1.02 0.87 0.53 0.40 0.38 0.40 0.44 0.51 0.57 0.56 0.55 0.60 0.67 0.77 0.86 0.90 0.92 1.04 1.39 2.05 2.98 3.94 4.09
0.83 0.95 0.99 0.94 0.93 0.90 0.85 0.80 0.78 0.76 0.81 0.82 0.82 0.83 0.80 0.79 0.77 0.72 0.71 0.75 0.87 0.97 0.72 0.38 0.36 0.38 0.50 0.59 0.67 0.62 0.62 0.69 0.69 0.75 0.80 0.86 0.89 0.96 1.14 1.47 2.05 2.93 3.75
0.78 0.86 0.98 1.00 0.98 0.98 0.94 0.92 0.88 0.86 0.86 0.85 0.88 0.93 0.91 0.89 0.94 0.89 0.83 0.78 0.79 0.87 0.85 0.45 0.35 0.38 0.55 0.73 0.77 0.73 0.74 0.72 0.66 0.68 0.74 0.81 0.87 0.92 1.05 1.24 1.54 2.10 2.92
0.80 0.83 0.92 1.05 1.07 1.05 1.00 0.97 0.97 1.01 1.07 1.02 0.96 0.97 0.98 0.98 1.01 0.99 0.97 0.89 0.78 0.73 0.79 0.64 0.45 0.47 0.58 0.74 0.82 0.81 0.78 0.76 0.70 0.69 0.73 0.80 0.87 0.93 1.04 1.15 1.33 1.63 2.24
0.85 0.85 0.92 1.07 1.15 1.16 1.12 1.03 1.01 1.06 1.16 1.22 1.20 1.17 1.10 1.07 1.08 1.03 1.04 1.00 0.89 0.77 0.74 0.75 0.60 0.52 0.59 0.72 0.85 0.90 0.83 0.82 0.82 0.83 0.80 0.82 0.86 0.92 1.00 1.06 1.18 1.38 1.66
0.87 0.88 0.89 0.97 1.09 1.20 1.28 1.27 1.27 1.22 1.22 1.26 1.29 1.31 1.28 1.27 1.21 1.16 1.14 1.10 1.05 1.02 0.95 0.94 0.84 0.71 0.67 0.73 0.90 1.03 1.00 0.90 0.88 0.91 0.93 0.89 0.91 0.94 0.96 0.91 0.89 1.03 1.26
0.88 0.88 0.89 0.88 0.96 1.22 1.57 1.56 1.47 1.40 1.27 1.18 1.13 1.14 1.21 1.35 1.39 1.44 1.46 1.36 1.31 1.37 1.33 1.26 1.11 0.96 0.85 0.89 1.00 1.05 1.19 1.12 1.03 1.02 1.01 0.91 0.90 0.87 0.83 0.80 0.80 0.90 1.05
0.97 0.94 0.91 0.87 0.90 1.10 1.53 1.58 1.31 1.11 0.99 0.98 0.97 0.91 0.93 1.12 1.20 1.32 1.44 1.44 1.49 1.62 1.68 1.61 1.38 1.17 0.94 0.89 0.97 1.15 1.33 1.47 1.39 1.10 1.09 1.06 0.98 0.95 0.83 0.72 0.73 0.76 0.87
1.01 0.99 0.92 0.86 0.81 0.88 1.26 1.37 1.17 0.91 0.79 0.76 0.78 0.78 0.79 0.86 0.99 0.99 1.13 1.21 1.28 1.44 1.63 1.71 1.65 1.28 1.01 0.89 1.08 1.27 1.35 1.48 1.39 1.20 1.26 1.40 1.21 1.06 0.88 0.79 0.79 0.70 0.75
1.07 1.02 0.95 0.87 0.83 0.78 1.10 1.29 1.16 0.84 0.71 0.65 0.65 0.63 0.63 0.68 0.82 0.96 1.07 1.08 1.04 1.14 1.40 1.60 1.72 1.53 1.29 1.18 1.33 1.61 1.75 1.80 1.66 1.46 1.39 1.61 1.41 1.20 1.07 0.95 0.83 0.71 0.72
1.00 0.99 0.94 0.86 0.83 0.81 0.99 1.32 1.29 0.92 0.76 0.64 0.62 0.62 0.57 0.56 0.78 0.99 1.01 0.98 0.89 0.92 1.09 1.36 1.56 1.63 1.64 1.71 1.80 2.09 2.27 2.24 2.11 1.80 1.56 1.62 1.60 1.48 1.34 1.20 0.99 0.80 0.72
0.95 0.96 0.96 0.88 0.83 0.79 0.92 1.30 1.47 1.04 0.84 0.72 0.66 0.63 0.70 0.72 0.86 0.93 0.89 0.94 0.98 0.88 0.85 0.93 1.03 1.14 1.22 1.35 1.61 1.86 2.04 2.13 2.12 2.11 1.73 1.58 1.70 1.77 1.89 1.52 1.12 0.82 0.71

GEFSMA_prec_meanprecacc_210.txt.gz
Total_Precipitation_Accumulation
0.68 0.65 0.61 0.56 0.53 0.51 0.48 0.43 0.38 0.33 0.31 0.31 0.30 0.27 0.26 0.25 0.25 0.23 0.19 0.19 0.18 0.22 0.33 0.53 0.78 1.01 1.19 1.36 1.46 1.36 1.30 1.16 0.89 0.73 0.71 0.79 0.84 0.90 0.90 0.95 0.95 0.84 0.81
0.65 0.66 0.64 0.62 0.56 0.50 0.48 0.45 0.40 0.35 0.30 0.28 0.26 0.25 0.25 0.24 0.25 0.26 0.24 0.25 0.23 0.23 0.28 0.40 0.58 0.88 1.13 1.29 1.48 1.60 1.46 1.42 1.27 0.98 0.81 0.78 0.81 0.86 0.89 0.95 1.00 0.98 0.89
0.61 0.67 0.69 0.66 0.61 0.55 0.51 0.48 0.46 0.44 0.38 0.32 0.27 0.24 0.22 0.21 0.21 0.22 0.24 0.27 0.28 0.27 0.28 0.34 0.43 0.65 0.95 1.20 1.38 1.63 1.68 1.55 1.55 1.42 1.15 0.94 0.87 0.86 0.90 0.95 1.00 1.06 1.01
0.66 0.69 0.72 0.70 0.65 0.61 0.58 0.53 0.49 0.47 0.43 0.37 0.31 0.27 0.24 0.21 0.19 0.17 0.17 0.21 0.28 0.31 0.30 0.31 0.36 0.48 0.75 1.05 1.33 1.56 1.95 1.84 1.72 1.76 1.69 1.36 1.07 0.98 0.98 1.02 1.06 1.11 1.13
0.69 0.72 0.75 0.75 0.74 0.72 0.66 0.62 0.56 0.49 0.44 0.40 0.36 0.32 0.27 0.23 0.21 0.20 0.18 0.16 0.19 0.27 0.32 0.33 0.34 0.37 0.51 0.81 1.13 1.42 1.89 2.22 2.03 1.94 2.01 1.92 1.56 1.26 1.15 1.16 1.20 1.22 1.27
0.71 0.69 0.72 0.74 0.77 0.76 0.70 0.65 0.59 0.51 0.45 0.42 0.40 0.37 0.30 0.26 0.23 0.21 0.19 0.18 0.17 0.19 0.28 0.34 0.36 0.32 0.35 0.49 0.78 1.20 1.60 2.06 2.30 2.19 2.14 2.19 2.07 1.77 1.50 1.37 1.35 1.42 1.45
0.79 0.76 0.73 0.72 0.75 0.76 0.68 0.61 0.59 0.57 0.53 0.51 0.53 0.49 0.42 0.34 0.29 0.25 0.22 0.20 0.17 0.17 0.21 0.31 0.39 0.36 0.32 0.35 0.45 0.72 1.18 1.74 2.21 2.43 2.43 2.36 2.34 2.16 1.89 1.66 1.52 1.56 1.63
0.85 0.82 0.74 0.74 0.74 0.73 0.71 0.63 0.59 0.59 0.58 0.57 0.59 0.61 0.54 0.48 0.40 0.31 0.28 0.25 0.21 0.20 0.22 0.26 0.36 0.41 0.40 0.35 0.30 0.41 0.68 1.21 1.83 2.33 2.58 2.64 2.59 2.52 2.26 1.97 1.75 1.70 1.79
0.84 0.88 0.82 0.75 0.75 0.76 0.73 0.66 0.59 0.58 0.58 0.54 0.53 0.71 0.74 0.53 0.35 0.28 0.26 0.26 0.25 0.24 0.24 0.26 0.32 0.39 0.44 0.43 0.37 0.37 0.45 0.75 1.31 1.96 2.45 2.72 2.81 2.89 2.75 2.34 2.05 1.89 1.90
0.82 0.82 0.85 0.83 0.78 0.75 0.72 0.68 0.63 0.59 0.61 0.61 0.56 0.56 0.61 0.61 0.59 0.41 0.26 0.24 0.27 0.29 0.28 0.27 0.30 0.35 0.41 0.47 0.48 0.48 0.49 0.57 0.91 1.42 2.04 2.61 2.95 3.19 3.32 2.92 2.45 2.20 2.13
0.82 0.82 0.81 0.84 0.82 0.77 0.72 0.72 0.72 0.70 0.69 0.67 0.62 0.55 0.52 0.48 0.50 0.59 0.40 0.28 0.30 0.30 0.32 0.34 0.34 0.36 0.39 0.45 0.51 0.53 0.59 0.60 0.79 1.13 1.57 2.23 2.82 3.36 3.81 3.63 2.93 2.44 2.24
0.85 0.81 0.80 0.79 0.80 0.78 0.70 0.68 0.70 0.73 0.74 0.70 0.64 0.59 0.60 0.59 0.51 0.56 0.51 0.36 0.34 0.32 0.34 0.38 0.42 0.43 0.42 0.45 0.49 0.59 0.63 0.67 0.75 0.95 1.20 1.66 2.28 2.87 3.64 3.96 3.43 2.75 2.32
0.92 0.84 0.79 0.77 0.75 0.75 0.75 0.72 0.73 0.71 0.71 0.75 0.73 0.65 0.59 0.55 0.53 0.59 0.64 0.53 0.47 0.40 0.39 0.41 0.42 0.48 0.51 0.50 0.50 0.56 0.59 0.65 0.75 0.87 0.99 1.17 1.57 2.23 3.03 3.86 4.06 3.35 2.73
0.85 0.86 0.86 0.80 0.73 0.70 0.74 0.78 0.78 0.75 0.74 0.75 0.72 0.70 0.65 0.55 0.57 0.64 0.73 0.81 0.77 0.55 0.46 0.42 0.40 0.43 0.50 0.54 0.56 0.60 0.56 0.64 0.72 0.81 0.89 0.99 1.11 1.49 2.21 3.16 4.08 4.13 3.43
0.85 0.92 0.92 0.91 0.85 0.79 0.75 0.77 0.79 0.78 0.81 0.80 0.78 0.74 0.75 0.67 0.63 0.64 0.68 0.83 1.06 0.91 0.55 0.42 0.41 0.44 0.49 0.55 0.60 0.60 0.58 0.62 0.69 0.78 0.88 0.95 0.98 1.12 1.46 2.12 3.05 4.01 4.17
0.83 0.95 0.99 0.94 0.94 0.91 0.86 0.81 0.79 0.77 0.83 0.84 0.85 0.84 0.82 0.80 0.78 0.73 0.73 0.77 0.90 1.00 0.74 0.39 0.37 0.41 0.54 0.63 0.71 0.66 0.67 0.74 0.73 0.78 0.84 0.90 0.93 1.01 1.19 1.53 2.11 3.00 3.84
0.78 0.87 0.98 1.00 0.99 0.98 0.95 0.93 0.89 0.88 0.88 0.87 0.91 0.96 0.93 0.90 0.95 0.90 0.84 0.81 0.82 0.90 0.88 0.46 0.36 0.40 0.59 0.79 0.82 0.78 0.79 0.77 0.70 0.72 0.78 0.84 0.90 0.96 1.10 1.28 1.60 2.16 3.00
0.80 0.83 0.92 1.05 1.08 1.06 1.02 1.01 0.99 1.02 1.09 1.05 0.99 0.99 1.00 1.00 1.03 1.01 1.00 0.92 0.81 0.76 0.82 0.67 0.47 0.50 0.63 0.79 0.85 0.84 0.82 0.80 0.74 0.74 0.76 0.84 0.92 0.98 1.10 1.20 1.40 1.71 2.32
0.85 0.85 0.93 1.07 1.15 1.16 1.13 1.05 1.04 1.08 1.18 1.25 1.22 1.19 1.12 1.09 1.11 1.06 1.07 1.03 0.92 0.81 0.78 0.78 0.63 0.56 0.64 0.77 0.89 0.93 0.87 0.87 0.87 0.89 0.86 0.88 0.93 0.99 1.07 1.13 1.27 1.50 1.77
0.87 0.88 0.89 0.97 1.09 1.20 1.28 1.28 1.29 1.23 1.24 1.28 1.30 1.32 1.29 1.28 1.23 1.18 1.17 1.13 1.09 1.06 0.99 0.98 0.88 0.75 0.72 0.78 0.95 1.09 1.07 0.96 0.95 0.96 0.97 0.94 0.99 1.04 1.06 1.01 1.00 1.17 1.41
0.88 0.88 0.89 0.88 0.96 1.22 1.57 1.56 1.47 1.41 1.29 1.20 1.14 1.15 1.22 1.36 1.41 1.47 1.49 1.39 1.35 1.42 1.37 1.30 1.14 1.00 0.90 0.94 1.04 1.10 1.25 1.19 1.10 1.06 1.06 0.96 0.97 0.96 0.94 0.92 0.94 1.05 1.24
0.98 0.94 0.91 0.88 0.90 1.11 1.54 1.59 1.32 1.13 1.01 0.99 0.98 0.92 0.94 1.13 1.23 1.35 1.47 1.48 1.53 1.67 1.73 1.64 1.41 1.21 0.98 0.92 1.00 1.19 1.39 1.53 1.46 1.16 1.16 1.15 1.08 1.08 0.96 0.87 0.90 0.94 1.09
1.01 0.99 0.92 0.86 0.82 0.89 1.28 1.39 1.19 0.93 0.80 0.77 0.79 0.79 0.80 0.88 1.01 1.01 1.16 1.25 1.32 1.48 1.67 1.75 1.69 1.32 1.05 0.93 1.12 1.32 1.41 1.54 1.46 1.28 1.35 1.52 1.33 1.19 1.03 0.96 0.96 0.87 0.94
1.07 1.02 0.95 0.87 0.84 0.79 1.12 1.31 1.18 0.86 0.73 0.67 0.66 0.65 0.65 0.70 0.84 0.99 1.10 1.12 1.08 1.18 1.44 1.63 1.76 1.57 1.33 1.22 1.37 1.66 1.81 1.87 1.73 1.55 1.50 1.76 1.56 1.35 1.22 1.11 0.99 0.86 0.87
1.01 1.00 0.95 0.86 0.84 0.82 1.01 1.33 1.31 0.94 0.77 0.66 0.64 0.64 0.60 0.58 0.81 1.02 1.05 1.02 0.94 0.97 1.13 1.40 1.60 1.68 1.70 1.76 1.85 2.14 2.33 2.32 2.19 1.90 1.67 1.77 1.77 1.64 1.49 1.36 1.15 0.94 0.83
0.95 0.96 0.96 0.89 0.84 0.80 0.94 1.32 1.50 1.07 0.86 0.75 0.68 0.66 0.73 0.75 0.90 0.97 0.93 0.98 1.03 0.93 0.90 0.98 1.08 1.20 1.28 1.40 1.67 1.91 2.10 2.21 2.22 2.22 1.85 1.72 1.86 1.91 2.05 1.69 1.28 0.94 0.81

GEFSMA_prec_meanprecacc_216.txt.gz
Total_Precipitation_Accumulation
0.68 0.65 0.61 0.57 0.54 0.52 0.50 0.45 0.40 0.34 0.32 0.32 0.30 0.27 0.26 0.25 0.25 0.23 0.19 0.19 0.19 0.23 0.34 0.55 0.80 1.02 1.21 1.38 1.48 1.38 1.32 1.18 0.92 0.76 0.74 0.82 0.87 0.93 0.94 1.00 1.00 0.89 0.86
0.66 0.66 0.65 0.63 0.58 0.52 0.50 0.47 0.42 0.36 0.31 0.29 0.27 0.25 0.25 0.24 0.25 0.26 0.24 0.25 0.23 0.23 0.29 0.42 0.60 0.90 1.15 1.32 1.50 1.62 1.49 1.45 1.30 1.01 0.84 0.81 0.84 0.88 0.92 0.98 1.04 1.02 0.94
0.61 0.67 0.69 0.66 0.61 0.56 0.52 0.51 0.50 0.47 0.42 0.35 0.28 0.24 0.22 0.21 0.21 0.22 0.24 0.27 0.28 0.27 0.28 0.36 0.45 0.67 0.97 1.23 1.41 1.65 1.70 1.57 1.58 1.44 1.17 0.97 0.90 0.89 0.93 0.98 1.03 1.10 1.05
0.66 0.69 0.72 0.70 0.65 0.62 0.59 0.55 0.52 0.50 0.46 0.41 0.35 0.29 0.25 0.22 0.19 0.18 0.18 0.21 0.28 0.31 0.30 0.32 0.37 0.50 0.77 1.08 1.37 1.60 1.97 1.85 1.73 1.78 1.71 1.38 1.10 1.00 1.01 1.05 1.09 1.15 1.18
0.69 0.72 0.75 0.75 0.74 0.72 0.67 0.63 0.58 0.51 0.46 0.42 0.39 0.34 0.29 0.25 0.22 0.21 0.18 0.17 0.20 0.27 0.33 0.34 0.36 0.39 0.54 0.85 1.17 1.46 1.92 2.23 2.04 1.95 2.02 1.94 1.58 1.29 1.17 1.19 1.22 1.25 1.30
0.71 0.69 0.72 0.74 0.78 0.76 0.71 0.66 0.62 0.54 0.48 0.44 0.43 0.39 0.32 0.27 0.24 0.22 0.20 0.18 0.18 0.20 0.29 0.36 0.38 0.34 0.37 0.53 0.82 1.24 1.64 2.08 2.31 2.20 2.16 2.21 2.09 1.79 1.53 1.40 1.38 1.45 1.47
0.80 0.76 0.73 0.73 0.75 0.76 0.69 0.62 0.60 0.60 0.57 0.54 0.57 0.52 0.44 0.35 0.30 0.26 0.23 0.20 0.18 0.17 0.21 0.32 0.40 0.38 0.34 0.38 0.50 0.76 1.22 1.77 2.23 2.44 2.43 2.37 2.36 2.19 1.92 1.70 1.55 1.60 1.67
0.85 0.82 0.75 0.74 0.74 0.74 0.71 0.64 0.60 0.60 0.60 0.59 0.62 0.64 0.57 0.50 0.41 0.31 0.28 0.25 0.21 0.20 0.22 0.27 0.36 0.43 0.42 0.37 0.34 0.45 0.71 1.24 1.85 2.34 2.59 2.65 2.61 2.55 2.30 2.01 1.80 1.75 1.84
0.84 0.88 0.82 0.75 0.75 0.76 0.73 0.66 0.60 0.59 0.60 0.55 0.55 0.73 0.76 0.55 0.36 0.28 0.27 0.26 0.25 0.25 0.24 0.27 0.33 0.40 0.46 0.46 0.42 0.43 0.50 0.79 1.33 1.97 2.46 2.73 2.82 2.91 2.80 2.40 2.11 1.95 1.97
0.83 0.82 0.85 0.83 0.78 0.76 0.73 0.69 0.63 0.60 0.62 0.63 0.58 0.57 0.62 0.62 0.59 0.41 0.26 0.25 0.27 0.29 0.28 0.27 0.30 0.36 0.42 0.49 0.51 0.54 0.54 0.61 0.94 1.43 2.05 2.62 2.97 3.22 3.37 2.98 2.51 2.28 2.20
0.82 0.82 0.81 0.84 0.83 0.77 0.73 0.72 0.73 0.71 0.70 0.69 0.64 0.57 0.53 0.49 0.51 0.60 0.41 0.28 0.30 0.30 0.32 0.34 0.34 0.37 0.41 0.48 0.53 0.57 0.65 0.66 0.83 1.14 1.58 2.24 2.84 3.39 3.86 3.70 3.00 2.50 2.30
0.85 0.81 0.80 0.79 0.80 0.78 0.70 0.68 0.71 0.75 0.75 0.71 0.66 0.60 0.61 0.60 0.52 0.57 0.52 0.36 0.35 0.33 0.34 0.39 0.43 0.44 0.44 0.48 0.52 0.62 0.68 0.73 0.79 0.96 1.21 1.67 2.29 2.89 3.66 4.01 3.50 2.83 2.39
0.92 0.84 0.80 0.77 0.76 0.75 0.75 0.72 0.73 0.72 0.72 0.76 0.74 0.66 0.60 0.56 0.54 0.60 0.65 0.54 0.48 0.40 0.39 0.41 0.42 0.48 0.53 0.54 0.54 0.60 0.63 0.71 0.79 0.89 1.00 1.18 1.57 2.24 3.04 3.91 4.13 3.46 2.84
0.85 0.86 0.86 0.80 0.73 0.71 0.74 0.78 0.78 0.75 0.75 0.77 0.74 0.71 0.66 0.56 0.58 0.66 0.74 0.83 0.78 0.55 0.47 0.43 0.40 0.43 0.51 0.59 0.61 0.64 0.59 0.69 0.76 0.84 0.92 1.01 1.13 1.53 2.29 3.26 4.20 4.24 3.53
0.85 0.92 0.92 0.91 0.85 0.79 0.75 0.77 0.79 0.78 0.82 0.80 0.79 0.77 0.76 0.68 0.64 0.66 0.70 0.85 1.08 0.93 0.56 0.42 0.41 0.44 0.50 0.58 0.67 0.66 0.63 0.68 0.73 0.82 0.93 1.00 1.05 1.21 1.55 2.19 3.12 4.08 4.24
0.83 0.95 0.99 0.94 0.94 0.91 0.86 0.81 0.79 0.77 0.83 0.85 0.86 0.86 0.84 0.82 0.80 0.75 0.75 0.80 0.93 1.04 0.77 0.40 0.38 0.42 0.54 0.65 0.76 0.75 0.74 0.80 0.79 0.84 0.90 0.96 0.98 1.06 1.23 1.57 2.17 3.06 3.91
0.78 0.87 0.98 1.00 0.99 0.98 0.95 0.93 0.89 0.88 0.88 0.88 0.92 0.98 0.96 0.93 0.98 0.93 0.87 0.84 0.85 0.93 0.92 0.48 0.37 0.41 0.60 0.80 0.85 0.85 0.88 0.83 0.76 0.78 0.83 0.89 0.94 1.01 1.15 1.34 1.67 2.25 3.06
0.80 0.83 0.92 1.05 1.08 1.06 1.02 1.01 0.99 1.03 1.09 1.05 0.99 1.01 1.04 1.04 1.07 1.05 1.03 0.94 0.83 0.78 0.85 0.68 0.48 0.51 0.64 0.80 0.87 0.89 0.91 0.87 0.81 0.82 0.85 0.91 0.97 1.05 1.17 1.27 1.47 1.78 2.37
0.85 0.85 0.93 1.07 1.15 1.16 1.13 1.05 1.04 1.08 1.18 1.26 1.23 1.21 1.15 1.14 1.15 1.09 1.09 1.04 0.93 0.82 0.79 0.80 0.64 0.58 0.66 0.78 0.90 0.97 0.94 0.93 0.95 0.97 0.92 0.94 1.00 1.05 1.12 1.20 1.33 1.56 1.81
0.87 0.88 0.89 0.97 1.09 1.20 1.28 1.28 1.29 1.24 1.24 1.28 1.31 1.32 1.30 1.30 1.26 1.20 1.19 1.14 1.09 1.07 1.00 1.00 0.90 0.77 0.75 0.79 0.97 1.12 1.12 1.01 1.02 1.02 1.02 1.00 1.05 1.10 1.12 1.08 1.06 1.23 1.47
0.88 0.88 0.89 0.88 0.96 1.22 1.57 1.56 1.48 1.41 1.29 1.20 1.15 1.15 1.22 1.37 1.43 1.49 1.52 1.41 1.36 1.44 1.40 1.33 1.17 1.03 0.93 0.96 1.07 1.13 1.28 1.23 1.15 1.10 1.10 1.00 1.02 1.01 1.00 1.00 1.02 1.12 1.32
0.98 0.94 0.91 0.88 0.90 1.11 1.54 1.60 1.33 1.13 1.01 1.00 0.99 0.93 0.94 1.14 1.24 1.36 1.50 1.51 1.55 1.69 1.76 1.67 1.44 1.23 1.01 0.96 1.04 1.23 1.42 1.58 1.51 1.19 1.19 1.19 1.13 1.14 1.03 0.94 0.98 1.04 1.20
1.01 0.99 0.92 0.86 0.82 0.89 1.28 1.40 1.20 0.93 0.81 0.77 0.80 0.80 0.81 0.88 1.02 1.02 1.17 1.26 1.34 1.50 1.70 1.78 1.73 1.34 1.08 0.96 1.16 1.37 1.45 1.58 1.49 1.31 1.39 1.56 1.38 1.27 1.11 1.04 1.03 0.96 1.05
1.07 1.02 0.95 0.88 0.84 0.79 1.12 1.32 1.19 0.87 0.74 0.67 0.67 0.66 0.66 0.71 0.85 1.01 1.12 1.14 1.10 1.20 1.46 1.65 1.79 1.59 1.35 1.25 1.41 1.70 1.87 1.92 1.77 1.59 1.54 1.81 1.62 1.42 1.29 1.16 1.06 0.95 0.97
1.01 1.00 0.95 0.86 0.84 0.82 1.02 1.35 1.32 0.95 0.78 0.67 0.65 0.65 0.60 0.59 0.83 1.04 1.07 1.04 0.96 0.99 1.17 1.45 1.66 1.73 1.75 1.81 1.91 2.20 2.40 2.38 2.26 1.95 1.72 1.82 1.84 1.71 1.56 1.42 1.22 1.03 0.93
0.95 0.96 0.97 0.90 0.85 0.81 0.95 1.33 1.51 1.08 0.87 0.75 0.69 0.66 0.74 0.76 0.92 0.99 0.94 1.00 1.05 0.95 0.93 1.02 1.14 1.25 1.33 1.45 1.73 1.97 2.17 2.28 2.29 2.28 1.89 1.78 1.93 1.98 2.14 1.78 1.37 1.03 0.89

GEFSMA_prec_meanprecacc_222.txt.gz
Total_Precipitation_Accumulation
0.68 0.65 0.62 0.58 0.55 0.52 0.50 0.45 0.41 0.36 0.33 0.33 0.31 0.28 0.27 0.25 0.25 0.23 0.19 0.19 0.19 0.23 0.35 0.56 0.81 1.04 1.23 1.40 1.50 1.40 1.35 1.21 0.95 0.80 0.76 0.84 0.89 0.95 0.96 1.02 1.02 0.91 0.88
0.66 0.67 0.65 0.63 0.58 0.52 0.50 0.48 0.43 0.37 0.32 0.30 0.27 0.26 0.25 0.25 0.25 0.26 0.24 0.25 0.23 0.23 0.30 0.43 0.62 0.92 1.17 1.33 1.52 1.64 1.51 1.48 1.32 1.04 0.87 0.83 0.86 0.90 0.94 1.00 1.07 1.04 0.95
0.61 0.67 0.69 0.66 0.61 0.56 0.52 0.51 0.50 0.48 0.42 0.36 0.30 0.26 0.23 0.22 0.22 0.22 0.24 0.27 0.28 0.27 0.28 0.36 0.46 0.69 1.00 1.25 1.43 1.67 1.72 1.59 1.60 1.47 1.21 0.99 0.92 0.91 0.95 1.00 1.06 1.13 1.08
0.66 0.69 0.72 0.70 0.65 0.62 0.59 0.55 0.52 0.50 0.46 0.42 0.37 0.33 0.29 0.24 0.21 0.18 0.18 0.22 0.29 0.31 0.31 0.32 0.38 0.51 0.79 1.11 1.40 1.63 2.01 1.89 1.77 1.81 1.74 1.41 1.12 1.02 1.03 1.07 1.11 1.18 1.20
0.69 0.72 0.75 0.75 0.74 0.73 0.68 0.64 0.58 0.51 0.46 0.43 0.39 0.36 0.31 0.28 0.25 0.23 0.20 0.18 0.21 0.28 0.34 0.35 0.38 0.41 0.56 0.87 1.20 1.51 1.98 2.31 2.11 2.00 2.07 1.98 1.62 1.31 1.19 1.20 1.25 1.28 1.33
0.71 0.69 0.72 0.75 0.78 0.76 0.71 0.66 0.62 0.54 0.48 0.45 0.43 0.40 0.33 0.28 0.26 0.23 0.21 0.20 0.19 0.21 0.30 0.38 0.41 0.38 0.40 0.56 0.85 1.27 1.69 2.15 2.40 2.29 2.22 2.26 2.14 1.83 1.55 1.41 1.40 1.47 1.51
0.80 0.76 0.73 0.73 0.76 0.76 0.69 0.62 0.61 0.61 0.58 0.55 0.58 0.54 0.46 0.37 0.31 0.27 0.24 0.21 0.18 0.18 0.22 0.33 0.42 0.40 0.36 0.40 0.51 0.77 1.25 1.83 2.30 2.51 2.50 2.43 2.42 2.25 1.96 1.72 1.57 1.62 1.71
0.85 0.82 0.75 0.74 0.74 0.74 0.71 0.64 0.61 0.61 0.60 0.60 0.63 0.66 0.59 0.53 0.43 0.33 0.29 0.26 0.22 0.20 0.23 0.27 0.37 0.43 0.42 0.38 0.35 0.46 0.73 1.28 1.92 2.42 2.66 2.71 2.67 2.62 2.36 2.05 1.82 1.78 1.87
0.84 0.88 0.82 0.75 0.75 0.76 0.73 0.66 0.60 0.59 0.60 0.56 0.55 0.74 0.77 0.56 0.38 0.30 0.28 0.27 0.26 0.25 0.24 0.27 0.33 0.40 0.46 0.46 0.42 0.43 0.51 0.81 1.38 2.06 2.55 2.80 2.88 2.99 2.87 2.46 2.15 1.99 2.01
0.83 0.82 0.85 0.83 0.78 0.76 0.73 0.69 0.64 0.60 0.63 0.63 0.58 0.57 0.63 0.62 0.60 0.42 0.27 0.26 0.28 0.30 0.29 0.28 0.31 0.36 0.43 0.49 0.52 0.55 0.55 0.62 0.98 1.50 2.14 2.71 3.05 3.30 3.46 3.05 2.57 2.32 2.26
0.82 0.82 0.81 0.84 0.83 0.77 0.73 0.72 0.73 0.71 0.70 0.69 0.64 0.57 0.53 0.49 0.51 0.60 0.42 0.29 0.31 0.31 0.33 0.35 0.35 0.38 0.41 0.48 0.54 0.58 0.66 0.67 0.86 1.19 1.64 2.33 2.93 3.47 3.95 3.77 3.06 2.56 2.36
0.85 0.81 0.80 0.79 0.80 0.78 0.71 0.68 0.71 0.75 0.75 0.71 0.66 0.61 0.62 0.61 0.52 0.57 0.53 0.37 0.35 0.33 0.35 0.39 0.44 0.45 0.44 0.48 0.52 0.63 0.69 0.74 0.82 1.01 1.26 1.74 2.38 2.97 3.74 4.07 3.55 2.88 2.44
0.92 0.84 0.80 0.77 0.76 0.76 0.75 0.72 0.73 0.72 0.73 0.76 0.74 0.66 0.61 0.57 0.55 0.61 0.66 0.55 0.49 0.41 0.40 0.42 0.43 0.49 0.54 0.55 0.55 0.61 0.64 0.71 0.82 0.94 1.05 1.23 1.65 2.34 3.13 3.96 4.18 3.51 2.90
0.85 0.86 0.86 0.81 0.73 0.71 0.74 0.79 0.78 0.75 0.75 0.77 0.75 0.71 0.67 0.57 0.59 0.67 0.76 0.85 0.80 0.56 0.47 0.43 0.41 0.45 0.52 0.60 0.62 0.65 0.60 0.70 0.79 0.88 0.97 1.06 1.20 1.62 2.39 3.32 4.25 4.31 3.60
0.85 0.92 0.92 0.91 0.85 0.79 0.75 0.77 0.79 0.78 0.82 0.81 0.79 0.77 0.78 0.69 0.65 0.67 0.71 0.87 1.11 0.95 0.58 0.43 0.42 0.45 0.51 0.59 0.67 0.66 0.64 0.69 0.76 0.87 0.98 1.05 1.11 1.30 1.63 2.24 3.15 4.11 4.28
0.83 0.95 0.99 0.94 0.94 0.91 0.86 0.81 0.79 0.77 0.83 0.85 0.86 0.87 0.85 0.83 0.82 0.76 0.76 0.81 0.95 1.06 0.79 0.41 0.38 0.42 0.55 0.65 0.76 0.75 0.76 0.82 0.81 0.88 0.95 1.01 1.03 1.13 1.29 1.61 2.20 3.09 3.94
0.78 0.87 0.98 1.00 0.99 0.98 0.95 0.93 0.89 0.88 0.88 0.88 0.92 0.98 0.96 0.94 1.00 0.95 0.89 0.85 0.86 0.95 0.94 0.49 0.38 0.42 0.61 0.80 0.85 0.86 0.90 0.86 0.79 0.82 0.87 0.93 0.99 1.06 1.19 1.37 1.71 2.29 3.10
0.80 0.83 0.92 1.05 1.08 1.06 1.02 1.01 0.99 1.03 1.09 1.05 0.99 1.01 1.04 1.05 1.08 1.07 1.05 0.96 0.85 0.80 0.87 0.71 0.50 0.52 0.65 0.81 0.87 0.90 0.96 0.93 0.85 0.87 0.90 0.95 1.01 1.09 1.21 1.31 1.51 1.83 2.42
0.85 0.85 0.93 1.07 1.15 1.16 1.13 1.05 1.04 1.08 1.18 1.26 1.23 1.21 1.15 1.14 1.16 1.11 1.11 1.07 0.96 0.85 0.81 0.82 0.66 0.59 0.67 0.79 0.92 0.99 1.01 1.00 0.99 1.02 0.96 0.99 1.06 1.10 1.17 1.26 1.38 1.62 1.88
0.87 0.88 0.89 0.97 1.09 1.20 1.28 1.28 1.29 1.24 1.24 1.29 1.31 1.33 1.30 1.31 1.27 1.22 1.21 1.17 1.12 1.11 1.05 1.03 0.92 0.78 0.76 0.81 0.98 1.15 1.21 1.07 1.05 1.06 1.06 1.04 1.11 1.16 1.18 1.13 1.11 1.31 1.56
0.88 0.88 0.89 0.88 0.96 1.22 1.57 1.56 1.48 1.42 1.29 1.20 1.15 1.15 1.23 1.38 1.44 1.51 1.55 1.44 1.39 1.47 1.43 1.36 1.19 1.04 0.94 0.99 1.09 1.18 1.36 1.28 1.20 1.14 1.13 1.05 1.07 1.07 1.05 1.05 1.07 1.19 1.41
0.98 0.94 0.91 0.88 0.90 1.11 1.54 1.60 1.34 1.13 1.01 1.00 0.99 0.93 0.95 1.15 1.25 1.38 1.52 1.54 1.59 1.73 1.79 1.71 1.48 1.25 1.03 0.98 1.07 1.28 1.47 1.63 1.56 1.23 1.22 1.22 1.18 1.18 1.07 0.99 1.04 1.10 1.26
1.01 0.99 0.92 0.86 0.82 0.89 1.28 1.40 1.20 0.94 0.81 0.78 0.80 0.81 0.81 0.89 1.03 1.04 1.19 1.29 1.37 1.53 1.73 1.80 1.75 1.36 1.10 1.00 1.21 1.42 1.50 1.62 1.53 1.35 1.41 1.59 1.41 1.30 1.15 1.08 1.08 1.01 1.11
1.07 1.02 0.95 0.88 0.84 0.79 1.13 1.33 1.20 0.87 0.74 0.67 0.67 0.66 0.66 0.71 0.86 1.03 1.14 1.16 1.13 1.23 1.49 1.67 1.80 1.61 1.38 1.29 1.48 1.76 1.92 1.97 1.81 1.62 1.58 1.86 1.65 1.45 1.32 1.21 1.11 0.99 1.01
1.01 1.00 0.95 0.87 0.84 0.82 1.02 1.35 1.33 0.95 0.78 0.67 0.65 0.65 0.61 0.60 0.84 1.07 1.10 1.07 0.98 1.02 1.19 1.47 1.68 1.76 1.78 1.86 1.98 2.27 2.46 2.44 2.31 1.99 1.75 1.87 1.88 1.75 1.60 1.47 1.27 1.07 0.97
0.95 0.96 0.97 0.90 0.85 0.81 0.95 1.34 1.52 1.08 0.88 0.76 0.69 0.67 0.74 0.77 0.93 1.01 0.97 1.03 1.07 0.98 0.96 1.05 1.16 1.27 1.35 1.49 1.78 2.03 2.24 2.35 2.35 2.32 1.92 1.82 1.97 2.02 2.20 1.83 1.41 1.07 0.93

GEFSMA_prec_meanprecacc_228.txt.gz
Total_Precipitation_Accumulation
0.70 0.66 0.63 0.59 0.55 0.53 0.50 0.46 0.41 0.36 0.33 0.33 0.31 0.28 0.27 0.26 0.26 0.23 0.20 0.20 0.19 0.23 0.36 0.57 0.83 1.07 1.26 1.43 1.53 1.42 1.36 1.22 0.96 0.80 0.77 0.85 0.90 0.96 0.97 1.03 1.03 0.92 0.89
0.67 0.68 0.66 0.64 0.58 0.52 0.50 0.48 0.43 0.38 0.32 0.30 0.28 0.26 0.26 0.25 0.26 0.26 0.25 0.25 0.24 0.23 0.30 0.44 0.63 0.94 1.20 1.37 1.55 1.67 1.53 1.49 1.33 1.04 0.87 0.84 0.87 0.92 0.95 1.02 1.08 1.06 0.97
0.62 0.67 0.69 0.66 0.62 0.56 0.52 0.51 0.50 0.48 0.43 0.36 0.30 0.26 0.23 0.22 0.22 0.22 0.24 0.28 0.29 0.28 0.29 0.37 0.47 0.69 1.02 1.29 1.47 1.71 1.75 1.61 1.62 1.49 1.22 1.00 0.94 0.93 0.97 1.02 1.08 1.15 1.10
0.66 0.69 0.73 0.70 0.65 0.62 0.59 0.55 0.52 0.50 0.47 0.42 0.37 0.33 0.29 0.25 0.21 0.19 0.18 0.22 0.29 0.32 0.31 0.33 0.39 0.51 0.80 1.13 1.43 1.66 2.05 1.93 1.80 1.84 1.78 1.44 1.15 1.06 1.06 1.10 1.14 1.20 1.22
0.69 0.72 0.75 0.75 0.74 0.73 0.68 0.64 0.58 0.51 0.46 0.43 0.40 0.36 0.32 0.29 0.26 0.24 0.21 0.19 0.22 0.29 0.34 0.36 0.39 0.41 0.57 0.89 1.22 1.54 2.03 2.37 2.19 2.10 2.16 2.05 1.67 1.36 1.24 1.25 1.28 1.31 1.36
0.72 0.69 0.72 0.75 0.78 0.77 0.71 0.66 0.63 0.55 0.48 0.45 0.43 0.40 0.34 0.29 0.26 0.24 0.22 0.20 0.19 0.22 0.32 0.39 0.42 0.39 0.41 0.57 0.87 1.30 1.73 2.20 2.44 2.35 2.31 2.35 2.20 1.88 1.62 1.49 1.46 1.52 1.56
0.80 0.76 0.73 0.73 0.76 0.77 0.69 0.62 0.61 0.61 0.58 0.55 0.59 0.54 0.46 0.37 0.31 0.27 0.24 0.21 0.18 0.18 0.22 0.34 0.43 0.42 0.37 0.41 0.52 0.79 1.27 1.87 2.36 2.57 2.55 2.49 2.48 2.29 2.01 1.80 1.65 1.69 1.77
0.85 0.82 0.75 0.74 0.75 0.74 0.71 0.64 0.61 0.62 0.60 0.61 0.64 0.67 0.59 0.53 0.43 0.33 0.29 0.26 0.22 0.21 0.23 0.27 0.37 0.44 0.43 0.39 0.36 0.47 0.74 1.29 1.95 2.47 2.71 2.75 2.72 2.67 2.41 2.13 1.91 1.86 1.95
0.84 0.88 0.82 0.75 0.75 0.76 0.73 0.66 0.60 0.59 0.60 0.56 0.56 0.74 0.78 0.57 0.38 0.30 0.28 0.28 0.26 0.25 0.25 0.27 0.33 0.40 0.46 0.46 0.42 0.44 0.51 0.82 1.40 2.09 2.60 2.85 2.93 3.03 2.92 2.53 2.25 2.10 2.10
0.83 0.82 0.85 0.83 0.78 0.76 0.73 0.69 0.64 0.60 0.63 0.63 0.58 0.58 0.63 0.62 0.60 0.42 0.27 0.26 0.29 0.30 0.29 0.28 0.31 0.36 0.43 0.49 0.52 0.55 0.55 0.63 0.99 1.52 2.18 2.76 3.11 3.36 3.53 3.13 2.66 2.44 2.36
0.82 0.82 0.81 0.84 0.83 0.77 0.73 0.72 0.73 0.71 0.70 0.69 0.64 0.57 0.54 0.50 0.51 0.61 0.42 0.29 0.31 0.31 0.33 0.35 0.35 0.38 0.41 0.48 0.54 0.58 0.66 0.67 0.87 1.21 1.67 2.36 2.98 3.54 4.03 3.87 3.15 2.65 2.46
0.85 0.81 0.80 0.79 0.80 0.78 0.71 0.68 0.71 0.75 0.75 0.71 0.66 0.61 0.62 0.61 0.52 0.58 0.53 0.37 0.35 0.33 0.35 0.40 0.44 0.45 0.45 0.49 0.53 0.64 0.69 0.74 0.83 1.02 1.28 1.76 2.41 3.01 3.81 4.17 3.65 2.98 2.55
0.92 0.84 0.80 0.77 0.76 0.76 0.75 0.72 0.73 0.72 0.73 0.76 0.75 0.66 0.61 0.57 0.55 0.61 0.67 0.56 0.49 0.41 0.40 0.42 0.43 0.50 0.55 0.55 0.56 0.62 0.64 0.72 0.82 0.95 1.06 1.25 1.67 2.36 3.17 4.03 4.27 3.60 3.01
0.85 0.86 0.86 0.81 0.73 0.71 0.74 0.79 0.78 0.75 0.75 0.77 0.75 0.72 0.67 0.57 0.59 0.67 0.76 0.85 0.81 0.57 0.48 0.44 0.41 0.45 0.53 0.61 0.63 0.66 0.61 0.71 0.79 0.89 0.98 1.07 1.21 1.64 2.43 3.38 4.31 4.36 3.68
0.86 0.92 0.92 0.91 0.85 0.79 0.75 0.77 0.79 0.78 0.82 0.81 0.80 0.78 0.78 0.70 0.66 0.67 0.71 0.87 1.12 0.97 0.58 0.43 0.42 0.45 0.52 0.60 0.69 0.68 0.65 0.70 0.77 0.88 1.00 1.06 1.12 1.31 1.69 2.32 3.21 4.16 4.34
0.84 0.96 0.99 0.94 0.94 0.91 0.86 0.81 0.79 0.77 0.83 0.85 0.86 0.87 0.85 0.83 0.82 0.76 0.76 0.81 0.96 1.08 0.80 0.41 0.39 0.43 0.55 0.66 0.77 0.76 0.76 0.83 0.82 0.89 0.97 1.02 1.05 1.15 1.35 1.71 2.27 3.14 3.99
0.78 0.87 0.98 1.00 0.99 0.99 0.95 0.93 0.89 0.88 0.88 0.88 0.92 0.98 0.96 0.94 1.00 0.96 0.89 0.86 0.86 0.96 0.96 0.50 0.38 0.42 0.61 0.81 0.86 0.87 0.91 0.86 0.80 0.83 0.89 0.95 1.00 1.08 1.25 1.47 1.79 2.33 3.15
0.80 0.83 0.92 1.05 1.08 1.06 1.02 1.01 0.99 1.03 1.09 1.05 0.99 1.01 1.04 1.05 1.09 1.07 1.05 0.96 0.85 0.80 0.88 0.72 0.50 0.53 0.65 0.82 0.88 0.91 0.97 0.95 0.87 0.89 0.92 0.97 1.03 1.12 1.27 1.41 1.60 1.89 2.47
0.85 0.85 0.93 1.07 1.15 1.16 1.13 1.05 1.04 1.08 1.18 1.26 1.23 1.21 1.15 1.15 1.16 1.11 1.12 1.07 0.96 0.86 0.83 0.84 0.67 0.61 0.69 0.80 0.92 1.00 1.03 1.03 1.02 1.05 0.99 1.01 1.09 1.15 1.24 1.34 1.45 1.66 1.91
0.87 0.88 0.89 0.97 1.09 1.20 1.28 1.28 1.29 1.24 1.25 1.29 1.31 1.33 1.30 1.31 1.27 1.23 1.22 1.17 1.13 1.12 1.06 1.05 0.93 0.80 0.78 0.82 0.99 1.17 1.24 1.11 1.09 1.09 1.08 1.07 1.14 1.19 1.24 1.19 1.15 1.33 1.58
0.88 0.88 0.89 0.88 0.96 1.22 1.58 1.56 1.48 1.42 1.29 1.20 1.15 1.16 1.23 1.38 1.44 1.51 1.55 1.45 1.41 1.49 1.45 1.38 1.21 1.05 0.96 1.01 1.11 1.20 1.40 1.33 1.22 1.16 1.16 1.09 1.10 1.10 1.10 1.08 1.10 1.22 1.44
0.98 0.94 0.91 0.88 0.90 1.11 1.54 1.61 1.34 1.14 1.01 1.00 0.99 0.93 0.95 1.15 1.25 1.38 1.52 1.55 1.61 1.75 1.81 1.74 1.50 1.28 1.04 1.00 1.11 1.32 1.52 1.68 1.60 1.25 1.26 1.26 1.20 1.22 1.10 1.01 1.07 1.13 1.30
1.01 1.00 0.92 0.87 0.82 0.89 1.28 1.40 1.21 0.94 0.81 0.78 0.80 0.81 0.81 0.89 1.03 1.04 1.20 1.30 1.38 1.54 1.74 1.83 1.78 1.39 1.13 1.03 1.27 1.47 1.54 1.66 1.57 1.38 1.45 1.62 1.44 1.32 1.17 1.11 1.12 1.05 1.14
1.07 1.02 0.95 0.88 0.84 0.79 1.13 1.33 1.20 0.88 0.74 0.67 0.67 0.66 0.66 0.72 0.86 1.03 1.15 1.18 1.13 1.23 1.50 1.68 1.82 1.63 1.41 1.34 1.55 1.83 1.98 2.02 1.84 1.65 1.60 1.89 1.68 1.48 1.35 1.23 1.15 1.02 1.04
1.01 1.00 0.95 0.87 0.84 0.82 1.02 1.36 1.34 0.96 0.79 0.67 0.65 0.65 0.61 0.60 0.85 1.08 1.11 1.08 0.99 1.02 1.20 1.48 1.69 1.78 1.82 1.91 2.04 2.33 2.52 2.50 2.35 2.02 1.78 1.90 1.90 1.78 1.63 1.50 1.31 1.11 1.00
0.95 0.96 0.97 0.90 0.85 0.81 0.95 1.34 1.53 1.09 0.88 0.76 0.69 0.67 0.74 0.78 0.95 1.02 0.98 1.05 1.09 0.99 0.97 1.06 1.17 1.29 1.38 1.53 1.83 2.08 2.29 2.42 2.40 2.36 1.95 1.86 2.00 2.05 2.23 1.87 1.45 1.10 0.96

GEFSMA_prec_meanprecacc_234.txt.gz
Total_Precipitation_Accumulation
0.74 0.69 0.65 0.61 0.57 0.55 0.52 0.48 0.43 0.39 0.34 0.33 0.32 0.29 0.28 0.26 0.26 0.24 0.20 0.20 0.20 0.24 0.37 0.58 0.84 1.08 1.27 1.44 1.54 1.44 1.39 1.24 0.98 0.82 0.79 0.87 0.91 0.97 0.98 1.04 1.04 0.93 0.91
0.72 0.71 0.68 0.67 0.60 0.54 0.52 0.50 0.45 0.41 0.35 0.32 0.28 0.26 0.26 0.25 0.26 0.26 0.25 0.26 0.24 0.23 0.30 0.44 0.64 0.95 1.20 1.37 1.56 1.68 1.55 1.51 1.36 1.07 0.90 0.86 0.89 0.94 0.97 1.03 1.09 1.08 0.99
0.67 0.71 0.72 0.68 0.63 0.56 0.53 0.51 0.51 0.50 0.45 0.38 0.32 0.27 0.24 0.23 0.22 0.22 0.24 0.28 0.29 0.28 0.29 0.37 0.47 0.70 1.02 1.29 1.48 1.72 1.77 1.63 1.64 1.51 1.24 1.03 0.96 0.95 0.99 1.04 1.10 1.17 1.12
0.70 0.72 0.74 0.71 0.65 0.62 0.59 0.55 0.52 0.51 0.48 0.43 0.38 0.35 0.30 0.26 0.21 0.19 0.19 0.22 0.29 0.32 0.31 0.33 0.39 0.51 0.80 1.13 1.44 1.68 2.07 1.94 1.82 1.87 1.80 1.47 1.18 1.08 1.09 1.13 1.17 1.22 1.25
0.70 0.73 0.76 0.75 0.74 0.73 0.68 0.64 0.58 0.51 0.47 0.43 0.40 0.37 0.33 0.30 0.27 0.25 0.21 0.19 0.22 0.29 0.35 0.36 0.39 0.41 0.57 0.89 1.23 1.56 2.05 2.39 2.21 2.12 2.18 2.07 1.70 1.39 1.28 1.29 1.33 1.35 1.39
0.72 0.70 0.72 0.75 0.78 0.77 0.71 0.66 0.63 0.55 0.48 0.45 0.43 0.40 0.34 0.29 0.26 0.24 0.22 0.21 0.20 0.22 0.32 0.39 0.42 0.39 0.42 0.57 0.87 1.30 1.75 2.23 2.49 2.38 2.34 2.38 2.24 1.93 1.68 1.55 1.52 1.57 1.59
0.80 0.76 0.73 0.73 0.76 0.77 0.69 0.62 0.61 0.61 0.58 0.55 0.59 0.54 0.46 0.37 0.31 0.27 0.24 0.21 0.19 0.18 0.22 0.34 0.43 0.42 0.38 0.41 0.53 0.79 1.27 1.89 2.42 2.66 2.64 2.55 2.52 2.34 2.06 1.84 1.69 1.72 1.80
0.85 0.83 0.75 0.75 0.75 0.74 0.71 0.65 0.61 0.62 0.61 0.61 0.64 0.67 0.59 0.53 0.43 0.33 0.29 0.26 0.22 0.21 0.23 0.27 0.37 0.44 0.43 0.39 0.36 0.47 0.74 1.30 1.97 2.52 2.81 2.86 2.82 2.75 2.49 2.20 1.97 1.92 2.00
0.85 0.88 0.82 0.75 0.75 0.76 0.73 0.66 0.60 0.60 0.60 0.56 0.56 0.75 0.78 0.57 0.38 0.30 0.28 0.28 0.26 0.25 0.25 0.27 0.33 0.40 0.46 0.46 0.43 0.44 0.51 0.82 1.41 2.11 2.64 2.91 3.02 3.15 3.05 2.66 2.37 2.19 2.18
0.83 0.82 0.85 0.83 0.78 0.76 0.73 0.69 0.64 0.60 0.63 0.63 0.58 0.58 0.63 0.62 0.61 0.42 0.27 0.26 0.29 0.30 0.29 0.28 0.31 0.36 0.43 0.50 0.52 0.55 0.56 0.63 0.99 1.53 2.20 2.79 3.16 3.44 3.62 3.24 2.77 2.55 2.46
0.82 0.83 0.81 0.84 0.83 0.77 0.73 0.72 0.73 0.71 0.70 0.69 0.64 0.57 0.54 0.50 0.51 0.61 0.42 0.29 0.31 0.31 0.33 0.35 0.35 0.38 0.42 0.49 0.54 0.58 0.66 0.67 0.87 1.22 1.69 2.39 3.01 3.59 4.09 3.95 3.24 2.75 2.56
0.86 0.81 0.81 0.80 0.81 0.78 0.71 0.68 0.71 0.75 0.75 0.71 0.66 0.61 0.62 0.61 0.53 0.58 0.53 0.37 0.35 0.33 0.35 0.40 0.44 0.45 0.45 0.49 0.53 0.64 0.70 0.74 0.83 1.03 1.29 1.78 2.43 3.04 3.85 4.21 3.71 3.05 2.64
0.92 0.85 0.80 0.77 0.76 0.76 0.75 0.72 0.73 0.72 0.73 0.76 0.75 0.67 0.61 0.57 0.55 0.62 0.67 0.56 0.49 0.41 0.40 0.42 0.44 0.50 0.55 0.56 0.56 0.62 0.64 0.72 0.83 0.95 1.08 1.26 1.69 2.39 3.20 4.07 4.31 3.66 3.07
0.86 0.86 0.87 0.81 0.73 0.71 0.74 0.79 0.78 0.76 0.75 0.77 0.75 0.72 0.67 0.57 0.59 0.67 0.76 0.86 0.81 0.57 0.48 0.44 0.41 0.45 0.53 0.61 0.63 0.66 0.61 0.71 0.80 0.90 0.99 1.09 1.23 1.66 2.46 3.41 4.35 4.41 3.73
0.86 0.92 0.93 0.92 0.85 0.79 0.75 0.77 0.79 0.78 0.82 0.81 0.80 0.78 0.78 0.70 0.66 0.67 0.72 0.88 1.13 0.98 0.59 0.43 0.42 0.45 0.52 0.61 0.70 0.68 0.66 0.70 0.77 0.89 1.01 1.07 1.14 1.33 1.71 2.35 3.23 4.18 4.38
0.84 0.96 1.00 0.94 0.94 0.91 0.86 0.82 0.79 0.77 0.83 0.85 0.86 0.87 0.85 0.84 0.82 0.77 0.77 0.82 0.96 1.09 0.81 0.42 0.39 0.43 0.56 0.66 0.78 0.77 0.77 0.84 0.83 0.90 0.98 1.03 1.06 1.17 1.37 1.73 2.29 3.16 4.03
0.79 0.87 0.99 1.00 0.99 0.99 0.95 0.93 0.89 0.88 0.88 0.88 0.92 0.98 0.96 0.94 1.00 0.96 0.90 0.86 0.87 0.97 0.97 0.51 0.39 0.42 0.62 0.81 0.86 0.88 0.92 0.87 0.81 0.84 0.90 0.96 1.01 1.10 1.27 1.50 1.82 2.36 3.19
0.80 0.83 0.93 1.06 1.08 1.06 1.03 1.01 0.99 1.03 1.09 1.05 0.99 1.01 1.04 1.05 1.09 1.07 1.06 0.97 0.86 0.81 0.90 0.73 0.51 0.53 0.66 0.82 0.89 0.92 0.98 0.96 0.88 0.90 0.93 0.98 1.05 1.14 1.28 1.43 1.63 1.91 2.52
0.85 0.85 0.93 1.08 1.16 1.17 1.13 1.05 1.04 1.08 1.18 1.26 1.23 1.21 1.16 1.15 1.16 1.11 1.12 1.07 0.97 0.86 0.84 0.85 0.68 0.62 0.69 0.80 0.92 1.00 1.04 1.03 1.03 1.06 1.00 1.02 1.11 1.16 1.26 1.37 1.49 1.69 1.97
0.87 0.88 0.89 0.98 1.10 1.21 1.29 1.29 1.30 1.25 1.25 1.29 1.31 1.33 1.30 1.31 1.27 1.23 1.22 1.18 1.14 1.13 1.07 1.06 0.95 0.81 0.78 0.82 1.00 1.17 1.25 1.12 1.10 1.10 1.10 1.09 1.16 1.21 1.26 1.24 1.20 1.38 1.63
0.88 0.88 0.89 0.88 0.96 1.23 1.58 1.57 1.49 1.43 1.30 1.21 1.15 1.16 1.23 1.38 1.44 1.52 1.56 1.46 1.42 1.50 1.47 1.40 1.23 1.06 0.96 1.01 1.12 1.21 1.42 1.36 1.24 1.17 1.17 1.10 1.11 1.12 1.12 1.14 1.15 1.28 1.49
0.98 0.94 0.91 0.88 0.91 1.11 1.56 1.62 1.35 1.14 1.02 1.01 1.00 0.93 0.95 1.15 1.25 1.39 1.53 1.56 1.62 1.76 1.84 1.77 1.52 1.29 1.06 1.01 1.12 1.34 1.55 1.71 1.63 1.27 1.27 1.28 1.22 1.24 1.15 1.09 1.13 1.19 1.35
1.01 1.00 0.93 0.87 0.82 0.89 1.29 1.42 1.22 0.95 0.82 0.78 0.81 0.81 0.82 0.89 1.04 1.04 1.20 1.31 1.39 1.55 1.76 1.85 1.81 1.41 1.15 1.05 1.30 1.50 1.57 1.69 1.60 1.39 1.46 1.64 1.46 1.36 1.24 1.19 1.18 1.10 1.18
1.07 1.02 0.96 0.89 0.85 0.80 1.13 1.34 1.22 0.89 0.75 0.68 0.68 0.66 0.67 0.72 0.87 1.04 1.16 1.18 1.13 1.24 1.51 1.70 1.84 1.65 1.43 1.37 1.58 1.87 2.01 2.04 1.86 1.66 1.62 1.92 1.70 1.52 1.41 1.29 1.20 1.06 1.08
1.02 1.01 0.96 0.87 0.85 0.83 1.03 1.36 1.35 0.97 0.80 0.68 0.66 0.66 0.62 0.61 0.85 1.09 1.12 1.08 0.99 1.02 1.20 1.49 1.70 1.79 1.84 1.94 2.08 2.37 2.56 2.52 2.37 2.03 1.79 1.92 1.92 1.80 1.65 1.54 1.34 1.14 1.03
0.96 0.97 0.97 0.90 0.85 0.81 0.96 1.35 1.54 1.10 0.90 0.77 0.70 0.68 0.75 0.79 0.96 1.03 0.99 1.05 1.10 1.00 0.98 1.07 1.18 1.30 1.39 1.54 1.85 2.11 2.33 2.46 2.43 2.39 1.97 1.88 2.02 2.07 2.26 1.89 1.48 1.13 0.99

GEFSMA_prec_meanprecacc_240.txt.gz
Total_Precipitation_Accumulation
0.75 0.70 0.66 0.63 0.60 0.59 0.56 0.51 0.46 0.41 0.35 0.33 0.32 0.29 0.28 0.26 0.26 0.24 0.20 0.20 0.20 0.24 0.37 0.58 0.84 1.08 1.28 1.44 1.55 1.45 1.39 1.25 0.99 0.84 0.81 0.89 0.94 1.00 1.01 1.06 1.06 0.96 0.93
0.75 0.73 0.70 0.69 0.63 0.58 0.56 0.53 0.49 0.44 0.37 0.33 0.29 0.27 0.26 0.25 0.26 0.27 0.25 0.26 0.24 0.23 0.30 0.44 0.64 0.95 1.21 1.38 1.57 1.69 1.55 1.52 1.36 1.08 0.91 0.88 0.91 0.96 0.99 1.06 1.12 1.10 1.02
0.71 0.75 0.76 0.72 0.66 0.59 0.56 0.54 0.54 0.53 0.47 0.40 0.34 0.28 0.25 0.23 0.22 0.22 0.25 0.28 0.29 0.28 0.29 0.37 0.47 0.70 1.02 1.30 1.49 1.73 1.77 1.64 1.65 1.52 1.26 1.04 0.98 0.97 1.01 1.07 1.13 1.20 1.15
0.73 0.77 0.80 0.76 0.70 0.66 0.62 0.58 0.54 0.53 0.49 0.45 0.41 0.37 0.32 0.27 0.22 0.20 0.20 0.24 0.30 0.33 0.32 0.33 0.39 0.52 0.81 1.14 1.45 1.69 2.08 1.95 1.83 1.88 1.82 1.49 1.20 1.10 1.11 1.16 1.20 1.26 1.29
0.73 0.77 0.82 0.82 0.79 0.77 0.72 0.67 0.60 0.53 0.48 0.44 0.41 0.38 0.34 0.31 0.29 0.27 0.23 0.21 0.23 0.30 0.35 0.37 0.39 0.41 0.57 0.89 1.23 1.56 2.06 2.40 2.22 2.14 2.20 2.10 1.72 1.42 1.31 1.33 1.37 1.39 1.45
0.74 0.72 0.76 0.80 0.83 0.81 0.76 0.70 0.65 0.56 0.49 0.45 0.44 0.41 0.34 0.29 0.26 0.25 0.23 0.22 0.20 0.22 0.32 0.39 0.42 0.39 0.42 0.57 0.87 1.30 1.75 2.24 2.50 2.40 2.36 2.41 2.27 1.96 1.71 1.59 1.56 1.61 1.64
0.82 0.78 0.75 0.75 0.79 0.79 0.72 0.65 0.64 0.62 0.58 0.56 0.59 0.54 0.46 0.38 0.32 0.28 0.24 0.21 0.19 0.18 0.22 0.34 0.43 0.42 0.38 0.41 0.53 0.79 1.28 1.89 2.43 2.68 2.67 2.58 2.56 2.37 2.10 1.88 1.74 1.77 1.85
0.86 0.84 0.77 0.77 0.76 0.75 0.72 0.66 0.62 0.62 0.61 0.61 0.64 0.67 0.59 0.53 0.43 0.33 0.30 0.26 0.22 0.21 0.23 0.27 0.38 0.44 0.43 0.39 0.36 0.47 0.74 1.31 1.98 2.54 2.83 2.89 2.86 2.81 2.55 2.26 2.03 1.98 2.07
0.85 0.89 0.84 0.77 0.77 0.77 0.74 0.67 0.61 0.60 0.60 0.56 0.56 0.75 0.78 0.57 0.38 0.30 0.28 0.28 0.26 0.25 0.25 0.27 0.33 0.40 0.46 0.46 0.43 0.44 0.51 0.82 1.42 2.13 2.66 2.94 3.06 3.19 3.11 2.72 2.46 2.31 2.32
0.84 0.83 0.86 0.84 0.79 0.77 0.73 0.69 0.64 0.61 0.63 0.63 0.58 0.58 0.63 0.63 0.61 0.42 0.27 0.26 0.29 0.30 0.29 0.28 0.31 0.36 0.43 0.50 0.52 0.55 0.56 0.63 1.00 1.55 2.22 2.82 3.19 3.48 3.67 3.29 2.84 2.64 2.58
0.83 0.83 0.82 0.85 0.83 0.78 0.73 0.73 0.73 0.71 0.70 0.69 0.64 0.57 0.54 0.50 0.51 0.61 0.42 0.29 0.31 0.31 0.33 0.35 0.35 0.38 0.42 0.49 0.54 0.58 0.66 0.68 0.88 1.24 1.71 2.41 3.04 3.63 4.14 4.00 3.30 2.81 2.63
0.86 0.82 0.81 0.81 0.81 0.78 0.71 0.69 0.71 0.75 0.76 0.72 0.66 0.61 0.62 0.61 0.53 0.58 0.53 0.37 0.35 0.33 0.35 0.40 0.44 0.45 0.45 0.49 0.53 0.64 0.70 0.75 0.84 1.04 1.31 1.80 2.45 3.07 3.88 4.26 3.76 3.10 2.70
0.92 0.85 0.81 0.78 0.77 0.76 0.75 0.73 0.73 0.72 0.73 0.77 0.75 0.67 0.61 0.57 0.55 0.62 0.67 0.56 0.49 0.41 0.40 0.42 0.44 0.50 0.55 0.56 0.56 0.62 0.65 0.73 0.83 0.96 1.09 1.28 1.70 2.41 3.23 4.11 4.36 3.71 3.13
0.86 0.87 0.87 0.82 0.74 0.71 0.75 0.79 0.78 0.76 0.75 0.77 0.75 0.72 0.67 0.57 0.59 0.67 0.76 0.86 0.82 0.57 0.48 0.44 0.41 0.45 0.53 0.61 0.63 0.66 0.61 0.71 0.81 0.91 1.00 1.10 1.24 1.68 2.48 3.44 4.38 4.45 3.78
0.87 0.93 0.93 0.92 0.86 0.80 0.76 0.77 0.79 0.78 0.82 0.81 0.80 0.78 0.78 0.70 0.66 0.67 0.72 0.88 1.14 0.99 0.59 0.43 0.42 0.45 0.52 0.61 0.70 0.68 0.66 0.71 0.78 0.89 1.02 1.09 1.15 1.35 1.73 2.37 3.26 4.21 4.41
0.84 0.96 1.00 0.94 0.95 0.92 0.87 0.82 0.79 0.77 0.83 0.85 0.86 0.87 0.85 0.84 0.82 0.77 0.77 0.82 0.97 1.10 0.82 0.42 0.39 0.43 0.56 0.66 0.78 0.78 0.77 0.84 0.83 0.91 0.99 1.04 1.07 1.18 1.39 1.75 2.31 3.19 4.06
0.79 0.87 0.99 1.01 0.99 0.99 0.96 0.94 0.90 0.88 0.88 0.88 0.92 0.98 0.96 0.94 1.00 0.96 0.90 0.86 0.87 0.97 0.98 0.51 0.39 0.42 0.62 0.82 0.87 0.88 0.92 0.87 0.81 0.84 0.91 0.97 1.03 1.11 1.29 1.52 1.84 2.38 3.22
0.80 0.83 0.93 1.06 1.09 1.07 1.03 1.01 1.00 1.03 1.10 1.05 0.99 1.01 1.04 1.05 1.09 1.07 1.06 0.97 0.86 0.81 0.91 0.75 0.51 0.53 0.66 0.83 0.89 0.92 0.98 0.96 0.88 0.91 0.93 0.99 1.05 1.15 1.30 1.45 1.65 1.93 2.54
0.85 0.85 0.93 1.08 1.16 1.18 1.14 1.06 1.05 1.09 1.19 1.27 1.24 1.21 1.16 1.15 1.16 1.11 1.12 1.08 0.97 0.87 0.85 0.86 0.69 0.62 0.69 0.80 0.93 1.00 1.04 1.04 1.03 1.06 1.01 1.03 1.11 1.17 1.27 1.39 1.51 1.71 1.99
0.88 0.89 0.90 0.98 1.11 1.22 1.31 1.31 1.31 1.25 1.25 1.29 1.32 1.33 1.31 1.31 1.27 1.23 1.23 1.18 1.15 1.14 1.08 1.07 0.96 0.81 0.79 0.82 1.00 1.18 1.25 1.12 1.11 1.10 1.10 1.10 1.18 1.22 1.27 1.26 1.22 1.39 1.65
0.89 0.89 0.89 0.88 0.96 1.24 1.60 1.60 1.52 1.45 1.32 1.22 1.16 1.16 1.23 1.38 1.45 1.52 1.57 1.47 1.43 1.52 1.49 1.42 1.24 1.07 0.97 1.02 1.13 1.23 1.43 1.36 1.25 1.17 1.18 1.11 1.14 1.14 1.13 1.16 1.17 1.30 1.51
0.98 0.95 0.91 0.88 0.91 1.12 1.56 1.64 1.38 1.17 1.05 1.02 1.01 0.94 0.95 1.15 1.26 1.39 1.54 1.57 1.63 1.78 1.86 1.79 1.55 1.31 1.07 1.02 1.13 1.36 1.56 1.73 1.64 1.28 1.28 1.29 1.24 1.27 1.17 1.11 1.16 1.22 1.38
1.01 1.00 0.93 0.87 0.83 0.90 1.30 1.42 1.24 0.97 0.84 0.81 0.83 0.83 0.83 0.90 1.05 1.05 1.21 1.32 1.39 1.56 1.78 1.88 1.83 1.43 1.17 1.07 1.32 1.53 1.59 1.71 1.62 1.41 1.48 1.67 1.48 1.39 1.28 1.23 1.22 1.14 1.22
1.08 1.03 0.96 0.89 0.85 0.80 1.14 1.34 1.22 0.90 0.76 0.70 0.70 0.69 0.69 0.73 0.88 1.05 1.17 1.19 1.14 1.24 1.51 1.71 1.85 1.67 1.45 1.38 1.61 1.91 2.04 2.06 1.87 1.68 1.64 1.95 1.73 1.57 1.47 1.35 1.26 1.11 1.12
1.02 1.01 0.96 0.88 0.86 0.83 1.03 1.37 1.35 0.98 0.81 0.70 0.68 0.68 0.64 0.63 0.88 1.12 1.14 1.10 1.00 1.03 1.21 1.49 1.71 1.80 1.85 1.95 2.10 2.39 2.58 2.55 2.39 2.04 1.80 1.95 1.96 1.84 1.70 1.59 1.38 1.17 1.06
0.97 0.98 0.98 0.90 0.85 0.82 0.96 1.35 1.54 1.11 0.91 0.79 0.72 0.69 0.78 0.81 0.98 1.07 1.02 1.08 1.13 1.02 0.99 1.07 1.18 1.30 1.40 1.55 1.87 2.13 2.37 2.49 2.46 2.41 1.98 1.90 2.04 2.10 2.29 1.92 1.50 1.15 1.00

GEFSMA_prec_meanprecacc_246.txt.gz
Total_Precipitation_Accumulation
0.78 0.73 0.69 0.65 0.63 0.63 0.60 0.55 0.49 0.43 0.36 0.34 0.32 0.29 0.28 0.26 0.26 0.24 0.20 0.20 0.20 0.24 0.37 0.59 0.85 1.08 1.28 1.45 1.55 1.45 1.40 1.26 1.00 0.85 0.82 0.90 0.96 1.02 1.03 1.09 1.09 0.99 0.97
0.77 0.74 0.71 0.70 0.65 0.61 0.60 0.57 0.53 0.48 0.40 0.34 0.29 0.27 0.26 0.25 0.26 0.27 0.25 0.26 0.24 0.23 0.30 0.44 0.64 0.95 1.21 1.39 1.58 1.69 1.56 1.52 1.37 1.09 0.92 0.90 0.93 0.98 1.01 1.08 1.15 1.13 1.05
0.73 0.77 0.77 0.73 0.67 0.61 0.58 0.58 0.58 0.58 0.53 0.44 0.36 0.29 0.25 0.23 0.22 0.22 0.25 0.28 0.29 0.28 0.29 0.37 0.47 0.70 1.03 1.31 1.50 1.74 1.78 1.64 1.66 1.53 1.27 1.06 0.99 0.99 1.04 1.10 1.16 1.23 1.18
0.76 0.80 0.82 0.78 0.72 0.67 0.64 0.60 0.57 0.57 0.55 0.51 0.46 0.41 0.34 0.28 0.22 0.20 0.21 0.24 0.31 0.33 0.32 0.34 0.40 0.52 0.81 1.14 1.46 1.70 2.09 1.96 1.84 1.89 1.83 1.50 1.22 1.12 1.14 1.19 1.23 1.29 1.32
0.74 0.79 0.84 0.84 0.82 0.79 0.74 0.70 0.63 0.56 0.52 0.49 0.46 0.43 0.38 0.33 0.30 0.28 0.24 0.22 0.24 0.31 0.36 0.37 0.40 0.42 0.58 0.90 1.24 1.57 2.07 2.41 2.23 2.15 2.21 2.11 1.74 1.44 1.34 1.36 1.40 1.43 1.48
0.76 0.75 0.79 0.82 0.86 0.84 0.79 0.74 0.69 0.61 0.53 0.49 0.48 0.45 0.38 0.31 0.28 0.26 0.24 0.22 0.21 0.24 0.34 0.41 0.43 0.39 0.42 0.58 0.88 1.31 1.76 2.25 2.51 2.42 2.38 2.42 2.29 1.99 1.74 1.62 1.59 1.65 1.69
0.84 0.81 0.79 0.79 0.82 0.82 0.75 0.70 0.69 0.68 0.64 0.60 0.62 0.58 0.49 0.40 0.33 0.29 0.26 0.22 0.19 0.19 0.24 0.37 0.45 0.43 0.38 0.41 0.53 0.80 1.28 1.91 2.45 2.69 2.68 2.60 2.58 2.40 2.13 1.92 1.78 1.82 1.91
0.88 0.86 0.80 0.80 0.80 0.78 0.75 0.69 0.66 0.67 0.65 0.65 0.67 0.70 0.62 0.55 0.45 0.34 0.31 0.27 0.23 0.22 0.25 0.29 0.39 0.45 0.44 0.39 0.36 0.47 0.75 1.31 1.99 2.55 2.85 2.92 2.89 2.84 2.58 2.29 2.07 2.03 2.12
0.87 0.91 0.85 0.80 0.82 0.83 0.79 0.70 0.65 0.63 0.63 0.59 0.58 0.76 0.80 0.58 0.39 0.31 0.29 0.28 0.27 0.27 0.26 0.28 0.34 0.42 0.47 0.47 0.43 0.44 0.52 0.83 1.42 2.14 2.68 2.97 3.09 3.23 3.14 2.76 2.49 2.35 2.37
0.85 0.84 0.87 0.86 0.81 0.80 0.77 0.72 0.66 0.62 0.65 0.65 0.60 0.58 0.64 0.63 0.61 0.43 0.27 0.26 0.29 0.31 0.30 0.29 0.32 0.38 0.45 0.51 0.53 0.55 0.56 0.64 1.01 1.56 2.24 2.84 3.22 3.51 3.71 3.33 2.88 2.68 2.62
0.84 0.85 0.83 0.85 0.84 0.79 0.74 0.74 0.74 0.72 0.71 0.70 0.64 0.57 0.54 0.50 0.52 0.61 0.42 0.29 0.31 0.31 0.33 0.35 0.35 0.38 0.42 0.49 0.55 0.59 0.67 0.68 0.89 1.25 1.72 2.43 3.06 3.65 4.17 4.03 3.33 2.85 2.68
0.88 0.83 0.83 0.82 0.82 0.79 0.71 0.69 0.72 0.75 0.76 0.72 0.66 0.61 0.62 0.61 0.53 0.58 0.54 0.37 0.35 0.33 0.35 0.40 0.44 0.45 0.45 0.49 0.53 0.64 0.70 0.75 0.85 1.05 1.32 1.81 2.47 3.09 3.90 4.28 3.78 3.13 2.73
0.94 0.86 0.82 0.79 0.77 0.77 0.76 0.73 0.74 0.72 0.73 0.77 0.75 0.67 0.61 0.57 0.55 0.62 0.67 0.56 0.49 0.41 0.40 0.42 0.44 0.50 0.55 0.56 0.56 0.62 0.65 0.73 0.84 0.97 1.09 1.28 1.72 2.42 3.24 4.13 4.38 3.74 3.16
0.88 0.88 0.89 0.83 0.75 0.72 0.76 0.80 0.79 0.76 0.75 0.78 0.75 0.72 0.67 0.57 0.59 0.67 0.77 0.87 0.82 0.57 0.48 0.44 0.41 0.45 0.53 0.61 0.63 0.66 0.61 0.72 0.81 0.91 1.01 1.11 1.25 1.69 2.49 3.46 4.40 4.47 3.81
0.88 0.94 0.95 0.93 0.87 0.81 0.77 0.78 0.80 0.79 0.82 0.81 0.80 0.78 0.78 0.70 0.66 0.67 0.72 0.88 1.15 1.00 0.59 0.43 0.42 0.45 0.52 0.61 0.70 0.68 0.66 0.71 0.78 0.90 1.02 1.09 1.16 1.36 1.74 2.38 3.27 4.23 4.43
0.85 0.97 1.01 0.97 0.97 0.94 0.89 0.84 0.81 0.79 0.84 0.86 0.87 0.87 0.85 0.84 0.82 0.77 0.77 0.82 0.97 1.11 0.83 0.42 0.39 0.43 0.56 0.66 0.78 0.78 0.77 0.84 0.83 0.91 0.99 1.05 1.08 1.19 1.40 1.77 2.33 3.21 4.08
0.79 0.88 0.99 1.02 1.01 1.00 0.97 0.96 0.92 0.90 0.90 0.90 0.94 0.99 0.97 0.95 1.00 0.96 0.90 0.86 0.87 0.98 0.99 0.52 0.39 0.42 0.62 0.82 0.87 0.88 0.92 0.87 0.81 0.85 0.91 0.97 1.03 1.12 1.30 1.53 1.85 2.40 3.24
0.81 0.84 0.94 1.07 1.10 1.08 1.04 1.02 1.01 1.05 1.11 1.07 1.01 1.03 1.06 1.06 1.09 1.07 1.06 0.97 0.86 0.82 0.92 0.75 0.51 0.53 0.66 0.83 0.89 0.92 0.99 0.96 0.88 0.91 0.94 0.99 1.06 1.16 1.31 1.46 1.66 1.95 2.56
0.85 0.85 0.94 1.09 1.16 1.18 1.15 1.07 1.06 1.10 1.20 1.29 1.26 1.23 1.17 1.16 1.17 1.12 1.12 1.08 0.97 0.87 0.85 0.87 0.70 0.62 0.70 0.80 0.93 1.00 1.04 1.04 1.04 1.06 1.01 1.03 1.12 1.18 1.28 1.40 1.52 1.73 2.00
0.88 0.89 0.90 0.99 1.11 1.22 1.31 1.31 1.32 1.26 1.26 1.30 1.33 1.35 1.32 1.33 1.29 1.24 1.24 1.19 1.15 1.15 1.09 1.08 0.96 0.81 0.79 0.83 1.00 1.18 1.26 1.13 1.11 1.10 1.10 1.11 1.18 1.23 1.28 1.26 1.23 1.41 1.67
0.89 0.89 0.90 0.89 0.97 1.24 1.60 1.60 1.53 1.46 1.33 1.23 1.16 1.17 1.24 1.40 1.46 1.54 1.58 1.47 1.44 1.53 1.50 1.43 1.25 1.08 0.97 1.02 1.13 1.23 1.43 1.37 1.26 1.18 1.18 1.11 1.14 1.14 1.14 1.16 1.18 1.32 1.53
1.00 0.95 0.92 0.88 0.92 1.12 1.57 1.65 1.38 1.18 1.06 1.04 1.02 0.95 0.96 1.16 1.27 1.41 1.56 1.58 1.65 1.80 1.88 1.81 1.56 1.32 1.08 1.03 1.15 1.37 1.57 1.74 1.65 1.29 1.29 1.30 1.25 1.28 1.18 1.12 1.17 1.24 1.40
1.04 1.01 0.94 0.88 0.83 0.90 1.30 1.43 1.24 0.98 0.84 0.81 0.84 0.84 0.84 0.91 1.06 1.05 1.22 1.33 1.41 1.58 1.79 1.90 1.86 1.45 1.19 1.09 1.35 1.55 1.61 1.73 1.64 1.42 1.49 1.68 1.49 1.41 1.29 1.25 1.24 1.16 1.25
1.10 1.05 0.97 0.90 0.86 0.81 1.15 1.35 1.23 0.90 0.77 0.70 0.70 0.69 0.70 0.74 0.89 1.06 1.19 1.20 1.15 1.25 1.53 1.73 1.87 1.69 1.47 1.40 1.64 1.93 2.06 2.07 1.89 1.69 1.65 1.97 1.75 1.59 1.49 1.39 1.30 1.15 1.16
1.04 1.03 0.98 0.89 0.86 0.84 1.04 1.37 1.36 0.98 0.81 0.70 0.68 0.68 0.64 0.64 0.89 1.14 1.16 1.12 1.02 1.05 1.23 1.51 1.73 1.82 1.86 1.97 2.12 2.41 2.60 2.56 2.40 2.05 1.83 1.98 1.99 1.88 1.74 1.62 1.43 1.22 1.10
0.98 0.99 0.99 0.91 0.86 0.82 0.97 1.36 1.55 1.11 0.91 0.79 0.72 0.70 0.78 0.82 1.01 1.09 1.04 1.11 1.16 1.04 1.01 1.09 1.20 1.31 1.40 1.56 1.88 2.15 2.39 2.52 2.49 2.44 2.01 1.94 2.07 2.13 2.32 1.94 1.53 1.18 1.02

GEFSMA_prec_meanprecacc_252.txt.gz
Total_Precipitation_Accumulation
0.80 0.75 0.72 0.69 0.66 0.66 0.63 0.57 0.51 0.45 0.38 0.35 0.33 0.29 0.28 0.26 0.26 0.24 0.20 0.20 0.20 0.24 0.37 0.59 0.85 1.09 1.29 1.45 1.56 1.46 1.41 1.26 1.01 0.86 0.83 0.91 0.97 1.03 1.05 1.11 1.11 1.01 0.99
0.78 0.76 0.73 0.72 0.67 0.64 0.64 0.61 0.56 0.50 0.42 0.36 0.31 0.28 0.27 0.26 0.26 0.27 0.25 0.26 0.24 0.24 0.30 0.45 0.65 0.95 1.22 1.39 1.58 1.70 1.57 1.53 1.38 1.10 0.93 0.91 0.94 0.99 1.03 1.10 1.17 1.15 1.08
0.75 0.79 0.79 0.74 0.67 0.62 0.60 0.61 0.63 0.63 0.56 0.47 0.39 0.31 0.27 0.24 0.23 0.23 0.25 0.28 0.29 0.28 0.29 0.37 0.48 0.70 1.03 1.31 1.50 1.74 1.79 1.65 1.67 1.54 1.28 1.07 1.01 1.01 1.06 1.12 1.18 1.25 1.20
0.79 0.83 0.84 0.79 0.73 0.68 0.65 0.61 0.60 0.61 0.60 0.56 0.51 0.45 0.38 0.31 0.24 0.20 0.21 0.24 0.31 0.33 0.32 0.34 0.40 0.52 0.81 1.15 1.47 1.71 2.10 1.97 1.85 1.90 1.84 1.51 1.24 1.14 1.16 1.21 1.25 1.32 1.35
0.77 0.82 0.86 0.85 0.82 0.80 0.75 0.70 0.64 0.58 0.55 0.53 0.50 0.47 0.42 0.38 0.35 0.31 0.26 0.23 0.24 0.31 0.36 0.37 0.40 0.42 0.58 0.90 1.25 1.58 2.08 2.42 2.25 2.16 2.23 2.13 1.76 1.46 1.36 1.38 1.42 1.45 1.51
0.79 0.78 0.81 0.84 0.87 0.85 0.81 0.75 0.70 0.62 0.55 0.52 0.51 0.48 0.41 0.35 0.33 0.30 0.27 0.24 0.22 0.24 0.34 0.41 0.43 0.39 0.42 0.58 0.88 1.33 1.78 2.27 2.53 2.43 2.39 2.44 2.31 2.01 1.76 1.65 1.62 1.68 1.72
0.87 0.84 0.81 0.80 0.83 0.82 0.76 0.71 0.70 0.69 0.66 0.62 0.64 0.60 0.51 0.42 0.38 0.34 0.31 0.26 0.21 0.20 0.25 0.37 0.46 0.43 0.38 0.42 0.53 0.80 1.29 1.92 2.47 2.71 2.70 2.63 2.61 2.42 2.16 1.95 1.81 1.86 1.94
0.91 0.89 0.82 0.83 0.82 0.79 0.76 0.69 0.67 0.68 0.67 0.67 0.69 0.72 0.64 0.57 0.48 0.38 0.35 0.31 0.25 0.24 0.26 0.30 0.40 0.46 0.45 0.40 0.37 0.48 0.75 1.33 2.02 2.58 2.88 2.95 2.92 2.87 2.61 2.33 2.11 2.06 2.16
0.90 0.93 0.87 0.82 0.84 0.84 0.80 0.72 0.66 0.65 0.65 0.60 0.59 0.78 0.82 0.61 0.42 0.34 0.33 0.31 0.30 0.28 0.27 0.29 0.35 0.43 0.49 0.48 0.44 0.45 0.52 0.83 1.44 2.17 2.72 3.00 3.12 3.27 3.18 2.80 2.53 2.39 2.41
0.88 0.86 0.89 0.88 0.83 0.81 0.77 0.73 0.67 0.63 0.65 0.65 0.60 0.59 0.65 0.64 0.63 0.46 0.31 0.29 0.31 0.33 0.32 0.31 0.33 0.39 0.46 0.53 0.54 0.56 0.57 0.64 1.02 1.58 2.27 2.88 3.25 3.55 3.75 3.37 2.92 2.71 2.66
0.88 0.88 0.85 0.88 0.87 0.81 0.75 0.75 0.75 0.72 0.71 0.70 0.65 0.58 0.54 0.50 0.52 0.62 0.44 0.30 0.32 0.32 0.34 0.37 0.37 0.41 0.44 0.51 0.57 0.60 0.68 0.69 0.90 1.26 1.74 2.46 3.09 3.69 4.20 4.06 3.36 2.89 2.72
0.91 0.85 0.84 0.83 0.84 0.81 0.73 0.70 0.73 0.77 0.77 0.73 0.67 0.61 0.62 0.61 0.53 0.58 0.54 0.38 0.36 0.33 0.35 0.40 0.44 0.46 0.47 0.51 0.55 0.65 0.71 0.77 0.87 1.07 1.34 1.83 2.49 3.12 3.93 4.31 3.82 3.17 2.77
0.97 0.89 0.83 0.81 0.79 0.78 0.77 0.74 0.74 0.74 0.74 0.78 0.76 0.68 0.62 0.57 0.55 0.62 0.68 0.57 0.49 0.41 0.40 0.42 0.44 0.50 0.55 0.57 0.58 0.65 0.67 0.75 0.86 0.99 1.11 1.30 1.74 2.45 3.27 4.16 4.41 3.77 3.19
0.91 0.91 0.91 0.85 0.77 0.74 0.77 0.80 0.79 0.76 0.76 0.79 0.76 0.73 0.67 0.58 0.59 0.67 0.77 0.87 0.82 0.58 0.48 0.44 0.41 0.45 0.53 0.61 0.63 0.67 0.63 0.74 0.83 0.93 1.02 1.12 1.27 1.71 2.52 3.48 4.42 4.49 3.83
0.90 0.97 0.97 0.96 0.90 0.83 0.79 0.79 0.81 0.80 0.83 0.81 0.80 0.79 0.79 0.70 0.66 0.68 0.72 0.89 1.16 1.01 0.60 0.43 0.42 0.45 0.52 0.61 0.70 0.69 0.66 0.72 0.79 0.91 1.03 1.11 1.18 1.37 1.76 2.40 3.29 4.25 4.45
0.87 0.99 1.03 0.99 1.00 0.97 0.91 0.86 0.82 0.80 0.85 0.87 0.87 0.88 0.86 0.84 0.83 0.77 0.77 0.82 0.98 1.12 0.84 0.42 0.39 0.43 0.56 0.66 0.78 0.78 0.78 0.85 0.84 0.91 1.00 1.06 1.09 1.20 1.41 1.78 2.35 3.23 4.10
0.81 0.89 1.01 1.03 1.03 1.05 1.02 0.99 0.94 0.91 0.90 0.90 0.94 1.00 0.97 0.95 1.01 0.97 0.91 0.87 0.88 0.99 1.00 0.52 0.39 0.42 0.62 0.82 0.87 0.88 0.92 0.88 0.81 0.85 0.92 0.98 1.04 1.14 1.32 1.55 1.88 2.42 3.26
0.82 0.85 0.95 1.08 1.11 1.10 1.07 1.06 1.04 1.07 1.12 1.08 1.02 1.04 1.07 1.07 1.10 1.08 1.07 0.98 0.87 0.83 0.92 0.76 0.52 0.54 0.66 0.83 0.89 0.92 0.99 0.97 0.89 0.91 0.94 1.00 1.07 1.17 1.32 1.48 1.68 1.96 2.57
0.87 0.86 0.95 1.09 1.17 1.19 1.16 1.08 1.07 1.12 1.21 1.29 1.27 1.24 1.18 1.18 1.19 1.14 1.14 1.09 0.99 0.89 0.87 0.89 0.71 0.63 0.70 0.81 0.93 1.00 1.04 1.04 1.04 1.07 1.01 1.04 1.12 1.18 1.28 1.41 1.54 1.74 2.01
0.89 0.89 0.90 0.99 1.11 1.23 1.31 1.32 1.33 1.27 1.27 1.31 1.34 1.36 1.33 1.34 1.30 1.26 1.26 1.21 1.18 1.18 1.12 1.11 0.98 0.82 0.79 0.83 1.00 1.18 1.26 1.13 1.11 1.11 1.11 1.11 1.18 1.23 1.28 1.27 1.24 1.41 1.68
0.91 0.90 0.91 0.90 0.98 1.25 1.61 1.60 1.53 1.47 1.33 1.23 1.17 1.18 1.25 1.41 1.47 1.55 1.60 1.50 1.47 1.56 1.53 1.45 1.27 1.09 0.98 1.03 1.14 1.24 1.44 1.38 1.26 1.18 1.18 1.11 1.14 1.14 1.14 1.17 1.19 1.32 1.53
1.03 0.97 0.93 0.90 0.93 1.13 1.57 1.65 1.39 1.19 1.07 1.04 1.03 0.96 0.97 1.17 1.28 1.42 1.57 1.61 1.68 1.83 1.92 1.85 1.59 1.34 1.09 1.04 1.16 1.38 1.59 1.75 1.67 1.30 1.29 1.30 1.25 1.28 1.19 1.13 1.19 1.26 1.41
1.08 1.06 0.97 0.90 0.85 0.92 1.32 1.44 1.25 0.98 0.85 0.82 0.85 0.84 0.84 0.91 1.06 1.06 1.23 1.35 1.42 1.60 1.82 1.93 1.89 1.47 1.21 1.11 1.37 1.57 1.63 1.75 1.66 1.43 1.50 1.68 1.49 1.42 1.30 1.26 1.26 1.18 1.27
1.13 1.08 1.02 0.93 0.88 0.83 1.17 1.37 1.25 0.91 0.77 0.70 0.71 0.70 0.70 0.75 0.90 1.07 1.19 1.21 1.16 1.26 1.54 1.74 1.89 1.71 1.49 1.43 1.67 1.95 2.08 2.09 1.90 1.70 1.67 1.99 1.77 1.61 1.51 1.40 1.32 1.16 1.17
1.05 1.04 1.00 0.91 0.88 0.85 1.05 1.39 1.39 1.00 0.83 0.71 0.68 0.68 0.65 0.64 0.90 1.16 1.17 1.13 1.03 1.05 1.24 1.53 1.74 1.83 1.88 1.99 2.15 2.44 2.62 2.58 2.41 2.07 1.84 2.00 2.00 1.89 1.75 1.64 1.45 1.24 1.13
1.00 1.01 1.00 0.92 0.87 0.83 0.98 1.37 1.56 1.13 0.93 0.81 0.73 0.70 0.79 0.83 1.02 1.10 1.05 1.12 1.16 1.05 1.02 1.10 1.21 1.32 1.41 1.57 1.89 2.17 2.41 2.55 2.51 2.46 2.03 1.96 2.09 2.14 2.35 1.97 1.55 1.22 1.08

GEFSMA_prec_meanprecacc_258.txt.gz
Total_Precipitation_Accumulation
0.83 0.78 0.75 0.72 0.69 0.69 0.68 0.62 0.55 0.47 0.39 0.36 0.34 0.30 0.29 0.27 0.26 0.24 0.20 0.20 0.20 0.24 0.37 0.60 0.86 1.09 1.29 1.46 1.57 1.47 1.41 1.27 1.02 0.87 0.84 0.93 0.98 1.05 1.06 1.13 1.13 1.03 1.01
0.82 0.80 0.76 0.74 0.69 0.66 0.67 0.65 0.60 0.53 0.44 0.37 0.32 0.29 0.28 0.26 0.27 0.27 0.25 0.26 0.24 0.24 0.31 0.45 0.65 0.96 1.22 1.40 1.59 1.71 1.58 1.54 1.39 1.11 0.95 0.92 0.96 1.01 1.05 1.12 1.19 1.18 1.10
0.78 0.82 0.82 0.77 0.70 0.64 0.63 0.65 0.67 0.67 0.59 0.49 0.41 0.34 0.29 0.26 0.24 0.24 0.26 0.28 0.29 0.29 0.30 0.38 0.48 0.71 1.04 1.32 1.51 1.75 1.80 1.66 1.68 1.55 1.29 1.09 1.02 1.03 1.08 1.14 1.20 1.28 1.23
0.80 0.84 0.86 0.82 0.76 0.71 0.66 0.63 0.62 0.64 0.63 0.59 0.54 0.49 0.42 0.36 0.28 0.23 0.23 0.25 0.31 0.33 0.33 0.34 0.40 0.53 0.82 1.15 1.47 1.72 2.11 1.98 1.86 1.92 1.86 1.53 1.25 1.16 1.18 1.23 1.28 1.34 1.37
0.78 0.83 0.87 0.86 0.83 0.81 0.76 0.72 0.65 0.59 0.57 0.56 0.53 0.50 0.45 0.43 0.41 0.37 0.30 0.25 0.26 0.32 0.36 0.37 0.40 0.42 0.58 0.91 1.25 1.59 2.09 2.44 2.26 2.18 2.25 2.14 1.78 1.48 1.39 1.41 1.45 1.48 1.54
0.80 0.79 0.82 0.84 0.87 0.85 0.81 0.76 0.71 0.63 0.57 0.54 0.55 0.53 0.46 0.40 0.38 0.37 0.35 0.31 0.27 0.27 0.36 0.42 0.43 0.40 0.42 0.58 0.89 1.33 1.78 2.28 2.55 2.45 2.41 2.46 2.33 2.04 1.80 1.68 1.65 1.71 1.75
0.88 0.85 0.82 0.81 0.83 0.83 0.76 0.71 0.71 0.71 0.67 0.64 0.67 0.64 0.56 0.47 0.43 0.40 0.38 0.35 0.30 0.27 0.30 0.40 0.47 0.44 0.39 0.42 0.54 0.81 1.30 1.93 2.49 2.73 2.73 2.65 2.63 2.46 2.19 1.98 1.84 1.89 1.98
0.92 0.90 0.84 0.84 0.82 0.80 0.76 0.70 0.67 0.69 0.68 0.69 0.72 0.75 0.67 0.60 0.50 0.39 0.38 0.35 0.30 0.29 0.31 0.34 0.42 0.48 0.46 0.41 0.37 0.48 0.76 1.33 2.03 2.60 2.91 2.98 2.96 2.91 2.65 2.37 2.15 2.11 2.20
0.92 0.95 0.89 0.84 0.85 0.85 0.80 0.72 0.66 0.66 0.66 0.61 0.60 0.79 0.84 0.63 0.44 0.36 0.35 0.34 0.33 0.32 0.31 0.33 0.37 0.44 0.50 0.49 0.44 0.45 0.52 0.84 1.45 2.20 2.74 3.04 3.16 3.31 3.22 2.85 2.58 2.43 2.45
0.91 0.89 0.91 0.90 0.85 0.83 0.79 0.74 0.67 0.64 0.66 0.66 0.61 0.60 0.65 0.64 0.64 0.47 0.32 0.31 0.33 0.35 0.34 0.33 0.35 0.41 0.47 0.54 0.55 0.57 0.58 0.65 1.03 1.60 2.30 2.91 3.29 3.59 3.80 3.41 2.97 2.76 2.71
0.91 0.91 0.88 0.90 0.89 0.83 0.77 0.76 0.76 0.73 0.71 0.70 0.65 0.59 0.55 0.51 0.53 0.63 0.44 0.31 0.33 0.33 0.35 0.38 0.39 0.42 0.46 0.52 0.58 0.62 0.69 0.70 0.91 1.28 1.77 2.49 3.13 3.72 4.25 4.10 3.41 2.94 2.77
0.95 0.88 0.87 0.85 0.86 0.82 0.75 0.73 0.75 0.78 0.78 0.73 0.67 0.62 0.63 0.62 0.54 0.59 0.55 0.38 0.36 0.34 0.35 0.40 0.45 0.47 0.49 0.53 0.56 0.67 0.73 0.78 0.88 1.08 1.35 1.85 2.52 3.15 3.97 4.35 3.86 3.22 2.83
1.00 0.92 0.86 0.82 0.80 0.79 0.78 0.75 0.76 0.76 0.77 0.81 0.78 0.69 0.63 0.59 0.57 0.63 0.69 0.57 0.50 0.41 0.41 0.43 0.44 0.50 0.56 0.58 0.60 0.67 0.69 0.77 0.88 1.01 1.13 1.32 1.76 2.48 3.31 4.20 4.45 3.81 3.24
0.93 0.94 0.93 0.87 0.78 0.75 0.78 0.82 0.81 0.78 0.78 0.82 0.80 0.76 0.70 0.60 0.61 0.69 0.78 0.88 0.83 0.58 0.48 0.44 0.41 0.45 0.53 0.62 0.64 0.68 0.65 0.76 0.85 0.96 1.05 1.15 1.30 1.74 2.56 3.52 4.46 4.53 3.86
0.93 0.99 0.99 0.98 0.91 0.85 0.80 0.81 0.82 0.81 0.84 0.83 0.82 0.81 0.82 0.74 0.69 0.70 0.75 0.91 1.18 1.02 0.60 0.44 0.42 0.45 0.52 0.61 0.70 0.69 0.67 0.73 0.81 0.93 1.06 1.14 1.21 1.41 1.80 2.44 3.33 4.28 4.48
0.89 1.01 1.06 1.02 1.02 0.99 0.93 0.87 0.83 0.81 0.86 0.88 0.88 0.89 0.87 0.87 0.85 0.80 0.80 0.85 1.00 1.14 0.85 0.43 0.39 0.43 0.56 0.66 0.78 0.78 0.78 0.85 0.85 0.93 1.02 1.08 1.12 1.24 1.45 1.82 2.39 3.26 4.13
0.85 0.93 1.04 1.07 1.07 1.07 1.03 1.01 0.95 0.92 0.91 0.91 0.95 1.00 0.98 0.96 1.03 0.98 0.92 0.89 0.90 1.01 1.02 0.53 0.40 0.43 0.62 0.82 0.87 0.88 0.93 0.88 0.82 0.86 0.93 0.99 1.06 1.16 1.35 1.58 1.91 2.45 3.28
0.86 0.89 0.98 1.11 1.14 1.13 1.10 1.08 1.06 1.09 1.14 1.09 1.02 1.04 1.07 1.08 1.11 1.09 1.08 0.99 0.88 0.84 0.94 0.78 0.53 0.54 0.67 0.83 0.89 0.93 0.99 0.97 0.89 0.91 0.95 1.01 1.08 1.18 1.34 1.50 1.70 1.98 2.59
0.91 0.89 0.97 1.11 1.19 1.21 1.18 1.10 1.09 1.14 1.23 1.31 1.28 1.25 1.19 1.18 1.19 1.14 1.14 1.10 1.00 0.90 0.88 0.90 0.72 0.63 0.71 0.81 0.93 1.00 1.04 1.04 1.04 1.07 1.02 1.04 1.13 1.20 1.30 1.42 1.55 1.75 2.03
0.92 0.92 0.93 1.01 1.13 1.24 1.32 1.33 1.34 1.28 1.29 1.33 1.35 1.37 1.34 1.34 1.30 1.26 1.26 1.22 1.19 1.18 1.13 1.12 0.99 0.83 0.80 0.83 1.01 1.19 1.26 1.13 1.12 1.11 1.11 1.11 1.19 1.24 1.29 1.28 1.25 1.42 1.68
0.93 0.92 0.92 0.91 1.00 1.27 1.62 1.61 1.54 1.47 1.35 1.25 1.18 1.19 1.26 1.41 1.48 1.56 1.61 1.51 1.47 1.58 1.54 1.47 1.28 1.10 0.99 1.04 1.15 1.25 1.45 1.38 1.27 1.19 1.19 1.12 1.14 1.14 1.14 1.18 1.20 1.34 1.55
1.05 0.99 0.94 0.91 0.94 1.14 1.59 1.66 1.40 1.20 1.08 1.06 1.04 0.97 0.98 1.18 1.29 1.43 1.58 1.61 1.69 1.85 1.94 1.87 1.61 1.36 1.11 1.06 1.17 1.40 1.61 1.77 1.69 1.31 1.30 1.30 1.26 1.29 1.19 1.14 1.20 1.28 1.43
1.10 1.07 0.98 0.91 0.87 0.94 1.34 1.46 1.27 1.00 0.86 0.83 0.86 0.86 0.86 0.93 1.08 1.07 1.24 1.36 1.44 1.61 1.84 1.95 1.91 1.50 1.24 1.13 1.39 1.58 1.64 1.77 1.68 1.45 1.51 1.69 1.50 1.42 1.31 1.27 1.28 1.20 1.29
1.15 1.10 1.03 0.94 0.89 0.84 1.18 1.39 1.27 0.93 0.78 0.71 0.71 0.70 0.71 0.76 0.91 1.09 1.21 1.23 1.17 1.27 1.55 1.76 1.91 1.73 1.51 1.45 1.69 1.98 2.10 2.11 1.91 1.71 1.68 2.00 1.78 1.62 1.52 1.41 1.33 1.18 1.19
1.07 1.06 1.01 0.92 0.89 0.86 1.06 1.40 1.40 1.02 0.85 0.72 0.69 0.69 0.65 0.65 0.91 1.17 1.19 1.14 1.04 1.06 1.25 1.54 1.76 1.84 1.89 2.00 2.16 2.46 2.64 2.59 2.43 2.07 1.85 2.01 2.02 1.90 1.76 1.66 1.47 1.27 1.16
1.02 1.04 1.02 0.94 0.88 0.84 0.99 1.38 1.57 1.14 0.95 0.83 0.75 0.71 0.79 0.84 1.03 1.12 1.06 1.12 1.17 1.06 1.02 1.10 1.21 1.33 1.42 1.57 1.91 2.19 2.43 2.57 2.54 2.48 2.05 1.98 2.11 2.16 2.37 1.98 1.57 1.24 1.10